     2.10           OBSERVATION DATA    G (GPS)             RINEX VERSION / TYPE
teqc 2005May6 SOPAC 20050707 00:35:41UTC                    PGM / RUN BY / DATE
Linux 2.4.20-8|Pentium IV|gcc|Linux|486/DX+                 COMMENT
BIT 2 OF LLI FLAGS DATA COLLECTED UNDER A/S CONDITION       COMMENT
Musty                                                       MARKER NAME
MUST                                                        MARKER NUMBER
Mike Paquin                                                 OBSERVER / AGENCY
0220308791 TRIMBLE 5700 2.01                                REC # / TYPE / VERS
12469278 TRM41249.00 NONE                                   ANT # / TYPE
 -2577476.0000 -4172789.0000  4064578.0000                  APPROX POSITION XYZ
        2.0000        0.0000        0.0000                  ANTENNA: DELTA H/E/N
     1     1                                                WAVELENGTH FACT L1/2
     6    L1    L2    C1    P2    P1    D1                  # / TYPES OF OBSERV
    15.0000                                                 INTERVAL
Northern California Height Modernization 2004               COMMENT
                                                            COMMENT
SOPAC - Scripps Orbit and Permanent Array Center            COMMENT
IGPP - Institute of Geophysics and Planetary Physics        COMMENT
SIO - Scripps Institution of Oceanography                   COMMENT
UCSD - University of California, San Diego                  COMMENT
                                                            COMMENT
email: archive@gpsmail.ucsd.edu                             COMMENT
ftp://garner.ucsd.edu                                       COMMENT
http://sopac.ucsd.edu                                       COMMENT
                                                            COMMENT
                                                            COMMENT
Approximate Lat, Lon : 39.838, -121.703                     COMMENT
                                                            COMMENT
SNR is mapped to RINEX snr flag value [0-9]                 COMMENT
L1 & L2: 2-19 dBHz = 1, 20-27 dBHz = 2, 28-31 dBHz = 3      COMMENT
32-35 dBHz = 4, 36-38 dBHz = 5, 39-41 dBHz = 6              COMMENT
42-44 dBHz = 7, 45-48 dBHz = 8, >= 49 dBHz = 9              COMMENT
  2004     9    10    20    32   30.0000000     GPS         TIME OF FIRST OBS
                                                            END OF HEADER
 04  9 10 20 32 30.0000000  0  8G 1G 3G 8G13G16G20G23G27
    107491.13757     56288.95752  23846054.4534   23846056.9924
    -24468.04757
    -18061.75852                  23512979.9144   23512981.7974
    -55811.77357
    -34016.85952                  23697374.0554   23697374.8634
      2399.10959
     -3044.64556                  20403072.6254   20403071.1134

    118008.19558     58069.42652  23291230.5554   23291230.0554

    134260.18457     70895.36752  23903233.6954   23903235.6564

     78501.46159     36735.89856  20920127.6484   20920124.3164
    -20354.20759
    -15594.67655                  21958894.7814   21958894.4614

 04  9 10 20 32 45.0000000  0  8G 1G 3G 8G13G16G20G23G27
    163880.61347    100228.75842  23856784.7114   23856788.0314
     -3759.2984
    -37501.40247    -28217.58242  23510500.0004   23510501.3984
       868.8904
    -83799.31647    -55825.28542  23692047.6564   23692049.1454
      1865.8364
      3357.77049     -2297.63746  20403255.2344   20403253.6294
       -63.9114
    175529.78548    102891.39542  23302176.3834   23302175.6134
     -3834.7734
    204237.41447    125422.95342  23916549.4384   23916552.0634
     -4665.1494
    116715.29349     66512.89846  20927399.4224   20927396.5864
     -2547.5894
    -30671.24649    -23633.91445  21956931.7034   21956931.4574
       687.8034
 04  9 10 20 33  0.0000000  0  8G 1G 3G 8G13G16G20G23G27
    220222.69947    144131.62542  23867506.4454   23867509.8524
     -3756.1394
    -50533.28547    -38372.27042  23508019.6254   23508021.0044
       868.7924
   -111846.67247    -77680.30942  23686710.7194   23686711.9144
      1869.8244
      4313.27349     -1553.07447  20403436.5394   20403434.9304
       -63.7004
    233031.91048    147698.21543  23313118.7424   23313118.1994
     -3833.4754
    274141.41047    179893.51642  23929851.9064   23929854.0394
     -4660.2664
    154928.88349     96289.70746  20934671.2664   20934667.8794
     -2547.5734
    -41038.82849    -31712.53145  21954958.8984   21954958.4534
       691.1724
 04  9 10 20 33 15.0000000  0  8G 1G 3G 8G13G16G20G23G27
    276573.38347    188041.16442  23878230.1804   23878232.9924
     -3756.7124
    -63507.46147    -48481.96942  23505550.8984   23505552.2664
       864.9454
   -139897.96547    -99538.39842  23681372.0864   23681374.1214
      1870.0864
      5321.81349      -767.19147  20403628.4144   20403626.8094
       -67.2364
    290570.27048    192533.27042  23324068.2734   23324067.5394
     -3835.8914
    344027.94947    234350.43842  23943151.2584   23943153.6684
     -4659.1034
    193198.23849    126109.96946  20941953.5704   20941950.1724
     -2551.2904
    -51401.03949    -39786.96145  21952987.1024   21952986.2664
       690.8144
 04  9 10 20 33 30.0000000  0  8G 1G 3G 8G13G16G20G23G27
    332956.14847    231975.73042  23888958.9924   23888962.3204
     -3758.8514
    -76399.93047    -58527.99642  23503098.2034   23503098.6214
       859.4984
   -167929.34047   -121380.98042  23676038.6094   23676039.2194
      1868.7584
      6407.13349        78.52046  20403835.1024   20403833.3014
       -72.3554
    348168.09847    237414.68442  23335028.1484   23335028.0634
     -3839.8554
    413920.21547    288811.84442  23956451.4454   23956453.7424
     -4659.4844
    231546.97749    155992.09845  20949251.1254   20949247.7304
     -2556.5834
    -61734.24249    -47838.79745  21951020.8284   21951020.1334
       688.8804
 04  9 10 20 33 45.0000000  0  8G 1G 3G 8G13G16G20G23G27
    389375.70747    275938.94942  23899695.3674   23899698.4454
     -3761.3044
    -89205.65647    -68506.46142  23500660.7114   23500662.2114
       853.7154
   -195936.18447   -143204.44142  23670708.7274   23670709.9264
      1867.1234
      7574.32049       988.02346  20404057.5554   20404055.3634
       -77.8124
    405829.87947    282345.87542  23346001.1484   23346000.1094
     -3844.1194
    483822.62547    343281.18442  23969753.6644   23969755.4224
     -4660.1614
    269979.57449    185939.55946  20956564.6724   20956561.3914
     -2562.1734
    -72033.73849    -55864.35545  21949060.7734   21949060.5904
       686.6334
 04  9 10 20 34  0.0000000  0  8G 1G 3G 8G13G16G20G23G27
    445838.90647    319936.18042  23910439.9774   23910443.1484
     -3764.2134
   -101917.23846    -78411.52042  23498241.5234   23498243.5704
       847.4394
   -223911.59847   -165003.41842  23665385.2194   23665386.8444
      1865.0284
      8830.48849      1966.86346  20404296.3674   20404294.6954
       -83.7454
    463562.21148    327332.09042  23356987.3834   23356986.0944
     -3848.8224
    553741.71147    397763.46942  23983058.5164   23983061.4774
     -4661.2724
    308503.26649    215958.00446  20963895.6094   20963892.0204
     -2568.2464
    -82292.55949    -63858.22745  21947108.6724   21947107.6334
       683.9214
 04  9 10 20 34 15.0000000  0  8G 1G 3G 8G13G16G20G23G27
    502344.80547    363966.67642  23921192.8134   23921195.9494
     -3767.0604
   -114535.25446    -88243.70742  23495840.5864   23495842.3364
       841.2014
   -251856.16847   -186778.37542  23660067.0864   23660068.7774
      1862.9714
     10174.91849      3014.48046  20404552.1644   20404550.5164
       -89.6294
    521364.07448    372372.49642  23367986.6804   23367986.4694
     -3853.4584
    623676.39547    452257.91042  23996366.8054   23996369.8014
     -4662.3124
    347117.18049    246046.76246  20971243.4144   20971240.0634
     -2574.2614
    -92511.53149    -71821.05145  21945164.0554   21945163.2034
       681.2654
 04  9 10 20 34 30.0000000  0  8G 1G 3G 8G13G16G20G23G27
    558892.05147    408029.41042  23931953.7584   23931956.8134
     -3769.8164
   -127060.72747    -98003.77042  23493457.3284   23493458.7854
       835.0324
   -279771.13746   -208530.25442  23654755.7114   23654756.3754
      1860.9984
     11606.50049      4130.00846  20404824.4534   20404822.7274
       -95.4394
    579233.73848    417465.69542  23378998.8594   23378998.5164
     -3857.9784
    693624.94547    506763.15242  24009677.5864   24009680.8054
     -4663.2374
    385819.92649    276204.73046  20978608.6884   20978604.8834
     -2580.1834
   -102692.09849    -79753.93745  21943226.7344   21943226.3054
       678.7044
 04  9 10 20 34 45.0000000  0  8G 1G 3G 8G13G16G20G23G27
    615481.82847    452125.28142  23942722.3754   23942725.1724
     -3772.6524
   -139491.97747   -107690.41442  23491091.1094   23491093.3404
       828.7504
   -307655.04347   -230257.91842  23649449.1254   23649450.4884
      1858.9274
     13126.77749      5314.64546  20405113.7974   20405112.1914
      -101.3524
    637172.12547    462612.46142  23390024.2894   23390023.3834
     -3862.5594
    763588.43447    561280.03942  24022991.4304   24022994.0274
     -4664.2334
    424612.80149    306432.93846  20985990.5474   20985986.8284
     -2586.1924
   -112832.82849    -87655.78545  21941296.8984   21941296.6954
       676.0494
 04  9 10 20 35  0.0000000  0  8G 1G 3G 8G13G16G20G23G27
    672111.47747    496252.21942  23953498.8834   23953501.6804
     -3775.3104
   -151831.28147   -117305.37942  23488742.8914   23488745.2814
       822.6204
   -335510.60547   -251963.49242  23644148.0864   23644149.5514
      1857.0374
     14733.15649      6566.37946  20405419.6804   20405417.9774
      -107.0924
    695176.38347    507810.56342  23401062.1254   23401061.5084
     -3866.9514
    833563.91847    615806.28942  24036307.3444   24036309.6254
     -4665.0324
    463493.02049    336729.19546  20993389.6024   20993385.7774
     -2592.0154
   -122936.43449    -95528.71145  21939374.2814   21939373.9494
       673.5744
 04  9 10 20 35 15.0000000  0  8G 1G 3G 8G13G16G20G23G27
    728782.35947    540411.27342  23964282.3054   23964286.2304
     -3778.0594
   -164076.78147   -126847.30142  23486412.9694   23486415.0554
       816.3674
   -363336.43446   -273645.89842  23638853.0634   23638854.0824
      1855.0554
     16427.46149      7886.62546  20405741.9844   20405740.1844
      -112.9544
    753247.57048    553060.81342  23412112.8754   23412112.1414
     -3871.4124
    903552.44946    670342.70342  24049625.8284   24049628.1994
     -4665.9024
    502462.12549    367094.71546  21000805.0474   21000801.4024
     -2597.9404
   -133001.43749   -103371.54345  21937458.9454   21937458.2074
       671.0004
 04  9 10 20 35 30.0000000  0  8G 1G 3G 8G13G16G20G23G27
    785491.43847    584600.09042  23975073.7424   23975077.0704
     -3780.6054
   -176231.16447   -136318.19142  23484099.9844   23484101.9144
       810.2924
   -391135.10547   -295307.16842  23633563.1484   23633564.2274
      1853.2454
     18206.90649      9273.21146  20406080.6174   20406078.7234
      -118.6304
    811382.44147    598360.66842  23423175.1804   23423175.4924
     -3875.6584
    973550.65647    724886.65642  24062946.2894   24062948.8164
     -4666.5474
    541517.23849    397527.26246  21008236.7114   21008233.2034
     -2603.6744
   -143030.87949   -111186.68045  21935550.2734   21935550.0824
       668.6294
 04  9 10 20 35 45.0000000  0  8G 1G 3G 8G13G16G20G23G27
    842241.30947    628820.68042  23985872.8524   23985876.2304
     -3783.3254
   -188291.53547   -145715.87542  23481804.6024   23481806.4964
       804.0254
   -418904.18747   -316945.36342  23628279.2974   23628280.5204
      1851.2724
     20074.16449     10728.22747  20406435.6484   20406434.0784
      -124.4844
    869583.36747    643712.01242  23434250.4064   23434250.3444
     -3880.0624
   1043561.01246    779440.06642  24076268.9614   24076271.9694
     -4667.3574
    580660.94549    428028.84046  21015685.6884   21015681.9804
     -2609.5804
   -153022.05949   -118971.99645  21933649.1414   21933648.9064
       666.0794
 04  9 10 20 36  0.0000000  0  8G 1G 3G 8G13G16G20G23G27
    899031.09047    673072.40642  23996680.1414   23996683.4344
     -3785.9854
   -200258.14147   -155040.43442  23479527.5004   23479529.4964
       797.7744
   -446644.45347   -338561.09842  23623000.0864   23623001.3054
      1849.3514
     22028.84049     12251.35946  20406807.9224   20406806.0944
      -130.3124
    927849.23847    689113.94142  23445338.9694   23445337.7154
     -3884.3914
   1113582.34446    834002.02742  24089593.9224   24089596.8404
     -4668.0894
    619892.38349    458598.77046  21023150.7734   21023147.5204
     -2615.4294
   -162975.87149   -126728.19145  21931754.6414   21931754.5274
       663.5884
 04  9 10 20 36 15.0000000  0  8G 1G 3G 8G13G16G20G23G27
    955858.21947    717353.19542  24007494.4064   24007496.9224
     -3788.4754
   -212133.34847   -164293.80942  23477268.0234   23477269.8714
       791.6804
   -474358.32046   -360156.27742  23617726.4844   23617727.6214
      1847.5914
     24068.44549     13840.66846  20407196.1254   20407194.2664
      -135.9744
    986177.24648    734564.31642  23456438.2274   23456437.3404
     -3888.5344
   1183611.79747    888570.34842  24102919.9454   24102922.5274
     -4668.6304
    659208.93049    489235.02746  21030632.7504   21030629.1174
     -2621.1034
   -172894.72749   -134457.15645  21929867.2274   21929866.9304
       661.2574
 04  9 10 20 36 30.0000000  0  8G 1G 3G 8G13G16G20G23G27
   1012721.17247    761661.93442  24018314.4384   24018317.2774
     -3790.8644
   -223918.19947   -173476.74242  23475025.4924   23475027.0744
       785.6574
   -502047.03146   -381731.84842  23612456.9064   23612458.3014
      1845.9144
     26191.83249     15495.25446  20407600.0944   20407598.4304
      -141.5594
   1044565.65647    780061.75842  23467548.4774   23467548.7344
     -3892.5614
   1253647.59446    943143.59042  24116247.3524   24116249.9304
     -4669.0534
    698609.30549    519936.59446  21038130.4224   21038126.8284
     -2626.6924
   -182780.03549   -142159.96945  21927986.3134   21927985.6454
       659.0214
 04  9 10 20 36 45.0000000  0  8G 1G 3G 8G13G16G20G23G27
   1069618.82447    805997.68442  24029142.2504   24029144.7344
     -3793.1774
   -235613.32447   -182589.80142  23472800.2504   23472801.7114
       779.6754
   -529711.59447   -403288.59842  23607192.8594   23607194.2934
      1844.3044
     28398.09849     17214.43446  20408020.1414   20408017.8874
      -147.0844
   1103013.09047    825605.18442  23478671.2034   23478670.4964
     -3896.4964
   1323688.45346    997720.73842  24129575.8284   24129579.1374
     -4669.3914
    738092.39849    550702.62946  21045643.6804   21045640.2544
     -2632.2064
   -192632.96149   -149837.55945  21926111.1174   21926110.7074
       656.8624
 04  9 10 20 37  0.0000000  0  8G 1G 3G 8G13G16G20G23G27
   1126550.72347    850360.13342  24039975.6174   24039978.9774
     -3795.4604
   -247218.91447   -191633.07442  23470591.1884   23470592.9884
       773.7064
   -557352.32047   -424826.77043  23601933.1724   23601934.4224
      1842.7154
     30687.09849     18998.07846  20408455.7344   20408453.7274
      -152.6004
   1161518.86347    871194.06642  23489804.2734   23489803.4144
     -3900.3854
   1393733.57447   1052301.24242  24142905.2424   24142908.3404
     -4669.6754
    777657.82449    581532.82046  21053172.4924   21053169.3284
     -2637.6954
   -202453.90249   -157490.21145  21924242.2974   21924241.7034
       654.7294
 04  9 10 20 37 15.0000000  0  8G 1G 3G 8G13G16G20G23G27
   1183515.34847    894748.06642  24050815.7274   24050818.9734
     -3797.6424
   -258736.00847   -200607.38742  23468399.9064   23468401.6414
       767.8064
   -584970.62947   -446347.48843  23596677.3444   23596678.7034
      1841.2214
     33057.37949     20845.05146  20408906.5164   20408904.7704
      -158.0194
   1220081.20747    916827.04742  23500947.7274   23500947.6844
     -3904.1564
   1463781.23446   1106883.74242  24156234.1414   24156237.7234
     -4669.8444
    817304.18849    612426.06646  21060717.2974   21060713.8444
     -2643.0914
   -212244.29349   -165119.07045  21922379.4924   21922378.8594
       652.6934
 04  9 10 20 37 30.0000000  0  8G 1G 3G 8G13G16G20G23G27
   1240512.81646    939161.61342  24061662.1334   24061665.4344
     -3799.8314
   -270164.09447   -209512.35942  23466224.9774   23466226.9104
       761.8724
   -612566.35947   -467850.59842  23591425.9384   23591427.1254
      1839.7154
     35509.52349     22755.82046  20409373.0314   20409371.1844
      -163.4764
   1278700.01647    962503.98442  23512103.6484   23512103.1804
     -3907.9214
   1533831.21946   1161468.01242  24169565.1254   24169567.9304
     -4669.9994
    857031.52749    643382.42646  21068277.1174   21068273.9384
     -2648.4894
   -222003.82849   -172723.90245  21920522.3284   21920522.3134
       650.6364
 04  9 10 20 37 45.0000000  0  8G 1G 3G 8G13G16G20G23G27
   1297541.80546    983599.71142  24072514.3284   24072518.1454
     -3801.9334
   -281504.08647   -218348.68442  23464066.8674   23464068.9844
       755.9994
   -640140.77047   -489337.11743  23586178.7424   23586179.6644
      1838.2944
     38042.47749     24729.55146  20409855.2504   20409853.3554
      -168.8644
   1337373.69547   1008223.71142  23523268.9224   23523267.8524
     -3911.5794
   1603882.05146   1216052.96142  24182895.0474   24182898.5634
     -4670.0554
    896838.66449    674400.95346  21075852.4774   21075848.4844
     -2653.8094
   -231733.96949   -180305.79345  21918670.5394   21918670.5394
       648.6764
 04  9 10 20 38  0.0000000  0  8G 1G 3G 8G13G16G20G23G27
   1354600.28546   1028060.78142  24083372.9064   24083376.1294
     -3803.8994
   -292757.73847   -227117.73442  23461925.7034   23461927.1954
       750.2434
   -667695.55147   -510808.32442  23580935.4924   23580936.4264
      1836.9854
     40654.51649     26764.91446  20410352.0084   20410350.3594
      -174.1364
   1396099.89147   1053984.37542  23534443.5864   23534442.8284
     -3915.0804
   1673931.35546   1270636.73042  24196224.6254   24196227.6214
     -4669.9544
    936723.62949    705480.12946  21083441.9534   21083438.5664
     -2658.9984
   -241436.62149   -187866.28545  21916824.1644   21916823.9654
       646.8434
 04  9 10 20 38 15.0000000  0  8G 1G 3G 8G13G16G20G23G27
   1411687.48447   1072544.25842  24094235.6644   24094239.1254
     -3805.8134
   -303925.31647   -235819.68742  23459799.9064   23459801.8984
       744.5054
   -695231.34847   -532264.75443  23575695.3524   23575696.3554
      1835.7204
     43345.00449     28861.39846  20410864.1254   20410862.3054
      -179.3664
   1454877.70347   1099785.22342  23545628.7664   23545628.7624
     -3918.5214
   1743978.24246   1325218.61742  24209554.3524   24209556.9884
     -4669.7924
    976685.65649    736619.35546  21091046.6954   21091043.3324
     -2664.1354
   -251112.48849   -195405.89545  21914982.8364   21914982.1724
       645.0584
 04  9 10 20 38 30.0000000  0  8G 1G 3G 8G13G16G20G23G27
   1468804.94547   1117051.30142  24105104.4844   24105108.3484
     -3807.8314
   -315004.96147   -244453.15242  23457692.2424   23457694.1604
       738.6434
   -722746.74247   -553705.28143  23570459.2344   23570460.6024
      1834.3604
     46115.85249     31020.51246  20411391.3364   20411389.2384
      -184.7234
   1513708.52747   1145627.39542  23556823.9694   23556824.0044
     -3922.0554
   1814023.93046   1379799.55142  24222884.5084   24222886.6524
     -4669.7124
   1016726.33249    767819.85545  21098666.0474   21098662.8404
     -2669.3784
   -260759.89849   -202923.33245  21913147.3284   21913146.9104
       643.1614
 04  9 10 20 38 45.0000000  0  8G 1G 3G 8G13G16G20G23G27
   1525953.82446   1161582.82042  24115979.9454   24115983.9494
     -3809.9254
   -325995.02047   -253016.78942  23455600.4454   23455602.8094
       732.6714
   -750240.34046   -575128.80142  23565227.0314   23565228.8954
      1832.9074
     48968.35949     33243.24247  20411934.0314   20411932.2384
      -190.1674
   1572593.18048   1191511.51242  23568029.2974   23568029.2664
     -3925.6434
   1884069.35246   1434380.26642  24236212.4534   24236216.0824
     -4669.6954
   1056846.91449    799082.63745  21106300.9454   21106297.3834
     -2674.7054
   -270377.63349   -210417.66045  21911316.8754   21911316.5164
       641.1824
 04  9 10 20 39  0.0000000  0  8G 1G 3G 8G13G16G20G23G27
   1583133.66046   1206138.45342  24126861.2734   24126864.9384
     -3811.9894
   -336895.66847   -261510.77742  23453526.0474   23453527.9224
       726.7104
   -777712.32446   -596535.48042  23559999.2344   23560000.8594
      1831.4664
     51902.31649     35529.44946  20412492.3914   20412490.7894
      -195.5974
   1631530.89847   1237436.99242  23579244.8524   23579244.4964
     -3929.1814
   1954113.73046   1488960.21142  24249542.0704   24249545.0664
     -4669.6254
   1097046.92249    830407.29345  21113950.4774   21113947.1134
     -2680.0014
   -279966.20749   -217889.25045  21909491.8984   21909491.5824
       639.2384
 04  9 10 20 39 15.0000000  0  8G 1G 3G 8G13G16G20G23G27
   1640348.23046   1250721.15242  24137749.1564   24137751.9224
     -3814.3054
   -347702.61346   -269931.73842  23451469.4384   23451471.2034
       720.4634
   -805158.70347   -617922.22742  23554776.9144   23554777.1994
      1829.7594
     54921.86749     37882.35246  20413067.0864   20413065.3794
      -201.3034
   1690525.40647   1283406.71942  23590470.8134   23590470.4614
     -3932.9674
   2024160.62146   1543542.09442  24262872.3364   24262874.8634
     -4669.7934
   1137330.24649    861796.88746  21121616.2974   21121612.9924
     -2685.5554
   -289521.64549   -225335.02045  21907673.8524   21907673.4104
       637.0294
 04  9 10 20 39 30.0000000  0  8G 1G 3G 8G13G16G20G23G27
   1697594.54747   1295328.60242  24148642.2274   24148645.3874
     -3816.4214
   -358418.32447   -278281.61342  23449430.5554   23449431.9804
       714.3814
   -832582.40247   -639291.30943  23549558.4924   23549558.4384
      1828.2474
     58024.39149     40299.90647  20413657.6334   20413655.7424
      -206.8354
   1749573.42647   1329418.11742  23601707.9694   23601707.3444
     -3936.5354
   2094206.87546   1598123.45342  24276201.6564   24276204.6054
     -4669.7504
   1177694.00049    893249.14146  21129297.3284   21129293.9654
     -2690.9174
   -299046.86349   -232757.25445  21905861.3754   21905860.6414
       635.0154
 04  9 10 20 39 45.0000000  0  7G 3G 8G13G16G20G23G27
   -369039.21947   -286557.61342  23447409.6414   23447410.9844
       708.0604
   -859980.19947   -660640.20342  23544343.7034   23544345.6134
      1826.5204
     61213.09449     42784.61346  20414264.0704   20414262.2934
      -212.5804
   1808677.87947   1375473.51242  23612954.5864   23612954.4104
     -3940.2974
   2164255.34446   1652706.55942  24289530.8914   24289534.3914
     -4669.8984
   1218141.33249    924766.53146  21136994.2114   21136990.6094
     -2696.4894
   -308538.74649   -240153.51245  21904054.5864   21904053.9304
       632.7924
 04  9 10 20 40  0.0000000  0  7G 3G 8G13G16G20G23G27
   -379566.59447   -294760.73042  23445406.0704   23445407.9494
       701.8254
   -887353.58247   -681970.05143  23539135.3754   23539137.2504
      1824.8924
     64486.69949     45335.48046  20414887.4384   20414885.2344
      -218.2404
   1867836.82847   1421571.36742  23624212.5634   23624211.9304
     -3943.9304
   2234304.20346   1707289.95342  24302862.3594   24302863.9534
     -4669.9244
   1258670.66849    956347.81346  21144706.7974   21144702.9224
     -2701.9564
   -317998.79349   -247524.95345  21902254.7734   21902253.8324
       630.6704
 04  9 10 20 40 15.0000000  0  7G 3G 8G13G16G20G23G27
   -389996.65647   -302888.03542  23443420.8524   23443423.3014
       695.3384
   -914699.07047   -703278.17243  23533932.0084   23533933.1804
      1823.0334
     67848.89549     47955.37546  20415527.1484   20415525.2734
      -224.1464
   1927053.48047   1467714.19142  23635480.8284   23635481.0274
     -3947.7774
   2304356.51246   1761876.09842  24316192.1094   24316194.1214
     -4670.1544
   1299285.64849    987995.84046  21152435.3834   21152432.1214
     -2707.6654
   -327423.39849   -254868.79345  21900461.2114   21900460.3754
       628.3074
 04  9 10 20 40 30.0000000  0  7G 3G 8G13G16G20G23G27
   -400326.59047   -310937.30942  23441455.5164   23441457.5044
       688.6624
   -942014.00047   -724562.49243  23528733.5784   23528735.1254
      1820.9954
     71302.41049     50646.42646  20416184.3524   20416182.3714
      -230.2344
   1986330.06347   1513903.70742  23646760.9924   23646760.4774
     -3951.7724
   2374414.59846   1816466.67242  24329523.6024   24329526.8284
     -4670.5394
   1339988.62549   1019712.41845  21160181.1414   21160177.8674
     -2713.5324
   -336810.21949   -262183.16845  21898675.3054   21898674.4454
       625.7884
 04  9 10 20 40 45.0000000  0  7G 3G 8G13G16G20G23G27
   -410552.90647   -318905.84442  23439509.2664   23439511.6414
       681.7544
   -969295.26247   -745820.57043  23523542.4384   23523543.5394
      1818.7514
     74850.67649     53411.30946  20416859.5314   20416857.5744
      -236.5514
   2045669.53147   1560142.22742  23658053.1564   23658052.5274
     -3955.9654
   2444481.26646   1871063.96942  24342857.0864   24342859.6094
     -4671.1114
   1380782.75049   1051500.03545  21167943.8364   21167940.3094
     -2719.6084
   -346156.02049   -269465.59045  21896896.7424   21896895.9924
       623.0534
 04  9 10 20 41  0.0000000  0  7G 3G 8G13G16G20G23G27
   -420674.84847   -326793.04742  23437583.4844   23437584.7584
       674.7964
   -996542.25447   -767051.94543  23518357.4614   23518358.7424
      1816.4664
     78494.31649     56250.51647  20417553.0084   20417550.6644
      -242.9094
   2105071.94948   1606429.80142  23669357.2734   23669355.8164
     -3960.1614
   2514556.61746   1925668.03942  24356191.9454   24356194.7974
     -4671.6904
   1421668.41049   1083358.97346  21175724.2274   21175720.6524
     -2725.7114
   -355460.38749   -276715.73045  21895125.8204   21895125.4024
       620.2914
 04  9 10 20 41 15.0000000  0  6G 3G 8G13G16G23G27
   -430695.71945   -334601.50842  23435676.2664   23435677.6454
       668.0584
  -1023758.50847   -788259.36343  23513177.9534   23513179.1804
      1814.4174
     82229.83249     59161.30546  20418263.9774   20418261.7384
      -249.0344
   2164533.51647   1652763.47742  23680672.1954   23680671.4264
     -3964.1044
   1462642.00049   1115286.43045  21183520.9144   21183518.0434
     -2731.5734
   -364726.91848   -283936.37945  21893362.7114   21893361.9534
       617.7694
 04  9 10 20 41 30.0000000  0  6G 3G 8G13G16G23G27
   -440615.25846   -342330.98042  23433788.7814   23433790.6214
       661.3034
  -1050944.09047   -809442.88343  23508005.2034   23508005.9414
      1812.3724
     86057.25449     62143.71546  20418991.7114   20418989.9924
      -255.1614
   2224053.62147   1699142.74642  23691998.3364   23691998.3874
     -3968.0074
   1503703.32849   1147282.25446  21191334.8754   21191331.5164
     -2737.4224
   -373955.66449   -291127.59845  21891606.5164   21891605.8634
       615.2504
 04  9 10 20 41 45.0000000  0  6G 3G 8G13G16G23G27
   -450432.59047   -349980.82842  23431920.4144   23431922.3364
       654.4894
  -1078098.23048   -830601.91043  23502837.8134   23502839.2704
      1810.2764
     89977.36349     65198.35546  20419738.0864   20419736.2304
      -261.3414
   2283632.55547   1745567.85942  23703335.6884   23703335.6414
     -3971.9294
   1544853.00449   1179346.91046  21199165.5704   21199161.8204
     -2743.3124
   -383146.13749   -298288.98845  21889857.9384   21889857.1724
       612.6984
 04  9 10 20 42  0.0000000  0  6G 3G 8G13G16G23G27
   -460145.04747   -357548.95342  23430072.1334   23430074.1414
       647.4974
  -1105218.68048   -851734.68743  23497676.8134   23497677.4654
      1808.0304
     93992.75849     68327.23846  20420501.7734   20420500.0434
      -267.6934
   2343272.50847   1792040.52042  23714684.3754   23714684.8984
     -3975.9974
   1586093.39849   1211482.27046  21207013.0394   21207009.8444
     -2749.3604
   -392295.93049   -305418.68445  21888116.5394   21888115.7304
       609.9864
 04  9 10 20 42 15.0000000  0  6G 3G 8G13G16G23G27
   -469752.87546   -365035.52342  23428244.2114   23428245.6524
       640.5224
  -1132306.03948   -872841.68743  23492522.6484   23492523.3484
      1805.8244
     98103.00049     71530.03146  20421283.9224   20421282.3284
      -274.0164
   2402972.42247   1838559.91442  23726045.4774   23726045.2274
     -3979.9944
   1627423.82449   1243687.77346  21214878.1724   21214874.5634
     -2755.3624
   -401405.74248   -312517.21145  21886382.2974   21886382.4804
       607.3214
 04  9 10 20 42 30.0000000  0  6G 3G 8G13G16G23G27
   -479256.31646   -372440.78542  23426435.1954   23426437.0984
       633.5634
  -1159360.63348   -893923.15643  23487373.2814   23487375.4454
      1803.6404
    102307.75849     74806.47346  20422084.2274   20422082.5204
      -280.3174
   2462731.57847   1885125.44942  23737417.3204   23737417.1844
     -3983.9444
   1668843.77049   1275963.03946  21222760.2814   21222756.7194
     -2761.3304
   -410476.04748   -319584.97345  21884656.9844   21884656.0984
       604.6874
 04  9 10 20 42 45.0000000  0  6G 3G 8G13G16G23G27
   -488654.73846   -379764.18042  23424646.0554   23424648.4224
       626.5614
  -1186382.16448   -914978.82843  23482231.7504   23482232.4224
      1801.4354
    106607.44949     78156.88346  20422902.3984   20422900.7704
      -286.6464
   2522549.98447   1931737.17242  23748800.2664   23748799.5634
     -3987.8944
   1710353.47349   1308308.24645  21230659.3834   21230656.0634
     -2767.3144
   -419506.52748   -326621.68445  21882938.4534   21882937.9304
       602.0324
 04  9 10 20 43  0.0000000  0  6G 3G 8G13G16G23G27
   -497949.40246   -387006.74242  23422877.5314   23422879.2894
       619.6444
  -1213372.17647   -936009.98443  23477095.8834   23477096.1644
      1799.3344
    111000.90249     81580.35546  20423738.5004   20423736.6054
      -292.8974
   2582425.63747   1978393.50842  23760193.5704   23760193.0704
     -3991.7104
   1751951.43449   1340722.21946  21238575.0084   21238571.5044
     -2773.1974
   -428498.78549   -333628.62545  21881227.2734   21881226.4844
       599.4844
 04  9 10 20 43 15.0000000  0  6G 3G 8G13G16G23G27
   -507135.64547   -394164.81642  23421129.3834   23421131.7894
       612.4164
  -1240326.14848   -957013.03542  23471966.2584   23471968.0744
      1796.9324
    115492.47349     85080.28546  20424593.2664   20424591.2894
      -299.4384
   2642362.68447   2025097.64842  23771600.3914   23771599.4144
     -3995.8034
   1793641.87949   1373208.27046  21246508.3054   21246505.1994
     -2779.3634
   -437448.57449   -340602.47745  21879524.2034   21879523.4964
       596.6534
 04  9 10 20 43 30.0000000  0  6G 3G 8G13G16G23G27
   -516211.14847   -401236.57842  23419403.1804   23419404.6644
       605.0344
  -1267242.03148   -977986.39143  23466844.5634   23466845.7304
      1794.3924
    120084.35549     88658.37947  20425467.2114   20425465.2304
      -306.1264
   2702362.82447   2071850.98442  23783017.4144   23783017.4964
     -4000.0094
   1835426.78149   1405767.91445  21254459.9384   21254456.5314
     -2785.6604
   -446353.70349   -347541.50845  21877829.3134   21877828.8054
       593.6754
 04  9 10 20 43 45.0000000  0  6G 3G 8G13G16G23G27
   -525179.10247   -408224.57842  23417695.5164   23417698.0554
       597.8644
  -1294123.60248   -998933.02743  23461729.2194   23461730.3594
      1792.1054
    124773.10949     92311.96147  20426359.5084   20426357.6294
      -312.5844
   2762422.12547   2118650.40642  23794446.4844   23794446.3014
     -4003.9534
   1877302.53949   1438398.35545  21262428.7344   21262425.4304
     -2791.7174
   -455217.96549   -354448.71145  21876142.4774   21876142.2894
       590.9514
 04  9 10 20 44  0.0000000  0  6G 3G 8G13G16G23G27
   -534040.33247   -415129.39542  23416009.0394   23416011.7624
       590.7494
  -1320971.69548  -1019853.57443  23456619.8364   23456620.9184
      1789.8734
    129558.02349     96040.46946  20427269.9774   20427268.0274
      -318.9944
   2822539.22747   2165494.87942  23805886.5704   23805886.0274
     -4007.8074
   1919268.12549   1471098.80545  21270414.5084   21270411.0634
     -2797.7064
   -464042.19549   -361324.71945  21874463.6804   21874462.6564
       588.2824
 04  9 10 20 44 15.0010000  0  6G 3G 8G13G16G23G27
   -542794.33647   -421950.64842  23414343.9664   23414346.1494
       583.6004
  -1347787.03148  -1040748.58643  23451517.0674   23451518.4544
      1787.6894
    134440.35549     99844.89146  20428199.1534   20428196.9424
      -325.4894
   2882718.77347   2212388.02042  23817337.7714   23817337.9384
     -4011.9704
   1961327.23849   1503872.12145  21278417.9274   21278414.8994
     -2803.9414
   -472826.32049   -368169.47345  21872791.7554   21872791.1774
       585.6084
 04  9 10 20 44 30.0010000  0  6G 3G 8G13G16G23G27
   -551439.67247   -428687.20742  23412698.4664   23412700.4274
       576.3564
  -1374566.22748  -1061615.46543  23446421.2084   23446421.8764
      1785.2804
    139419.69549    103724.90246  20429146.5054   20429144.5134
      -331.9564
   2942952.34447   2259323.20742  23828800.2084   23828800.3994
     -4015.5714
   2003474.03149   1536713.76245  21286438.4894   21286434.9544
     -2809.7864
   -481569.12149   -374982.02745  21871127.7554   21871127.6694
       582.8534
 04  9 10 20 44 45.0010000  0  6G 3G 8G13G16G23G27
   -559977.84847   -435340.29742  23411074.9584   23411075.4624
       569.2124
  -1401312.37548  -1082456.58643  23441331.2634   23441332.6224
      1783.0774
    144495.09049    107679.76646  20430111.9894   20430110.2904
      -338.3604
   3003242.24647   2306302.32842  23840273.3104   23840273.1654
     -4019.3274
   2045709.86349   1569624.77746  21294475.5444   21294472.3294
     -2815.7224
   -490272.52749   -381763.87545  21869471.9354   21869471.2984
       580.2274
 04  9 10 20 45  0.0010000  0  6G 3G 8G13G16G23G27
   -568410.84447   -441911.39842  23409470.0674   23409471.0094
       562.2004
  -1428027.44948  -1103273.46543  23436248.2634   23436248.8994
      1781.0054
    149664.43849    111707.83646  20431095.7474   20431094.1464
      -344.6234
   3063586.08647   2353323.46942  23851756.8254   23851755.5094
     -4022.9234
   2088032.60949   1602603.52345  21302529.1694   21302526.0054
     -2821.5164
   -498938.77049   -388516.77745  21867822.5214   21867822.2164
       577.7494
 04  9 10 20 45 15.0010000  0  6G 3G 8G13G16G23G27
   -576741.01246   -448402.38742  23407884.4194   23407885.4974
       555.3454
  -1454714.16448  -1124068.27042  23431169.9814   23431170.1494
      1779.1144
    154925.34449    115807.24246  20432097.2394   20432095.3134
      -350.7274
   3123980.67647   2400384.16042  23863248.8414   23863248.4114
     -4026.3064
   2130439.46149   1635647.81345  21310599.3644   21310595.8294
     -2827.1234
   -507570.68449   -395242.92245  21866180.2004   21866179.3844
       575.4614
 04  9 10 20 45 30.0010000  0  6G 3G 8G13G16G23G27
   -584967.58645   -454812.64142  23406318.5364   23406319.7284
       548.4384
  -1481371.93448  -1144840.53543  23426097.0364   23426097.2784
      1777.1854
    160278.39149    119978.46146  20433115.7244   20433113.7284
      -356.8704
   3184426.33247   2447484.66842  23874751.2864   23874750.5524
     -4029.7104
   2172930.89549   1668758.00846  21318684.9584   21318681.7204
     -2832.7624
   -516167.67248   -401941.85545  21864544.2084   21864543.7984
       573.1334
 04  9 10 20 45 45.0010000  0  6G 3G 8G13G16G23G27
   -593090.87946   -461142.43042  23404772.9664   23404774.2204
       541.5534
  -1508001.46148  -1165590.77343  23421029.1384   23421030.2634
      1775.3024
    165723.13349    124221.12146  20434151.8884   20434150.0794
      -362.9834
   3244921.94947   2494624.08242  23886263.7004   23886262.6924
     -4033.0414
   2215506.31649   1701933.64145  21326786.5674   21326783.8214
     -2838.3614
   -524730.42248   -408614.11745  21862914.8724   21862913.9544
       570.8504
 04  9 10 20 46  0.0010000  0  6G 3G 8G13G16G23G27
   -601109.62547   -467390.73042  23403246.4744   23403248.9314
       534.5834
  -1534601.68048  -1186318.17243  23415966.9974   23415967.9194
      1773.3484
    171260.84448    128536.22346  20435205.4504   20435203.7674
      -369.1814
   3305468.43047   2541803.15242  23897785.1384   23897784.5404
     -4036.4324
   2258166.64849   1735175.43845  21334904.9504   21334901.4464
     -2844.0224
   -533257.91848   -415258.90645  21861291.8494   21861291.3254
       568.5004
 04  9 10 20 46 15.0010000  0  6G 3G 8G13G16G23G27
   -609022.54347   -473556.56642  23401740.8494   23401742.6344
       527.5284
  -1561171.42248  -1207021.82043  23410911.2084   23410912.5754
      1771.3164
    176892.57449    132924.58647  20436277.3644   20436275.2244
      -375.4494
   3366066.31647   2589022.23442  23909316.6064   23909315.9974
     -4039.8594
   2300912.74249   1768484.07445  21343038.8644   21343035.9934
     -2849.7404
   -541749.24649   -421875.50845  21859676.2244   21859675.7244
       566.0894
 04  9 10 20 46 30.0010000  0  6G 3G 8G13G16G23G27
   -616829.24647   -479639.66042  23400255.2944   23400256.7124
       520.4474
  -1587710.83248  -1227701.82043  23405860.4424   23405862.2904
      1769.2944
    182618.62149    137386.44147  20437366.7164   20437365.0754
      -381.7364
   3426715.29747   2636281.15642  23920857.8644   23920857.6964
     -4043.2654
   2343744.63349   1801859.55546  21351189.5674   21351186.7084
     -2855.4594
   -550204.40648   -428463.93445  21858067.0284   21858066.3884
       563.6774
 04  9 10 20 46 45.0010000  0  6G 3G 8G13G16G23G27
   -624529.35245   -485639.67242  23398790.4194   23398791.3414
       513.3404
  -1614219.58648  -1248357.93743  23400816.2164   23400817.4584
      1767.2504
    188439.23049    141921.99246  20438474.5604   20438472.4274
      -388.0414
   3487415.23447   2683579.78942  23932408.3724   23932408.8374
     -4046.6624
   2386662.36749   1835301.92645  21359356.7944   21359353.7634
     -2861.1824
   -558623.13748   -435023.96145  21856465.2784   21856464.1184
       561.2494
 04  9 10 20 47  0.0010000  0  6G 3G 8G13G16G23G27
   -632119.52746   -491554.02742  23397346.2314   23397347.5284
       506.0124
  -1640694.53147  -1268987.73043  23395777.9584   23395778.6104
      1764.9964
    194357.52749    146533.65246  20439600.8174   20439598.8134
      -394.5534
   3548168.85247   2730920.23842  23943969.4504   23943969.5174
     -4050.2414
   2429668.98449   1868813.55945  21367540.4894   21367537.3684
     -2867.1084
   -567002.45748   -441553.28145  21854870.4034   21854869.6614
       558.6214
 04  9 10 20 47 15.0010000  0  6G 3G 8G13G16G23G27
   -639600.25047   -497383.11342  23395921.8564   23395923.8644
       498.7154
  -1667136.51648  -1289591.81243  23390746.6064   23390747.6964
      1762.7994
    200373.04349    151221.07446  20440745.4894   20440743.7084
      -401.0344
   3608975.12947   2778301.70742  23955540.6224   23955540.3024
     -4053.7524
   2472763.72749   1902393.87145  21375741.1924   21375737.9114
     -2872.9834
   -575343.21548   -448052.55545  21853283.2474   21853282.5054
       556.0514
 04  9 10 20 47 30.0010000  0  6G 3G 8G13G16G23G27
   -646972.12947   -503127.36742  23394518.8884   23394521.9034
       491.4594
  -1693546.33648  -1310170.85243  23385720.8414   23385721.3804
      1760.6554
    206485.02748    155983.67246  20441908.3174   20441906.7904
      -407.4664
   3669832.78547   2825723.23842  23967121.2634   23967121.3644
     -4057.1774
   2515945.56649   1936042.04345  21383958.7944   21383955.3844
     -2878.7894
   -583646.29748   -454522.46545  21851702.9814   21851702.6344
       553.5394
 04  9 10 20 47 45.0010000  0  6G 3G 8G13G16G23G27
   -654233.09447   -508785.20742  23393137.6924   23393139.6304
       484.0644
  -1719921.94548  -1330723.22743  23380701.8964   23380702.5054
      1758.3744
    212695.44549    160822.95347  20443090.2474   20443088.9074
      -414.0284
   3730743.45347   2873186.06342  23978712.3024   23978711.9544
     -4060.7114
   2559216.42249   1969759.58246  21392192.5674   21392189.8454
     -2884.7244
   -591909.77749   -460961.52345  21850130.8414   21850130.0914
       550.8994
 04  9 10 20 48  0.0010000  0  6G 3G 8G13G16G23G27
   -661382.11347   -514355.80542  23391777.2634   23391778.6494
       476.6014
  -1746262.80148  -1351248.52043  23375688.9664   23375689.9744
      1756.0574
    219005.32848    165739.75046  20444291.0754   20444289.4974
      -420.6594
   3791707.44147   2920690.43042  23990313.3414   23990313.4784
     -4064.2664
   2602576.81649   2003546.88746  21400443.9814   21400440.6734
     -2890.6934
   -600133.00848   -467369.21545  21848565.8024   21848565.5914
       548.2154
 04  9 10 20 48 15.0010000  0  6G 3G 8G13G16G23G27
   -668417.43447   -519837.82442  23390438.0054   23390439.7354
       469.0214
  -1772567.53548  -1371745.67643  23370683.3564   23370684.3764
      1753.6494
    225416.11749    170735.18046  20445511.0134   20445508.9034
      -427.3864
   3852725.87547   2968237.22742  24001924.8644   24001924.8724
     -4067.8964
   2646028.21549   2037405.09445  21408712.4274   21408709.3024
     -2896.7604
   -608314.62549   -473744.48445  21847008.6144   21847008.3684
       545.4414
 04  9 10 20 48 30.0010000  0  6G 3G 8G13G16G23G27
   -675342.27747   -525233.75042  23389120.6144   23389121.4154
       461.6564
  -1798839.44548  -1392217.25043  23365684.5674   23365684.8374
      1751.4614
    231924.63349    175806.75446  20446749.8414   20446747.6464
      -433.9014
   3913794.94947   3015823.50442  24013546.2084   24013545.7244
     -4071.2724
   2689567.04349   2071331.44945  21416997.4424   21416994.8494
     -2902.5894
   -616458.10549   -480090.03145  21845459.3024   21845459.1264
       542.8994
 04  9 10 20 48 45.0010000  0  6G 3G 8G13G16G23G27
   -682153.18047   -530540.88342  23387824.0054   23387826.1144
       454.0604
  -1825075.32848  -1412660.75843  23360691.6854   23360692.3534
      1749.0594
    238534.04349    180956.94546  20448007.3964   20448004.9704
      -440.6274
   3974917.58247   3063451.50042  24025176.9894   24025177.2164
     -4074.8424
   2733196.37149   2105328.30145  21425300.1614   21425297.2514
     -2908.6224
   -624560.23848   -486403.36745  21843917.5994   21843917.1654
       540.1424
 04  9 10 20 49  0.0010000  0  6G 3G 8G13G16G23G27
   -688846.70747   -535756.56642  23386550.3724   23386552.2554
       446.2354
  -1851271.96948  -1433073.67643  23355706.2394   23355706.6464
      1746.4434
    245247.82849    186188.47346  20449284.8174   20449282.7824
      -447.5864
   4036096.69147   3111123.48442  24036819.1384   24036819.8534
     -4078.6074
   2776919.46149   2139398.21946  21433620.7554   21433617.1464
     -2914.8734
   -632617.97349   -492682.09845  21842384.2554   21842383.7244
       537.1824
 04  9 10 20 49 15.0010000  0  6G 3G 8G13G16G23G27
   -695422.84047   -540880.77042  23385299.4584   23385301.4194
       438.4094
  -1877429.55148  -1453456.17243  23350728.7554   23350729.6854
      1743.8394
    252065.75049    191501.14847  20450582.2554   20450580.3964
      -454.5284
   4097331.57447   3158838.93842  24048471.8174   24048472.7634
     -4082.3264
   2820735.91849   2173540.89845  21441958.5364   21441955.1424
     -2921.0974
   -640631.54749   -498926.42245  21840858.9974   21840858.6424
       534.2384
 04  9 10 20 49 30.0010000  0  6G 3G 8G13G16G23G27
   -701880.39547   -545912.57842  23384070.4034   23384072.0564
       430.5044
  -1903547.13348  -1473807.46943  23345758.7314   23345759.8214
      1741.1724
    258988.96549    196895.85946  20451899.7944   20451897.8964
      -461.5484
   4158622.91447   3206598.39142  24060135.6304   24060135.5094
     -4086.0894
   2864646.52049   2207756.94546  21450314.0604   21450311.2314
     -2927.3734
   -648600.04349   -505135.62145  21839343.0054   21839341.7714
       531.2334
 04  9 10 20 49 45.0010000  0  6G 3G 8G13G16G23G27
   -708215.50847   -550848.99643  23382865.3964   23382865.7634
       422.3414
  -1929621.14148  -1494124.83243  23340796.8334   23340798.1884
      1738.2674
    266021.25049    202375.56646  20453237.7244   20453236.0324
      -468.8194
   4219973.96947   3254404.36742  24071809.6144   24071810.0634
     -4090.0704
   2908654.80549   2242049.09045  21458688.7164   21458685.6384
     -2933.8864
   -656519.88349   -511306.91445  21837835.6304   21837835.3964
       527.9894
 04  9 10 20 50  0.0010000  0  6G 3G 8G13G16G23G27
   -714429.55147   -555691.05542  23381682.1064   23381683.9154
       414.2704
  -1955652.99248  -1514409.34843  23335843.2004   23335844.2784
      1735.4574
    273161.04749    207939.04346  20454596.5214   20454594.7004
      -475.9864
   4281382.73047   3302255.34042  24083495.6304   24083495.7244
     -4093.9174
   2952759.10949   2276416.07045  21467081.3174   21467078.5444
     -2940.2874
   -664392.76249   -517441.60545  21836337.5524   21836337.2554
       524.8594
 04  9 10 20 50 15.0010000  0  6G 3G 8G13G16G23G27
   -720522.28547   -560438.57442  23380522.4424   23380524.7434
       406.1824
  -1981642.58248  -1534660.93043  23330897.3724   23330898.5404
      1732.6394
    280408.59849    213586.48846  20455975.7164   20455974.0444
      -483.1704
   4342848.95347   3350151.04342  24095192.7714   24095192.1734
     -4097.7484
   2996959.50449   2310857.92245  21475492.5284   21475489.7984
     -2946.6934
   -672218.57449   -523539.62146  21834848.5214   21834847.6464
       521.7214
 04  9 10 20 50 30.0010000  0  6G 3G 8G13G16G23G27
   -726496.03947   -565093.39142  23379385.7474   23379387.8494
       398.2504
  -2007592.94948  -1554881.94943  23325959.6144   23325959.9424
      1730.0244
    287761.33249    219315.89847  20457374.8024   20457372.8764
      -490.1824
   4404369.46947   3398089.08642  24106899.4744   24106899.3604
     -4101.3684
   3041253.09449   2345372.39145  21483920.9504   21483918.2904
     -2952.9064
   -680000.22749   -529603.23045  21833367.4504   21833366.8024
       518.7774
 04  9 10 20 50 45.0010000  0  6G 3G 8G13G16G23G27
   -732351.48047   -569656.03142  23378271.3414   23378272.8024
       390.3634
  -2033504.85548  -1575072.99243  23321028.7864   23321028.9704
      1727.4604
    295218.41049    225126.60946  20458793.8804   20458792.2674
      -497.1394
   4465943.21147   3446068.57442  24118616.9504   24118616.5754
     -4104.9164
   3085638.94149   2379958.75445  21492367.5284   21492364.9664
     -2959.0574
   -687738.53149   -535633.06646  21831895.1854   21831894.3924
       515.8874
 04  9 10 20 51  0.0010000  0  6G 3G 8G13G16G23G27
   -738086.28947   -574124.67242  23377180.3024   23377181.7004
       382.3214
  -2059375.97748  -1595232.27343  23316105.8564   23316105.6964
      1724.7414
    302782.14149    231020.43046  20460233.0284   20460231.3494
      -504.2494
   4527571.98047   3494090.97342  24130344.1064   24130344.1384
     -4108.5854
   3130119.06649   2414618.57045  21500832.2554   21500829.2474
     -2965.3424
   -695431.38349   -541627.47745  21830431.2714   21830430.4624
       512.8574
 04  9 10 20 51 15.0010000  0  6G 3G 8G13G16G23G27
   -743697.47347   -578496.98042  23376112.2164   23376113.6574
       374.0794
  -2085203.62548  -1615357.68043  23311190.8564   23311191.2284
      1721.8434
    310455.52049    236999.68846  20461693.4274   20461691.6424
      -511.5594
   4589258.26247   3542158.19942  24142082.9274   24142082.7204
     -4112.4194
   3174696.14849   2449353.94545  21509314.4274   21509311.5284
     -2971.8054
   -703076.07849   -547584.36345  21828976.4274   21828975.6574
       509.6464
 04  9 10 20 51 30.0010000  0  6G 3G 8G13G16G23G27
   -749186.36747   -582773.99642  23375068.0214   23375069.0874
       365.9264
  -2110989.43448  -1635450.46543  23306283.4194   23306284.6104
      1719.0544
    318236.94149    243063.13747  20463174.0754   20463172.1854
      -518.7614
   4650999.92647   3590268.52342  24153831.9354   24153831.6344
     -4116.1114
   3219368.39149   2484163.46545  21517815.6384   21517812.5674
     -2978.1494
   -710674.33649   -553505.06245  21827530.1614   21827529.6614
       506.5514
 04  9 10 20 51 45.0010000  0  6G 3G 8G13G16G23G27
   -754552.43447   -586955.31242  23374047.2004   23374047.9544
       357.7384
  -2136733.20348  -1655510.50443  23301384.2944   23301384.8844
      1716.2514
    326126.78149    249211.06647  20464675.7554   20464673.6464
      -525.9894
   4712796.91047   3638421.97342  24165591.4114   24165591.4974
     -4119.7994
   3264135.91849   2519047.24645  21526334.5284   21526331.7244
     -2984.5024
   -718226.01249   -559389.47345  21826093.4584   21826092.3924
       503.4454
 04  9 10 20 52  0.0010000  0  6G 3G 8G13G16G23G27
   -759792.09847   -591038.14543  23373050.2634   23373050.9974
       349.3114
  -2162431.55948  -1675535.15243  23296494.3564   23296494.9154
      1713.2244
    334128.56349    255446.22347  20466198.3334   20466196.4854
      -533.4524
   4774652.17647   3686620.85542  24177361.7084   24177362.2354
     -4123.6844
   3309002.21149   2554007.96945  21534872.5284   21534869.6814
     -2991.0864
   -725727.71548   -565234.94145  21824666.0674   21824664.7864
       500.1144
 04  9 10 20 52 15.0010000  0  6G 3G 8G13G16G23G27
   -764906.87547   -595023.64842  23372076.1854   23372077.9744
       340.9854
  -2188086.02048  -1695525.58643  23291612.4114   23291613.4114
      1710.2974
    342240.76649    261767.42246  20467742.1464   20467740.3254
      -540.8144
   4836563.77747   3734863.61342  24189143.3024   24189143.2904
     -4127.4404
   3353965.34849   2589044.15645  21543428.8104   21543425.3684
     -2997.5424
   -733181.12549   -571042.78145  21823247.3104   21823246.4664
       496.8944
 04  9 10 20 52 30.0010000  0  6G 3G 8G13G16G23G27
   -769896.89847   -598911.93742  23371126.3104   23371128.6534
       332.6684
  -2213696.87948  -1715482.07043  23286738.8494   23286739.8334
      1707.3914
    350463.32849    268174.61346  20469306.6534   20469304.7864
      -548.1714
   4898531.17246   3783149.85942  24200935.0444   24200935.1264
     -4131.1604
   3399025.01249   2624155.58245  21552003.1854   21551999.9704
     -3003.9784
   -740586.61349   -576813.28145  21821838.4274   21821837.8294
       493.6994
 04  9 10 20 52 45.0010000  0  7G19G 3G 8G13G16G23G27
    -58963.38357    -41132.43452  24409893.6614   24409893.5754

   -774761.02048   -602702.13743  23370201.6854   23370203.1464
       324.2754
  -2239263.46548  -1735404.04343  23281873.3494   23281875.0444
      1704.4394
    358796.85248    274668.27346  20470892.6224   20470890.6494
      -555.5684
   4960554.74247   3831479.89542  24212738.5214   24212737.6964
     -4134.9054
   3444181.87549   2659342.73045  21560596.3804   21560593.2164
     -3010.4584
   -747943.34848   -582545.77746  21820438.2314   21820437.8994
       490.4494
 04  9 10 20 53  0.0010000  0  7G19G 3G 8G13G16G23G27
    -85885.99646    -62111.05142  24404770.5834   24404770.6384
      1794.8414
   -779504.51247   -606398.33243  23369298.9584   23369300.2634
       316.2334
  -2264791.05148  -1755295.61343  23277016.0994   23277016.7634
      1701.8394
    367236.26249    281244.44546  20472498.5054   20472496.6424
      -562.6274
   5022628.62147   3879849.12142  24224550.9584   24224550.2824
     -4138.2594
   3489430.37549   2694601.28145  21569206.8964   21569204.1104
     -3016.5674
   -755257.02749   -588244.73046  21819046.5754   21819045.9784
       487.5794
 04  9 10 20 53 15.0010000  0  7G19G 3G 8G13G16G23G27
   -112777.05147    -83065.05942  24399653.1694   24399653.7004
      1792.7374
   -784132.04348   -610004.17642  23368418.3724   23368419.0444
       308.5024
  -2290284.70348  -1775160.76643  23272164.5994   23272164.8844
      1699.5774
    375776.55149    287899.21946  20474123.6144   20474121.6854
      -569.3534
   5084747.57447   3928253.45342  24236371.0674   24236371.0484
     -4141.2644
   3534765.42249   2729927.28545  21577833.5134   21577830.7554
     -3022.3364
   -762532.58249   -593913.98046  21817661.8804   21817661.8064
       485.0374
 04  9 10 20 53 30.0010000  0  7G19G 3G 8G13G16G23G27
   -139635.71947   -103993.84042  24394541.8964   24394542.8374
      1790.5784
   -788642.77348   -613518.99642  23367560.2714   23367560.7744
       300.7154
  -2315743.89148  -1794999.04343  23267319.7004   23267319.9934
      1697.2794
    384418.59849    294633.27746  20475768.2714   20475766.3024
      -576.1364
   5146911.84447   3976693.09042  24248201.3174   24248200.9704
     -4144.2854
   3580187.55949   2765321.14145  21586477.1854   21586474.1854
     -3028.1424
   -769769.41848   -599553.05546  21816285.0364   21816284.4034
       482.4564
 04  9 10 20 53 45.0010000  0  7G19G 3G 8G13G16G23G27
   -166465.34447   -124900.02042  24389436.0994   24389436.6854
      1788.6424
   -793040.30948   -616945.62542  23366723.2714   23366723.8374
       293.1694
  -2341172.22348  -1814813.28943  23262480.8104   23262481.5404
      1695.2224
    393158.76249    301443.80946  20477431.6064   20477429.2744
      -582.6784
   5209117.27747   4025164.83242  24260037.8724   24260038.0014
     -4147.0294
   3625692.90249   2800779.83645  21595136.7474   21595133.5014
     -3033.6904
   -776971.39148   -605164.97345  21814914.3334   21814913.4194
       480.1324
 04  9 10 20 54  0.0010000  0  7G19G 3G 8G13G16G23G27
   -193263.57047   -145781.70742  24384337.1614   24384337.3604
      1786.5484
   -797322.47347   -620282.35543  23365907.7554   23365908.9354
       285.4784
  -2366567.71148  -1834601.95343  23257648.3884   23257648.3494
      1693.0334
    401999.13749    308332.41047  20479113.7784   20479111.7204
      -589.3584
   5271365.69547   4073670.09042  24271883.2864   24271883.0834
     -4149.8954
   3671283.27049   2836304.78545  21603812.2944   21603809.1264
     -3039.3584
   -784136.47748   -610748.13745  21813550.8414   21813550.1814
       477.6724
 04  9 10 20 54 15.0010000  0  7G19G 3G 8G13G16G23G27
   -220028.35947   -166637.34442  24379242.9504   24379243.9464
      1784.3194
   -801487.34048   -623527.69543  23365115.3884   23365116.5094
       277.6584
  -2391928.87148  -1854363.86343  23252822.1384   23252821.7674
      1690.7444
    410941.34449    315300.37147  20480815.2634   20480813.1034
      -596.1474
   5333658.23047   4122209.67642  24283737.5444   24283737.1304
     -4152.8364
   3716960.37949   2871897.31645  21612504.3414   21612501.6224
     -3045.1414
   -791263.07448   -616301.31245  21812195.0134   21812194.2244
       475.1074
 04  9 10 20 54 30.0010000  0  7G19G 3G 8G13G16G23G27
   -246762.00447   -187468.70342  24374156.4584   24374156.5174
      1782.2434
   -805537.16048   -626683.39143  23364345.3024   23364345.3994
       269.9884
  -2417257.97348  -1874100.78943  23248002.0834   23248002.6464
      1688.6074
    419983.27749    322346.03547  20482536.1064   20482534.1574
      -602.7964
   5395992.06647   4170781.44542  24295599.6224   24295598.2514
     -4155.5894
   3762721.55549   2907555.35945  21621212.4894   21621209.1264
     -3050.7454
   -798353.67249   -621826.43746  21810845.4034   21810844.5444
       472.7074
 04  9 10 20 54 45.0010000  0  7G19G 3G 8G13G16G23G27
   -273464.63347   -208275.93042  24369075.7554   24369075.6034
      1780.1754
   -809472.39547   -629749.78142  23363595.9584   23363597.1384
       262.3494
  -2442555.57848  -1893813.16443  23243188.1064   23243188.8064
      1686.5074
    429124.18049    329468.82447  20484275.1144   20484273.0214
      -609.3934
   5458366.34047   4219384.75442  24307468.8024   24307468.4384
     -4158.2854
   3808566.08649   2943278.35245  21629936.7474   21629933.1064
     -3056.3024
   -805409.10949   -627324.16045  21809502.7084   21809501.5954
       470.3634
 04  9 10 20 55  0.0010000  0  7G19G 3G 8G13G16G23G27
   -300135.06647   -229058.03542  24364000.1144   24364000.2744
      1778.0294
   -813291.86747   -632725.98442  23362868.5834   23362869.9154
       254.6324
  -2467820.97348  -1913500.44143  23238380.7314   23238380.9314
      1684.3604
    438365.19149    336669.60947  20486033.6854   20486031.9274
      -616.0674
   5520781.68047   4268020.02342  24319346.4814   24319345.8684
     -4161.0234
   3854494.67249   2979066.85245  21638676.3254   21638673.3644
     -3061.9064
   -812428.37149   -632793.70746  21808166.9504   21808166.4034
       467.9514
 04  9 10 20 55 15.0010000  0  7G19G 3G 8G13G16G23G27
   -326775.37947   -249816.68042  24358930.0284   24358930.4504
      1776.0214
   -816997.83647   -635613.71142  23362163.2944   23362165.2714
       247.0654
  -2493056.68048  -1933164.60243  23233578.3564   23233578.6654
      1682.3804
    447703.93049    343946.54747  20487810.9584   20487808.7824
      -622.5834
   5583235.09847   4316685.00042  24331229.9034   24331230.6774
     -4163.5614
   3900504.77749   3014918.86346  21647431.9504   21647428.8924
     -3067.3404
   -819414.14849   -638237.15246  21806837.8024   21806837.1344
       465.7184
 04  9 10 20 55 30.0010000  0  7G19G 3G 8G13G16G23G27
   -353386.99646   -270552.94542  24353865.5834   24353866.1534
      1774.1084
   -820592.00847   -638414.35942  23361479.7164   23361481.5324
       239.6114
  -2518264.43448  -1952806.97743  23228781.4744   23228781.3454
      1680.5174
    457138.42649    351298.10247  20489606.2784   20489604.2784
      -628.9664
   5645724.41447   4365377.94942  24343122.2944   24343122.0714
     -4165.9544
   3946594.41049   3050832.85245  21656202.5524   21656199.0714
     -3072.6424
   -826368.30149   -643655.94946  21805514.4894   21805514.0914
       463.6104
 04  9 10 20 55 45.0010000  0  7G19G 3G 8G13G16G23G27
   -379971.58247   -291268.15642  24348807.0214   24348807.4974
      1772.3064
   -824076.02347   -641129.14842  23360815.8024   23360818.2044
       232.2684
  -2543446.12548  -1972429.04743  23223989.7554   23223990.0054
      1678.7794
    466667.00849    358722.98046  20491419.3644   20491417.3604
      -635.2394
   5708247.29746   4414097.03942  24355019.7714   24355020.1964
     -4168.1924
   3992761.64849   3086807.30545  21664987.7244   21664984.5874
     -3077.8164
   -833292.75449   -649051.61345  21804196.9274   21804195.8134
       461.6304
 04  9 10 20 56  0.0010000  0  7G19G 3G 8G13G16G23G27
   -406523.94547   -311958.28942  24343753.4424   24343754.5444
      1770.1584
   -827444.84047   -643754.17242  23360175.3804   23360177.0404
       224.5884
  -2568596.90248  -1992027.01243  23219203.0674   23219203.7314
      1676.7184
    476294.90249    366225.23846  20493251.2864   20493249.7594
      -641.8604
   5770808.46546   4462845.93442  24366924.7474   24366925.2744
     -4170.7454
   4039011.19549   3122845.89845  21673788.8174   21673785.7634
     -3083.3034
   -840182.68749   -654420.37945  21802885.6694   21802884.6964
       459.3294
 04  9 10 20 56 15.0010000  0  7G19G 3G 8G13G16G23G27
   -433050.80547   -332628.50842  24338706.9974   24338706.6184
      1768.4574
   -830705.30947   -646294.77342  23359555.4974   23359556.7864
       217.3654
  -2593723.78548  -2011606.34443  23214421.5134   23214422.1614
      1675.1264
    486015.00049    373799.33647  20495101.2554   20495099.7594
      -648.0074
   5833400.41846   4511618.82042  24378835.6924   24378836.2674
     -4172.7974
   4085335.80549   3158942.97345  21682603.7004   21682600.7164
     -3088.3074
   -847045.21949   -659767.78945  21801579.7944   21801578.8254
       457.5024
 04  9 10 20 56 30.0010000  0  7G19G 3G 8G13G16G23G27
   -459549.32047   -353276.66842  24333663.8564   24333664.7904
      1766.5684
   -833854.76247   -648748.88342  23358955.9194   23358956.9934
       209.9644
  -2618824.32048  -2031165.16043  23209645.2944   23209644.9894
      1673.3694
    495829.96549    381447.35946  20496969.1614   20496967.0054
      -654.3314
   5896025.25046   4560417.34442  24390752.0754   24390752.2394
     -4174.9894
   4131737.84849   3195100.39545  21691434.2714   21691431.0994
     -3093.4704
   -853877.97349   -665091.99645  21800279.6534   21800278.3064
       455.5174
 04  9 10 20 56 45.0010000  0  7G19G 3G 8G13G16G23G27
   -486020.55947   -373903.55942  24328626.1534   24328627.1064
      1764.7494
   -836894.40247   -651117.41842  23358377.7474   23358378.8644
       202.6434
  -2643899.96148  -2050704.59843  23204872.9424   23204873.3604
      1671.7094
    505738.30949    389168.14846  20498854.3964   20498852.5244
      -660.5564
   5958681.13746   4609240.11742  24402675.9584   24402675.5484
     -4177.0594
   4178215.82049   3231316.98845  21700278.3334   21700275.3994
     -3098.5324
   -860682.41849   -670394.13745  21798984.4584   21798983.5754
       453.6304
 04  9 10 20 57  0.0010000  0  7G19G 3G 8G13G16G23G27
   -512463.94947   -394508.73842  24323594.5214   24323595.4274
      1762.8934
   -839823.84847   -653400.07442  23357819.8174   23357820.5014
       195.2964
  -2668950.53948  -2070224.49243  23200106.4584   23200106.7044
      1670.0394
    515740.38349    396961.97746  20500757.7004   20500755.8294
      -666.8054
   6021368.04346   4658087.02342  24414604.5524   24414604.7634
     -4179.1274
   4224769.95749   3267592.91045  21709137.5444   21709134.3884
     -3103.6094
   -867458.34849   -675674.07045  21797695.1694   21797694.2084
       451.7294
 04  9 10 20 57 15.0010000  0  7G19G 3G 8G13G16G23G27
   -538877.93447   -415091.02042  24318567.7864   24318568.8254
      1760.9324
   -842641.51647   -655595.64542  23357284.1614   23357284.6184
       187.8454
  -2693974.69548  -2089723.79343  23195344.5134   23195344.9784
      1668.2774
    525837.55949    404829.90246  20502678.9504   20502677.2124
      -673.1454
   6084086.79746   4706958.71542  24426539.4424   24426540.1264
     -4181.2504
   4271401.21949   3303928.94145  21718011.0214   21718008.1884
     -3108.7514
   -874204.55549   -680930.84046  21796411.3564   21796410.2354
       449.7474
 04  9 10 20 57 30.0010000  0  7G19G 3G 8G13G16G23G27
   -565266.98847   -435653.86742  24313546.4744   24313547.4424
      1759.2704
   -845352.19548   -657707.86342  23356768.1224   23356769.3254
       180.7124
  -2718977.34048  -2109206.36343  23190586.8024   23190586.7354
      1666.8434
    536025.21949    412768.34047  20504618.0994   20504616.1424
      -679.1774
   6146832.38746   4755851.34442  24438480.0134   24438480.3684
     -4183.0394
   4318104.81649   3340321.32845  21726898.5054   21726895.4464
     -3113.5734
   -880925.87549   -686168.20746  21795132.5364   21795131.2864
       448.0884
 04  9 10 20 57 45.0010000  0  7G19G 3G 8G13G16G23G27
   -591625.96547   -456193.26642  24308530.0994   24308530.9744
      1757.2654
   -847950.85948   -659732.77743  23356273.0834   23356274.3454
       173.2444
  -2743953.73048  -2128668.44543  23185834.1064   23185834.4744
      1665.0934
    546308.14549    420781.00847  20506574.7004   20506572.4504
      -685.5284
   6209609.03947   4804768.19142  24450426.1224   24450426.2714
     -4185.1104
   4364885.15249   3376773.53945  21735800.6774   21735796.9814
     -3118.6894
   -887617.76649   -691382.65246  21793858.9744   21793857.7244
       446.1264
 04  9 10 20 58  0.0010000  0  7G19G 3G 8G13G16G23G27
   -617956.06247   -476710.19142  24303519.7784   24303520.2434
      1755.3404
   -850438.70747   -661671.32442  23355799.7864   23355800.8684
       165.8574
  -2768905.28548  -2148111.17243  23181085.9424   23181086.2744
      1663.4374
    556684.91449    428866.81347  20508549.4194   20508547.6494
      -691.7854
   6272415.10946   4853707.96142  24462377.3334   24462378.0794
     -4187.0714
   4411740.75849   3413284.38345  21744716.7554   21744713.7634
     -3123.7074
   -894281.64149   -696575.26246  21792590.9274   21792589.7714
       444.2584
 04  9 10 20 58 15.0010000  0  7G19G 3G 8G13G16G23G27
   -644254.93747   -497202.76242  24298515.1224   24298515.9784
      1753.2584
   -852813.56248   -663521.84842  23355348.3024   23355348.7824
       158.3244
  -2793829.98448  -2167532.97343  23176342.2864   23176343.0284
      1661.6474
    567157.74249    437027.45747  20510542.3174   20510540.3294
      -698.1894
   6335252.21546   4902671.89542  24474335.2164   24474336.0014
     -4189.1404
   4458673.48849   3449855.31645  21753647.8644   21753644.7824
     -3128.8494
   -900915.58649   -701744.55946  21791328.4664   21791327.5524
       442.2634
 04  9 10 20 58 30.0010000  0  7G19G 3G 8G13G16G23G27
   -670518.77047   -517668.01642  24293518.2164   24293518.0954
      1750.9224
   -855071.88747   -665281.56243  23354918.0364   23354919.7044
       150.5554
  -2818724.43048  -2186931.21543  23171605.1224   23171605.8254
      1659.6304
    577730.16449    445265.70346  20512554.1924   20512552.2744
      -704.8284
   6398123.40646   4951662.37142  24486299.5134   24486299.9354
     -4191.4134
   4505686.68049   3486488.96145  21762594.4814   21762591.1104
     -3134.2134
   -907516.16449   -706887.84845  21790072.2944   21790071.5834
       440.0394
 04  9 10 20 58 45.0010000  0  7G19G 3G 8G13G16G23G27
   -696747.01247   -538105.53942  24288526.2314   24288526.6264
      1748.5494
   -857213.39547   -666950.25842  23354510.9744   23354512.5404
       142.7674
  -2843588.57048  -2206305.82443  23166872.9034   23166874.6184
      1657.6094
    588402.41449    453581.74647  20514585.2244   20514583.0754
      -711.4834
   6461028.48046   5000679.26642  24498269.1304   24498270.3254
     -4193.6724
   4552780.39549   3523185.34045  21771555.7714   21771552.7084
     -3139.5814
   -914083.29749   -712005.08246  21788822.8024   21788821.5714
       437.8094
 04  9 10 20 59  0.0010000  0  7G19G 3G 8G13G16G23G27
   -722942.55947   -558517.57042  24283541.6534   24283541.6614
      1746.3704
   -859241.01647   -668530.19942  23354124.5834   23354125.8844
       135.1754
  -2868425.57448  -2225659.27743  23162147.0284   23162148.4464
      1655.8004
    599171.46549    461973.21547  20516634.3564   20516632.0914
      -717.9374
   6523963.84446   5049719.75842  24510245.2084   24510245.6964
     -4195.6914
   4599951.27049   3559941.84445  21780532.3494   21780529.1814
     -3144.7254
   -920620.33249   -717098.87145  21787578.5524   21787577.3684
       435.8024
 04  9 10 20 59 15.0010000  0  7G19G 3G 8G13G16G23G27
   -749102.20747   -578901.62942  24278563.5444   24278563.9314
      1743.9774
   -861151.66047   -670019.00842  23353761.2244   23353761.8924
       127.3764
  -2893232.14148  -2244989.02743  23157426.4424   23157427.5364
      1653.7714
    610040.25049    470442.40247  20518702.7944   20518700.6574
      -724.5864
   6586932.22746   5098786.01242  24522228.6924   24522228.4704
     -4197.8924
   4647202.15249   3596760.70345  21789523.5214   21789520.6774
     -3150.0594
   -927124.26249   -722166.85245  21786340.9114   21786339.8994
       433.5954
 04  9 10 20 59 30.0010000  0  7G19G 3G 8G13G16G23G27
   -775225.15647   -599257.10242  24273592.1854   24273592.5244
      1741.5304
   -862944.70347   -671416.17643  23353420.4894   23353420.2164
       119.5364
  -2918008.19148  -2264295.01643  23152712.3494   23152712.1264
      1651.7374
    621009.20349    478989.63346  20520790.1534   20520787.7244
      -731.2644
   6649933.51246   5147877.89542  24534217.4354   24534217.7354
     -4200.0864
   4694533.09849   3633641.93845  21798530.3414   21798527.2004
     -3155.3964
   -933594.78549   -727208.80546  21785109.8254   21785108.7984
       431.3684
 04  9 10 20 59 45.0010000  0  7G19G 3G 8G13G16G23G27
   -801313.39147   -619585.50842  24268628.0914   24268627.7904
      1739.2164
   -864622.21547   -672723.30542  23353100.9504   23353101.7784
       111.8344
  -2942756.18048  -2283579.12543  23148002.8414   23148003.0794
      1649.8664
    632076.23449    487613.30147  20522895.7944   20522893.8844
      -737.8024
   6712965.18446   5196993.42642  24546212.3254   24546211.9544
     -4202.1114
   4741941.90649   3670583.85245  21807552.3334   21807548.9894
     -3160.5874
   -940034.21549   -732226.52046  21783884.3644   21783883.3764
       429.2954
 04  9 10 21  0  0.0010000  0  7G19G 3G 8G13G16G23G27
   -827365.40247   -639885.69142  24263670.1064   24263670.3764
      1736.8014
   -866182.94947   -673939.43042  23352803.6464   23352804.9744
       104.0494
  -2967474.90648  -2302840.45743  23143299.0364   23143299.1384
      1647.9154
    643242.34449    496314.16447  20525020.9504   20525018.7514
      -744.4074
   6776027.84446   5246133.12942  24558212.1854   24558212.7204
     -4204.1774
   4789429.47349   3707587.12545  21816588.7634   21816585.5244
     -3165.8384
   -946441.64149   -737219.31646  21782664.9744   21782663.9894
       427.1624
 04  9 10 21  0 15.0010000  0  7G19G 3G 8G13G16G23G27
   -853380.79747   -660157.34042  24258719.6304   24258719.6654
      1734.3604
   -867626.67247   -675064.41042  23352528.8414   23352530.5604
        96.2484
  -2992164.15648  -2322078.79343  23138600.9034   23138600.4704
      1645.9504
    654507.78949    505092.44147  20527164.5364   20527162.2944
      -751.0304
   6839121.45746   5295296.94942  24570218.4504   24570219.6384
     -4206.2414
   4836995.89549   3744651.85245  21825640.3804   21825637.3254
     -3171.0954
   -952816.82449   -742186.97346  21781452.0914   21781450.8804
       425.0124
 04  9 10 21  0 30.0010000  0  7G19G 3G 8G13G16G23G27
   -879362.49647   -680402.72342  24253775.4114   24253775.5834
      1732.1134
   -868956.51647   -676100.62542  23352275.4584   23352276.5994
        88.6564
  -3016827.30548  -2341296.82043  23133907.5914   23133907.6224
      1644.2104
    665869.42649    513945.66047  20529326.3804   20529324.3024
      -757.4424
   6902242.30946   5344482.00042  24582229.9894   24582229.7904
     -4208.0574
   4884637.65649   3781775.28945  21834706.1854   21834703.0674
     -3176.1174
   -959163.29749   -747132.27746  21780243.9354   21780243.2394
       423.0984
 04  9 10 21  0 45.0010000  0  6G19G 3G 8G13G23G27
   -905310.81647   -700622.09042  24248837.7554   24248837.8024
      1729.8884
   -870172.76247   -677048.32442  23352044.3254   23352045.9974
        81.0834
  -3041465.15648  -2360495.09843  23129218.6854   23129219.2784
      1642.5234
    677326.77049    522873.45746  20531506.5444   20531504.5994
      -763.8234
   4932353.95749   3818956.80545  21843786.2634   21843783.0174
     -3181.0874
   -965481.62949   -752055.63746  21779041.8254   21779040.9974
       421.2224
 04  9 10 21  1  0.0010000  0  6G19G 3G 8G13G23G27
   -931226.60247   -720816.12142  24243906.0994   24243906.0244
      1727.7194
   -871276.48048   -677908.34843  23351834.1694   23351835.8764
        73.5814
  -3066078.74648  -2379674.46543  23124534.6774   23124535.3924
      1640.9064
    688878.80149    531875.04346  20533704.9424   20533702.8764
      -770.1354
   4980143.60249   3856195.48045  21852880.2554   21852876.9814
     -3185.9764
   -971773.10949   -756958.07846  21777844.7394   21777843.6464
       419.4324
 04  9 10 21  1 15.0010000  0  6G19G 3G 8G13G23G27
   -957106.43747   -740982.12142  24238980.7714   24238981.0794
      1725.3224
   -872264.36347   -678678.10942  23351645.9744   23351647.4464
        65.8594
  -3090664.68748  -2398832.31643  23119855.8174   23119857.2244
      1639.0634
    700528.68449    540952.87547  20535921.8414   20535919.7714
      -776.6594
   5028009.56649   3893493.62145  21861988.6924   21861985.8924
     -3191.0644
   -978034.57449   -761837.12545  21776653.0284   21776652.0794
       417.4314
 04  9 10 21  1 30.0010000  0  6G19G 3G 8G13G23G27
   -982947.98847   -761118.28942  24234063.2244   24234063.8104
      1722.7704
   -873134.39148   -679356.01643  23351480.7164   23351482.1224
        58.0024
  -3115221.18448  -2417967.19543  23115183.3964   23115184.2714
      1637.1004
    712278.23849    550108.37146  20538157.6774   20538155.6534
      -783.3044
   5075953.46149   3930852.47345  21871112.5914   21871109.5054
     -3196.2604
   -984264.41849   -766691.54346  21775467.3334   21775466.8804
       415.3234
 04  9 10 21  1 45.0010000  0  6G19G 3G 8G13G23G27
  -1008748.37147   -781222.35542  24229153.4974   24229153.5634
      1720.0264
   -873883.77347   -679939.93043  23351338.3884   23351339.8644
        49.9594
  -3139745.82048  -2437077.27744  23110516.3024   23110517.1034
      1634.9764
    724130.26649    559343.71147  20540413.0604   20540411.6464
      -790.1354
   5123977.73049   3968273.96545  21880251.1854   21880248.3104
     -3201.6184
   -990459.87549   -771519.16446  21774289.0914   21774287.5874
       413.0304
 04  9 10 21  2  0.0010000  0  6G19G 3G 8G13G23G27
  -1034506.22347   -801293.31242  24224251.8024   24224251.9464
      1717.1904
   -874511.22348   -680428.84843  23351218.8564   23351219.9934
        41.8304
  -3164237.45748  -2456161.64544  23105856.3024   23105856.8604
      1632.7764
    736085.88349    568659.78147  20542688.0674   20542686.5564
      -797.0414
   5172083.44549   4005758.92645  21889405.3724   21889402.2314
     -3207.0484
   -996620.04349   -776319.28146  21773116.1534   21773115.3374
       410.6784
 04  9 10 21  2 15.0010000  0  6G19G 3G 8G13G23G27
  -1060217.17247   -821327.68742  24219359.2864   24219359.8604
      1714.0634
   -875012.57847   -680819.47743  23351123.5054   23351124.8884
        33.4244
  -3188692.14148  -2475217.20344  23101202.7634   23101202.7674
      1630.3124
    748149.44949    578059.95746  20544983.8564   20544981.9114
      -804.2384
   5220274.48049   4043310.35945  21898575.8564   21898572.9354
     -3212.7364
  -1002740.76649   -781088.66446  21771951.6064   21771951.1064
       408.0484
 04  9 10 21  2 30.0010000  0  6G19G 3G 8G13G23G27
  -1085881.38347   -841325.65642  24214475.6614   24214475.6774
      1710.9474
   -875388.29347   -681112.22743  23351051.5674   23351053.2044
        25.0484
  -3213110.32848  -2494244.34444  23096556.1384   23096555.5914
      1627.8794
    760320.24249    587543.69946  20547299.6854   20547297.7944
      -811.3864
   5268550.16049   4080927.75445  21907762.5914   21907759.6924
     -3218.3794
  -1008822.82449   -785827.91846  21770794.1304   21770793.1614
       405.4714
 04  9 10 21  2 45.0010000  0  6G19G 3G 8G13G23G27
  -1111496.08247   -861285.05542  24209601.1224   24209600.9544
      1707.6474
   -875635.64547   -681304.95342  23351004.7394   23351005.3454
        16.4904
  -3237489.41848  -2513240.99643  23091916.8884   23091916.6614
      1625.2734
    772600.99649    597113.11347  20549636.7634   20549634.8294
      -818.7174
   5316912.89849   4118612.97745  21916965.7394   21916962.4704
     -3224.1834
  -1014863.62549   -790535.02746  21769644.5134   21769643.4584
       402.7204
 04  9 10 21  3  0.0010000  0  6G19G 3G 8G13G23G27
  -1137064.51246   -881208.39542  24204735.3724   24204735.2594
      1704.5624
   -875758.14548   -681400.38342  23350981.4194   23350981.6964
         8.1674
  -3261833.50448  -2532210.37543  23087283.6854   23087283.7714
      1622.9394
    784988.09049    606765.39147  20551993.8024   20551992.1654
      -825.8064
   5365358.90249   4156363.09845  21926184.7944   21926181.6384
     -3229.7344
  -1020867.05549   -795213.01246  21768502.2084   21768501.4784
       400.2294
 04  9 10 21  3 15.0010000  0  6G19G 3G 8G13G23G27
  -1162585.98447   -901095.16442  24199878.6924   24199878.1654
      1701.4324
   -875755.26648   -681398.11342  23350981.6534   23350982.8964
        -0.1924
  -3286142.02748  -2551152.04343  23082657.7784   23082657.8564
      1620.5684
    797481.84049    616500.78146  20554371.3024   20554369.8134
      -832.9174
   5413888.19949   4194178.10945  21935419.5834   21935416.3134
     -3235.2864
  -1026832.80549   -799861.63746  21767366.9504   21767365.8884
       397.7174
 04  9 10 21  3 30.0010000  0  6G19G 3G 8G13G23G27
  -1188065.12547   -920948.92642  24195030.4274   24195029.3334
      1698.6094
   -875631.73847   -681301.82842  23351005.6384   23351006.1854
        -8.2354
  -3310419.71148  -2570069.68443  23078038.0914   23078038.3294
      1618.5124
    810077.44549    626315.54346  20556768.2864   20556766.4894
      -839.7074
   5462495.81648   4232054.16845  21944668.9814   21944666.0364
     -3240.5084
  -1032765.76649   -804484.71146  21766237.9194   21766237.1424
       395.5314
 04  9 10 21  3 45.0010000  0  6G19G 3G 8G13G23G27
  -1213498.52746   -940767.06242  24190190.1464   24190190.0914
      1695.5604
   -875384.34847   -681109.04342  23351052.4424   23351053.7124
       -16.4934
  -3334663.69148  -2588961.05943  23073424.4584   23073424.2824
      1616.2654
    822778.10549    636212.16047  20559185.1224   20559183.0014
      -846.7114
   5511184.71549   4269993.54345  21953934.5524   21953931.5014
     -3245.9274
  -1038662.95349   -809079.92246  21765115.7084   21765114.6424
       393.1464
 04  9 10 21  4  0.0010000  0  6G19G 3G 8G13G23G27
  -1238888.37147   -960551.23442  24185358.7084   24185358.7634
      1692.6564
   -875015.44148   -680821.54342  23351122.6304   23351123.8994
       -24.5944
  -3358876.56248  -2607828.20343  23068817.1694   23068817.0834
      1614.1914
    835581.49649    646188.82047  20561621.7084   20561619.6734
      -853.5594
   5559952.25049   4307994.21145  21963214.5834   21963211.7714
     -3251.1694
  -1044526.91449   -813649.22746  21763999.7714   21763998.8334
       390.9314
 04  9 10 21  4 15.0010000  0  6G19G 3G 8G13G23G27
  -1264236.35947   -980302.79342  24180534.8024   24180535.4034
      1689.8664
   -874527.05148   -680440.95343  23351215.5364   23351216.7784
       -32.5594
  -3383060.09048  -2626672.47344  23064215.4584   23064215.7204
      1612.2354
    848485.44949    656243.85546  20564077.2714   20564075.2284
      -860.2644
   5608796.18048   4346054.38745  21972509.1854   21972506.3604
     -3256.2624
  -1050359.94549   -818194.44146  21762889.9424   21762889.1814
       388.8694
 04  9 10 21  4 30.0010000  0  6G19G 3G 8G13G23G27
  -1289542.73447  -1000021.93442  24175719.0754   24175720.0014
      1687.0924
   -873919.50848   -679967.50443  23351331.3024   23351332.7824
       -40.5034
  -3407214.94948  -2645494.40644  23059619.0134   23059618.8764
      1610.3244
    861489.43849    666376.84047  20566552.0444   20566549.5524
      -866.9334
   5657715.66849   4384173.44545  21981818.6854   21981815.5634
     -3261.2994
  -1056162.55149   -822715.93446  21761785.3334   21761784.9814
       386.8404
 04  9 10 21  4 45.0010000  0  6G19G 3G 8G13G23G27
  -1314807.57446  -1019708.73842  24170911.7314   24170911.7314
      1684.3234
   -873193.01648   -679401.38342  23351469.5914   23351470.4854
       -48.4334
  -3431341.72748  -2664294.46543  23055027.7554   23055027.7634
      1608.4524
    874593.22749    676587.57847  20569045.1464   20569043.1104
      -873.5864
   5706710.28149   4422351.05545  21991141.8804   21991138.6654
     -3266.3084
  -1061935.01649   -827213.95346  21760687.3564   21760686.4234
       384.8314
 04  9 10 21  5  0.0010000  0  6G19G 3G 8G13G23G27
  -1340031.24646  -1039363.43742  24166111.1064   24166111.1694
      1681.5784
   -872348.09048   -678742.96142  23351630.2864   23351630.9274
       -56.3284
  -3455441.09848  -2683073.16843  23050442.1614   23050441.6614
      1606.6254
    887796.25049    686875.64546  20571557.9814   20571555.8214
      -880.2024
   5755779.27749   4460586.62545  22000478.9194   22000476.3064
     -3271.2664
  -1067678.29749   -831689.22746  21759594.0134   21759593.1814
       382.8854
 04  9 10 21  5 15.0010000  0  6G19G 3G 8G13G23G27
  -1365210.72747  -1058983.73042  24161320.0214   24161319.9814
      1678.6324
   -871381.94548   -677990.10543  23351814.2864   23351814.8104
       -64.4104
  -3479510.42248  -2701828.44943  23045860.9584   23045861.4034
      1604.6224
    901101.31649    697243.23046  20574089.6224   20574087.3724
      -887.0044
   5804925.13349   4498882.06645  22009831.7314   22009829.0174
     -3276.3904
  -1073389.58249   -836139.56246  21758507.4034   21758506.5324
       380.7524
 04  9 10 21  5 30.0010000  0  6G19G 3G 8G13G23G27
  -1390344.72747  -1078568.57442  24156537.2784   24156537.1264
      1675.6004
   -870293.37547   -677141.83242  23352021.3024   23352022.1614
       -72.5714
  -3503548.74248  -2720559.56243  23041286.4274   23041286.7864
      1602.5554
    914509.38349    707691.07447  20576640.9584   20576639.3684
      -893.8714
   5854148.68449   4537238.06345  22019198.3254   22019195.6304
     -3281.5704
  -1079068.19949   -840564.44946  21757426.9504   21757426.0914
       378.5744
 04  9 10 21  5 45.0010000  0  6G19G 3G 8G13G23G27
  -1415436.25446  -1098120.30542  24151761.4424   24151761.8684
      1672.7684
   -869085.67248   -676200.75842  23352251.1924   23352252.3564
       -80.5144
  -3527559.07848  -2739268.88343  23036717.2554   23036717.7594
      1600.6894
    928017.28949    718216.71947  20579211.7164   20579209.8724
      -900.5274
   5903446.30149   4575651.77345  22028579.2634   22028576.4784
     -3286.5084
  -1084717.29349   -844966.33246  21756351.9274   21756351.1694
       376.6064
 04  9 10 21  6  0.0010000  0  6G19G 3G 8G13G23G27
  -1440486.72347  -1117640.06242  24146994.9424   24146995.0244
      1670.0314
   -867760.44947   -675168.07843  23352503.3334   23352504.3844
       -88.3484
  -3551543.33248  -2757957.87943  23032153.3414   23032153.8334
      1598.9504
    941623.27049    728818.78146  20581800.8254   20581798.9274
      -907.0654
   5952816.24649   4614121.84845  22037974.3024   22037971.5014
     -3291.3304
  -1090338.81649   -849346.73446  21755282.2474   21755281.2984
       374.7684
 04  9 10 21  6 15.0010000  0  6G19G 3G 8G13G23G27
  -1465490.97747  -1137123.82042  24142236.7164   24142236.8174
      1666.9504
   -866312.91848   -674040.07842  23352778.5754   23352779.4354
       -96.5024
  -3575496.87948  -2776622.94944  23027594.8724   23027595.6494
      1596.9034
    955332.13349    739501.01646  20584409.4354   20584407.4934
      -913.9244
   6002263.14849   4652651.87945  22047383.9424   22047380.6924
     -3296.4604
  -1095928.16449   -853702.05146  21754218.4194   21754217.7554
       372.6234
 04  9 10 21  6 30.0010000  0  6G19G 3G 8G13G23G27
  -1490449.35546  -1156571.80542  24137487.1304   24137487.8534
      1663.8924
   -864743.30548   -672816.98843  23353077.7394   23353078.2244
      -104.6414
  -3599420.38748  -2795264.60544  23023043.0674   23023043.4234
      1594.9014
    969143.30949    750262.96946  20587037.5214   20587035.4544
      -920.7454
   6051786.11749   4691241.17645  22056807.8644   22056804.9704
     -3301.5314
  -1101485.75449   -858032.62946  21753161.1924   21753160.2944
       370.5064
 04  9 10 21  6 45.0010000  0  6G19G 3G 8G13G23G27
  -1515363.65246  -1175985.46542  24132746.2944   24132746.1424
      1660.9534
   -863053.69948   -671500.38343  23353398.9814   23353400.0634
      -112.6404
  -3623316.19948  -2813884.68044  23018495.4974   23018496.1384
      1593.0544
    983054.78549    761103.07847  20589684.8414   20589682.8964
      -927.4324
   6101382.79349   4729887.91445  22066245.6384   22066242.8414
     -3306.4454
  -1107013.95749   -862340.31246  21752108.9504   21752108.3884
       368.5474
 04  9 10 21  7  0.0010000  0  6G19G 3G 8G13G23G27
  -1540232.30146  -1195363.56642  24128013.8104   24128013.7124
      1657.9104
   -861242.79348   -670089.26643  23353743.8254   23353744.2674
      -120.7274
  -3647182.77048  -2832481.96944  23013954.3414   23013954.7284
      1591.1054
    997067.77349    772022.29347  20592351.2784   20592349.5014
      -934.1994
   6151054.32849   4768592.99245  22075697.8174   22075695.2434
     -3311.4364
  -1112511.63749   -866624.19146  21751062.6534   21751061.8604
       366.5124
 04  9 10 21  7 15.0010000  0  6G19G 3G 8G13G23G27
  -1565055.85246  -1214706.50842  24123289.6534   24123290.3494
      1654.9034
   -859311.25448   -668584.14142  23354111.1854   23354111.8924
      -128.7694
  -3671021.05148  -2851057.21943  23009417.4114   23009418.3374
      1589.2194
   1011181.61349    783020.09447  20595037.0994   20595035.0444
      -940.9234
   6200799.69549   4807355.59045  22085164.1144   22085160.9504
     -3316.3584
  -1117979.59449   -870884.93046  21750022.0364   21750021.2434
       364.5304
 04  9 10 21  7 30.0010000  0  6G19G 3G 8G13G23G27
  -1589830.49246  -1234011.35242  24118575.5284   24118575.4464
      1651.6434
   -857255.38748   -666982.13343  23354502.2474   23354502.9274
      -137.0584
  -3694827.49248  -2869607.65643  23004887.2864   23004887.9314
      1587.0964
   1025399.83249    794099.22747  20597742.9504   20597740.8724
      -947.8814
   6250622.32449   4846178.39845  22094644.9034   22094642.0604
     -3321.5094
  -1123414.45349   -875119.87146  21748988.1534   21748987.0634
       362.3244
 04  9 10 21  7 45.0010000  0  6G19G 3G 8G13G23G27
  -1614556.31647  -1253278.13343  24113870.5284   24113870.6814
      1648.3884
   -855075.37148   -665283.41043  23354917.5134   23354917.1964
      -145.3344
  -3718602.35948  -2888133.48043  23000362.9814   23000363.5604
      1584.9914
   1039722.19149    805259.50847  20600468.2474   20600466.1774
      -954.8244
   6300521.76649   4885061.06345  22104140.4974   22104138.0564
     -3326.6294
  -1128816.42649   -879329.18746  21747960.0214   21747958.9114
       360.1324
 04  9 10 21  8  0.0010000  0  6G19G 3G 8G13G23G27
  -1639234.77047  -1272508.02342  24109174.0914   24109174.0444
      1645.2304
   -852773.10248   -663489.39842  23355355.2394   23355355.8294
      -153.4854
  -3742347.70748  -2906636.32043  22995844.4034   22995844.6734
      1583.0234
   1054146.78949    816499.45347  20603213.3494   20603211.3884
      -961.6404
   6350495.91449   4924001.92245  22113650.3414   22113647.4274
     -3331.6104
  -1134187.62549   -883514.52046  21746938.0284   21746936.8764
       358.0804
 04  9 10 21  8 15.0010000  0  6G19G 3G 8G13G23G27
  -1663864.70747  -1291700.12142  24104487.4274   24104486.8254
      1641.9964
   -850347.63748   -661599.40642  23355816.6854   23355817.4544
      -161.6984
  -3766062.79748  -2925115.58643  22991331.6854   22991331.3294
      1581.0064
   1068674.49249    827819.74646  20605977.8494   20605975.7864
      -968.5144
   6400545.30949   4963001.43845  22123174.1064   22123171.2824
     -3336.6264
  -1139527.48849   -887675.44146  21745921.7004   21745920.9424
       355.9914
 04  9 10 21  8 30.0010000  0  6G19G 3G 8G13G23G27
  -1688444.78947  -1310853.35943  24099809.9744   24099809.4664
      1638.6724
   -847797.80148   -659612.47342  23356301.5994   23356302.4894
      -169.9894
  -3789746.48848  -2943570.37544  22986824.9424   22986824.7514
      1578.9134
   1083306.41849    839221.25046  20608762.0214   20608759.9194
      -975.4624
   6450670.98049   5002060.38345  22132712.9504   22132710.0834
     -3341.7114
  -1144834.80149   -891810.98846  21744911.7714   21744910.8064
       353.8214
 04  9 10 21  8 45.0010000  0  6G19G 3G 8G13G23G27
  -1712974.10947  -1329967.04343  24095142.4114   24095141.7004
      1635.2884
   -845122.85947   -657528.08243  23356810.3334   23356811.4074
      -178.3294
  -3813398.48848  -2962000.48444  22982323.8644   22982323.4814
      1576.8004
   1098043.19149    850704.44947  20611566.3174   20611564.3604
      -982.4524
   6500873.23048   5041178.98445  22142266.5214   22142263.2514
     -3346.8174
  -1150109.06249   -895920.78946  21743907.9744   21743907.0754
       351.6174
 04  9 10 21  9  0.0010000  0  6G19G 3G 8G13G23G27
  -1737448.77347  -1349038.15642  24090484.2474   24090484.1574
      1631.6444
   -842319.28947   -655343.46543  23357343.9424   23357344.9544
      -186.9054
  -3837014.96948  -2980402.89844  22977829.9664   22977830.0524
      1574.4324
   1112888.48049    862272.20746  20614391.4194   20614389.5994
      -989.6864
   6551155.42248   5080359.88745  22151834.6854   22151831.6144
     -3352.1464
  -1155346.81649   -900002.14146  21742911.5524   21742910.1264
       349.1844
 04  9 10 21  9 15.0010000  0  6G19G 3G 8G13G23G27
  -1761867.87946  -1368065.95342  24085837.3024   24085837.0404
      1627.9404
   -839386.10247   -653057.84042  23357902.3104   23357903.0404
      -195.5464
  -3860595.24648  -2998777.11344  22973343.0914   22973342.8104
      1572.0184
   1127842.93049    873925.02747  20617237.1534   20617235.1264
      -996.9634
   6601518.13348   5119603.53145  22161418.3494   22161415.5524
     -3357.5144
  -1160547.47349   -904054.59446  21741921.9274   21741920.5284
       346.7104
 04  9 10 21  9 30.0010000  0  6G19G 3G 8G13G23G27
  -1786229.68746  -1387049.12543  24081201.5604   24081201.5754
      1624.1214
   -836321.84048   -650670.06643  23358485.1304   23358486.7044
      -204.2844
  -3884138.16048  -3017122.19544  22968862.4194   22968862.9314
      1569.5284
   1142908.05549    885664.08647  20620103.8884   20620102.2434
     -1004.3424
   6651962.51248   5158910.82845  22171017.6144   22171015.0404
     -3362.9594
  -1165709.84449   -908077.21146  21740939.4274   21740938.1304
       344.1584
 04  9 10 21  9 45.0010000  0  6G19G 3G 8G13G23G27
  -1810536.73446  -1405989.62143  24076575.9894   24076576.1654
      1620.4704
   -833129.17248   -648182.26642  23359092.4814   23359093.8534
      -212.8454
  -3907646.52048  -3035440.35944  22964388.9274   22964389.5914
      1567.2244
   1158080.92649    897487.10547  20622991.5604   20622989.4624
     -1011.5254
   6702485.54348   5198279.40245  22180631.8104   22180628.5834
     -3368.2024
  -1170836.68749   -912072.13346  21739963.8724   21739962.6344
       341.7904
 04  9 10 21 10  0.0010000  0  6G19G 3G 8G13G23G27
  -1834793.37946  -1424890.84042  24071960.2864   24071959.4814
      1617.1104
   -829812.88347   -645598.11743  23359723.8494   23359725.1884
      -221.0864
  -3931124.84847  -3053735.13744  22959921.4034   22959921.2394
      1565.2224
   1173356.90249    909390.46546  20625898.1774   20625895.9464
     -1018.3984
   6753082.32048   5237705.43045  22190260.0604   22190257.3374
     -3373.1184
  -1175932.68449   -916043.03546  21738993.8174   21738992.6574
       339.7334
 04  9 10 21 10 15.0010000  0  6G19G 3G 8G13G23G27
  -1858997.24247  -1443750.94143  24067354.4894   24067352.8764
      1613.5914
   -826370.69148   -642915.86342  23360378.6384   23360379.7784
      -229.4794
  -3954571.33648  -3072005.09044  22955459.0914   22955460.3994
      1563.0994
   1188738.32449    921375.98847  20628825.2474   20628823.2044
     -1025.4284
   6803754.81348   5277190.47345  22199902.7634   22199900.4584
     -3378.1664
  -1180996.02749   -919988.48046  21738030.4194   21738029.2314
       337.5564
 04  9 10 21 10 30.0010000  0  6G19G 3G 8G13G23G27
  -1883150.08247  -1462571.27742  24062757.8804   24062757.0754
      1610.1894
   -822804.58648   -640137.05542  23361057.8174   23361058.2864
      -237.7404
  -3977988.24248  -3090251.98444  22951003.3334   22951003.7514
      1561.1274
   1204222.98049    933441.96546  20631771.7784   20631770.0484
     -1032.3104
   6854500.70748   5316732.70345  22209559.2554   22209556.4314
     -3383.0604
  -1186028.81249   -923910.12146  21737073.0054   21737071.8494
       335.5194
 04  9 10 21 10 45.0010000  0  6G19G 3G 8G13G23G27
  -1907251.53147  -1481351.55543  24058171.5754   24058171.2394
      1606.7634
   -819114.29747   -637261.48043  23361759.1464   23361760.6964
      -246.0194
  -4001375.21148  -3108475.57844  22946553.1924   22946553.0014
      1559.1314
   1219810.99249    945588.46547  20634737.8644   20634736.1344
     -1039.2014
   6905319.96148   5356332.09845  22219229.9744   22219227.3334
     -3387.9504
  -1191030.91449   -927807.84446  21736120.8644   21736119.9384
       333.4734
 04  9 10 21 11  0.0010000  0  6G19G 3G 8G13G23G27
  -1931303.43747  -1500093.24643  24053594.6464   24053594.2204
      1603.4604
   -815301.91848   -634290.77042  23362485.6144   23362486.1344
      -254.1594
  -4024734.49248  -3126677.59044  22942108.2944   22942107.6654
      1557.2854
   1235500.22749    957813.84047  20637723.5994   20637721.7244
     -1045.9494
   6956210.27048   5395986.85945  22228913.8024   22228911.3254
     -3392.6874
  -1196004.66849   -931683.48446  21735174.2244   21735173.3924
       331.5844
 04  9 10 21 11 15.0010000  0  6G19G 3G 8G13G23G27
  -1955305.31647  -1518795.95743  24049027.7554   24049027.3994
      1600.1254
   -811367.20347   -631224.73443  23363233.3494   23363234.3174
      -262.3144
  -4048065.98048  -3144857.94144  22937668.3724   22937667.6464
      1555.4334
   1251290.97749    970118.32447  20640728.3254   20640726.5524
     -1052.7174
   7007171.64848   5435697.00845  22238611.7164   22238608.6264
     -3397.4254
  -1200949.88749   -935536.89546  21734233.2944   21734232.3564
       329.6814
 04  9 10 21 11 30.0010000  0  6G19G 3G 8G13G23G27
  -1979256.98047  -1537459.53542  24044469.6304   24044469.1104
      1596.7784
   -807310.20748   -628063.41442  23364005.8494   23364006.1224
      -270.4664
  -4071369.80548  -3163016.74244  22933233.5674   22933233.0674
      1553.5884
   1267182.99249    982501.70746  20643752.1854   20643750.4234
     -1059.4684
   7058203.71148   5475462.21945  22248322.7944   22248319.9464
     -3402.1374
  -1205866.79749   -939368.24246  21733297.6534   21733296.4314
       327.7944
 04  9 10 21 11 45.0010000  0  6G19G 3G 8G13G23G27
  -2003156.71947  -1556082.65642  24039921.5834   24039921.2354
      1593.3164
   -803129.52347   -624805.71142  23364801.5914   23364802.4384
      -278.7124
  -4094644.62548  -3181152.93744  22928804.0054   22928804.2674
      1551.6554
   1283177.79749    994965.19546  20646796.3104   20646794.3134
     -1066.3204
   7109307.66848   5515283.45345  22258047.7004   22258044.7864
     -3406.9304
  -1210754.11749   -943176.52746  21732367.4034   21732366.4854
       325.8214
 04  9 10 21 12  0.0010000  0  6G19G 3G 8G13G23G27
  -2026999.01647  -1574661.01243  24035384.2714   24035384.3454
      1589.4864
   -798819.74248   -621447.44143  23365622.2944   23365622.1494
      -287.3194
  -4117885.16847  -3199262.42644  22924381.0834   22924381.4504
      1549.3704
   1299280.77049   1007512.96947  20649860.3644   20649858.6184
     -1073.5324
   7160488.55148   5555164.63345  22267786.9814   22267784.2904
     -3412.0594
  -1215606.68449   -946957.73446  21731444.0284   21731442.8684
       323.5044
 04  9 10 21 12 15.0010000  0  6G19G 3G 8G13G23G27
  -2050783.32047  -1593194.17242  24030858.6384   24030858.1264
      1585.6204
   -794380.68448   -617988.39542  23366465.9744   23366467.2004
      -295.9374
  -4141091.48848  -3217345.23844  22919965.5214   22919965.7554
      1547.0884
   1315492.03949   1020145.12947  20652945.4424   20652943.4854
     -1080.7514
   7211746.36348   5595105.76645  22277541.2314   22277538.2244
     -3417.1874
  -1220424.42249   -950711.80946  21730527.3254   21730526.4464
       321.1834
 04  9 10 21 12 30.0010000  0  6G19G 3G 8G13G23G27
  -2074509.00847  -1611681.66042  24026344.0214   24026342.6144
      1581.7134
   -789811.71948   -614428.14143  23367335.9584   23367336.9114
      -304.5984
  -4164263.13348  -3235401.02344  22915555.7244   22915556.4544
      1544.7764
   1331812.08649   1032862.03946  20656050.9424   20656049.1304
     -1088.0034
   7263081.41048   5635107.07045  22287309.7084   22287306.9114
     -3422.3364
  -1225206.87149   -954438.38746  21729617.3884   21729616.0524
       318.8304
 04  9 10 21 12 45.0010000  0  6G19G 3G 8G13G23G27
  -2098175.26647  -1630122.84843  24021839.8804   24021839.4194
      1577.7514
   -785112.33648   -610766.26643  23368230.2244   23368230.9234
      -313.2924
  -4187399.41848  -3253429.27744  22911153.7004   22911153.8494
      1542.4194
   1348241.22349   1045663.97746  20659177.2554   20659175.2594
     -1095.2764
   7314493.75848   5675168.62144  22297093.2164   22297090.7514
     -3427.4904
  -1229953.85249   -958137.31246  21728713.9354   21728712.7744
       316.4654
 04  9 10 21 13  0.0010000  0  6G19G 3G 8G13G23G27
  -2121782.61347  -1648518.14142  24017347.2394   24017346.6814
      1573.8234
   -780283.18448   -607003.27043  23369149.2634   23369149.6424
      -321.9434
  -4210501.43448  -3271430.80144  22906757.3644   22906757.4624
      1540.1344
   1364778.92249   1058550.49246  20662324.3644   20662322.4784
     -1102.5134
   7365982.58648   5715289.75445  22306891.1774   22306889.0404
     -3432.5894
  -1234666.03549   -961809.13346  21727817.3564   21727816.2744
       314.1464
 04  9 10 21 13 15.0010000  0  6G19G 3G 8G13G23G27
  -2145329.97347  -1666866.68042  24012866.1534   24012865.5794
      1569.8244
   -775323.50848   -603138.56642  23370092.4504   23370093.4814
      -330.6454
  -4233568.48848  -3289405.11344  22902367.8024   22902367.9744
      1537.8044
   1381425.78549   1071522.07847  20665492.5994   20665490.2044
     -1109.7914
   7417548.37148   5755470.85245  22316704.3024   22316701.0524
     -3437.7194
  -1239342.80549   -965453.35946  21726927.2554   21726926.4664
       311.7854
 04  9 10 21 13 30.0010000  0  6G19G 3G 8G13G23G27
  -2168818.66847  -1685169.50843  24008396.5524   24008395.6774
      1565.9134
   -770234.90247   -599173.39142  23371060.7164   23371062.2554
      -339.2404
  -4256602.13348  -3307353.37544  22897985.0674   22897984.3604
      1535.5764
   1398180.23049   1084577.49246  20668680.5134   20668678.2944
     -1116.9634
   7469189.27748   5795710.50444  22326530.9894   22326527.8724
     -3442.7274
  -1243985.91049   -969071.35246  21726043.7244   21726042.8844
       309.5404
 04  9 10 21 13 45.0010000  0  6G19G 3G 8G13G23G27
  -2192245.05547  -1703423.80143  24003938.6854   24003937.7864
      1561.7594
   -765013.89548   -595105.05143  23372055.0914   23372055.8024
      -348.0674
  -4279599.19148  -3325273.14144  22893608.8024   22893608.3924
      1533.1374
   1415045.66049   1097719.38346  20671889.8724   20671887.7554
     -1124.3624
   7520908.47348   5836011.15245  22336372.5214   22336370.2204
     -3447.9464
  -1248592.09449   -972660.57446  21725167.0834   21725166.3804
       307.0794
 04  9 10 21 14  0.0010000  0  6G19G 3G 8G13G23G27
  -2215608.41047  -1721628.96143  23999493.1064   23999492.2714
      1557.5574
   -759659.89848   -590933.12143  23373073.5754   23373074.5324
      -356.9334
  -4302559.19148  -3343164.02044  22889239.0834   22889238.5174
      1530.6674
   1432022.68849   1110948.23846  20675120.5364   20675118.6104
     -1131.8024
   7572706.29348   5876373.06644  22346229.5364   22346226.7594
     -3453.1884
  -1253160.86749   -976220.65646  21724298.0364   21724296.8564
       304.5854
 04  9 10 21 14 15.0010000  0  6G19G 3G 8G13G23G27
  -2238904.75447  -1739781.91443  23995059.8564   23995059.1424
      1553.0904
   -754169.20748   -586654.61343  23374118.5364   23374118.5754
      -366.0464
  -4325478.41448  -3361023.12944  22884877.8334   22884877.2124
      1527.9484
   1449114.80149   1124266.76646  20678372.9194   20678370.9584
     -1139.4744
   7624586.18848   5916798.92245  22356102.1064   22356099.3024
     -3458.6604
  -1257688.71949   -979748.84046  21723435.9424   21723435.1734
       301.8574
 04  9 10 21 14 30.0010000  0  6G19G 3G 8G13G23G27
  -2262133.91447  -1757882.51642  23990639.1534   23990638.7204
      1548.6114
   -748541.91848   -582269.69943  23375189.4894   23375189.4114
      -375.1534
  -4348357.15248  -3378850.69944  22880524.1144   22880524.1854
      1525.2494
   1466321.97349   1137674.94946  20681647.2784   20681644.8924
     -1147.1454
   7676547.79348   5957288.45744  22365990.0754   22365987.1144
     -3464.1074
  -1262175.94549   -983245.37146  21722582.2474   21722581.1184
       299.1484
 04  9 10 21 14 45.0010000  0  6G19G 3G 8G13G23G27
  -2285298.55147  -1775932.83643  23986231.5524   23986230.4814
      1544.3094
   -742780.84048   -577780.52742  23376285.3964   23376285.5404
      -384.0724
  -4371198.13348  -3396648.83644  22876177.4584   22876177.7674
      1522.7324
   1483641.27749   1151170.51246  20684943.1064   20684941.1224
     -1154.6204
   7728587.94948   5997839.20744  22375892.7554   22375890.0524
     -3469.3444
  -1266625.39849   -986712.46546  21721735.4744   21721734.5954
       296.6304
 04  9 10 21 15  0.0020000  0  6G19G 3G 8G13G23G27
  -2308398.51247  -1793932.76242  23981835.0414   23981834.4284
      1539.9974
   -736884.06647   -573185.62943  23377407.5024   23377407.7994
      -393.1184
  -4394001.64149  -3414417.77044  22871838.3544   22871839.3654
      1520.2344
   1501075.34449   1164755.49646  20688260.7294   20688258.6044
     -1162.2714
   7780711.43048   6038454.88744  22385811.5804   22385808.9164
     -3474.8994
  -1271036.08649   -990149.35546  21720896.2054   21720895.4554
       294.0464
 04  9 10 21 15 15.0020000  0  6G19G 3G 8G13G23G27
  -2331433.62947  -1811882.16442  23977451.7444   23977450.6664
      1535.6744
   -730855.70347   -568488.17243  23378554.5104   23378555.3614
      -401.8914
  -4416767.93048  -3432157.70744  22867506.1114   22867506.5964
      1517.7534
   1518618.53549   1178425.51246  20691598.9554   20691597.0764
     -1169.5464
   7832907.81348   6079127.35944  22395744.3544   22395741.5254
     -3479.7594
  -1275410.83649   -993558.24246  21720063.8224   21720062.9794
       291.6504
 04  9 10 21 15 30.0020000  0  6G19G 3G 8G13G23G27
  -2354406.56647  -1829783.10243  23973080.4394   23973079.1824
      1531.5294
   -724696.75847   -563688.99242  23379726.2914   23379727.7254
      -410.5964
  -4439500.18048  -3449871.12544  22863180.6974   22863180.0104
      1515.4834
   1536270.71549   1192180.45346  20694958.5804   20694956.0804
     -1176.8124
   7885178.83648   6119857.99244  22405691.4084   22405688.2604
     -3484.7354
  -1279751.37549   -996940.47346  21719237.7364   21719236.7324
       289.3694
 04  9 10 21 15 45.0020000  0  6G19G 3G 8G13G23G27
  -2377317.74247  -1847635.92643  23968720.4864   23968719.6044
      1527.4124
   -718407.71547   -558788.42243  23380923.2444   23380924.0724
      -419.2704
  -4462198.66048  -3467558.22344  22858860.6274   22858861.4364
      1513.2324
   1554031.32849   1206019.89546  20698338.0804   20698336.1894
     -1184.0414
   7937523.73048   6160646.20344  22415652.3074   22415648.9944
     -3489.6604
  -1284058.39149  -1000296.58246  21718418.2914   21718417.4394
       287.1344
 04  9 10 21 16  0.0020000  0  6G19G 3G 8G13G23G27
  -2400166.74647  -1865440.30543  23964372.1044   23964371.4714
      1523.2674
   -711988.40646   -553786.35542  23382144.5644   23382145.1114
      -427.9544
  -4484863.59448  -3485219.16044  22854547.7214   22854547.3894
      1510.9964
   1571900.20749   1219943.69946  20701738.3694   20701736.3424
     -1191.2594
   7989942.27048   6201491.79344  22425627.0884   22425623.8654
     -3494.5694
  -1288331.89549  -1003626.57846  21717604.9944   21717604.0144
       284.9004
 04  9 10 21 16 15.0020000  0  6G19G 3G 8G13G23G27
  -2422956.03147  -1883198.14543  23960035.2994   23960034.9004
      1519.2864
   -705441.63747   -548684.94542  23383390.5334   23383391.6784
      -436.4514
  -4507497.77048  -3502856.16844  22850240.8144   22850240.3614
      1508.9454
   1589874.60549   1233949.71946  20705158.6504   20705156.4674
     -1198.2934
   8042431.66048   6242392.58244  22435615.5884   22435612.9594
     -3499.2934
  -1292574.77049  -1006932.70746  21716797.5724   21716796.7174
       282.8584
 04  9 10 21 16 30.0020000  0  6G19G 3G 8G13G23G27
  -2445683.25447  -1900907.63343  23955710.6114   23955709.4124
      1515.1484
   -698765.15647   -543482.47342  23384660.5804   23384662.1274
      -445.0994
  -4530099.09448  -3520467.56644  22845939.6274   22845939.4674
      1506.7554
   1607956.80949   1248039.74647  20708599.4794   20708597.5644
     -1205.4804
   8094993.73848   6283350.02744  22445617.7914   22445614.8504
     -3504.1394
  -1296784.94549  -1010213.35246  21715996.5644   21715995.2484
       280.6784
 04  9 10 21 16 45.0020000  0  6G19G 3G 8G13G23G27
  -2468348.00447  -1918568.41843  23951398.0334   23951396.5844
      1510.9834
   -691958.84047   -538178.83643  23385956.0254   23385956.9944
      -453.7544
  -4552667.57048  -3538053.35544  22841644.9474   22841644.4864
      1504.5654
   1626146.77749   1262213.75046  20712060.8934   20712058.9164
     -1212.6654
   8147628.36348   6324363.98844  22455633.6974   22455631.2794
     -3508.9754
  -1300962.52349  -1013468.60246  21715201.4634   21715200.4124
       278.5054
 04  9 10 21 17  0.0020000  0  6G19G 3G 8G13G23G27
  -2490949.26246  -1936179.74643  23947097.0184   23947095.5684
      1506.7514
   -685021.84447   -532773.35543  23387276.2914   23387277.2644
      -462.4664
  -4575202.58648  -3555613.08644  22837356.6974   22837356.1504
      1502.3344
   1644445.29749   1276472.32446  20715543.2834   20715541.2874
     -1219.9014
   8200336.05548   6365434.87944  22465663.7994   22465661.2754
     -3513.8464
  -1305106.66849  -1016697.79746  21714412.6194   21714411.7484
       276.2764
 04  9 10 21 17 15.0020000  0  6G19G 3G 8G13G23G27
  -2513482.07447  -1953737.73843  23942809.1194   23942807.6934
      1502.1884
   -677949.51647   -527262.42642  23388621.9794   23388622.6394
      -471.4894
  -4597699.32048  -3573142.98844  22833075.6664   22833075.5884
      1499.7824
   1662857.00049   1290819.11346  20719046.9794   20719045.0964
     -1227.4474
   8253121.20748   6406566.14144  22475708.7134   22475705.3774
     -3519.0104
  -1309212.90249  -1019897.44946  21713631.3144   21713630.6784
       273.7494
 04  9 10 21 17 30.0020000  0  6G19G 3G 8G13G23G27
  -2535945.43447  -1971241.60543  23938534.4864   23938533.7714
      1497.5574
   -670741.11347   -521645.47343  23389994.1194   23389994.2014
      -480.5604
  -4620157.05948  -3590642.49644  22828802.2914   22828802.2524
      1497.1834
   1681382.71549   1305254.73047  20722571.7524   20722570.2054
     -1235.0484
   8305984.46548   6447758.27044  22485767.9944   22485765.2994
     -3524.2174
  -1313280.66849  -1023067.13346  21712857.1974   21712856.1434
       271.1844
 04  9 10 21 17 45.0020000  0  6G19G 3G 8G13G23G27
  -2558338.10247  -1988690.38343  23934272.6744   23934272.9394
      1492.8454
   -663395.73447   -515921.78143  23391391.1894   23391392.1544
      -489.6924
  -4642575.12548  -3608111.10944  22824536.2364   22824535.8894
      1494.5384
   1700023.40249   1319779.93046  20726119.3854   20726117.2604
     -1242.7124
   8358926.44148   6489011.72344  22495842.7604   22495839.8854
     -3529.4654
  -1317309.00849  -1026206.07846  21712090.7684   21712089.4714
       268.5564
 04  9 10 21 18  0.0020000  0  6G19G 3G 8G13G23G27
  -2580661.09047  -2006084.86343  23930025.3074   23930024.3264
      1488.1994
   -655914.50447   -510092.24243  23392814.9474   23392815.2214
      -498.7494
  -4664954.84048  -3625549.82844  22820277.8144   22820277.6114
      1491.9814
   1718777.67649   1334393.65246  20729688.1504   20729686.0614
     -1250.2854
   8411945.71948   6530325.41444  22505931.9714   22505929.1234
     -3534.6184
  -1321299.29349  -1029315.39546  21711331.3854   21711330.5334
       266.0194
 04  9 10 21 18 15.0020000  0  6G19G 3G 8G13G23G27
  -2602914.38747  -2023425.04743  23925790.3934   23925789.6434
      1483.5534
   -648297.71147   -504157.06643  23394264.7364   23394265.4794
      -507.7864
  -4687296.38748  -3642958.79344  22816026.0724   22816026.4324
      1489.4364
   1737645.28949   1349095.69147  20733278.6894   20733276.7214
     -1257.8414
   8465041.73048   6571698.91044  22516035.8614   22516032.7214
     -3539.7344
  -1325251.88349  -1032395.32846  21710579.2994   21710578.2214
       263.5064
 04  9 10 21 18 30.0020000  0  6G19G 3G 8G13G23G27
  -2625091.30947  -2040705.72343  23921569.8694   23921569.6934
      1478.4614
   -640538.89147   -498111.21143  23395741.9004   23395741.7874
      -517.2554
  -4709593.55148  -3660333.18044  22811783.2524   22811783.1704
      1486.4784
   1756632.68049   1363891.05146  20736891.5724   20736889.5614
     -1265.8264
   8518220.67248   6613137.02044  22526155.4634   22526152.6154
     -3545.2634
  -1329160.32449  -1035440.85246  21709835.5494   21709834.3034
       260.5634
 04  9 10 21 18 45.0020000  0  6G19G 3G 8G13G23G27
  -2647193.56647  -2057928.21943  23917364.0334   23917363.3964
      1473.4844
   -632640.12947   -491956.30943  23397244.7134   23397244.8264
      -526.5844
  -4731848.52048  -3677674.68444  22807547.6664   22807547.4554
      1483.6654
   1775737.84049   1378778.18847  20740527.6114   20740525.1624
     -1273.6774
   8571480.37548   6654638.05544  22536290.6504   22536287.7214
     -3550.6474
  -1333027.02349  -1038453.85546  21709099.7994   21709098.6074
       257.7804
 04  9 10 21 19  0.0020000  0  6G19G 3G 8G13G23G27
  -2669224.18747  -2075094.87543  23913172.0414   23913170.9244
      1468.7084
   -624604.63747   -485694.85943  23398773.2684   23398773.8814
      -535.6994
  -4754064.28948  -3694985.63344  22803320.1974   22803320.0144
      1481.0514
   1794957.35249   1393754.43046  20744184.8464   20744182.6504
     -1281.3014
   8624817.19948   6696199.19144  22546439.9164   22546437.0024
     -3555.7884
  -1336855.06649  -1041436.74246  21708371.1504   21708370.0184
       255.2034
 04  9 10 21 19 15.0020000  0  6G19G 3G 8G13G23G27
  -2691184.08647  -2092206.43743  23908992.5644   23908992.1234
      1463.9934
   -616433.43447   -479327.66843  23400328.2604   23400328.6974
      -544.7474
  -4776242.28148  -3712267.16044  22799099.5804   22799099.4044
      1478.5334
   1814290.01649   1408818.83646  20747863.8074   20747861.5294
     -1288.8444
   8678229.79748   6737819.36344  22556604.0884   22556601.4204
     -3560.8404
  -1340645.96949  -1044390.68446  21707649.6504   21707648.6274
       252.7274
 04  9 10 21 19 30.0020000  0  6G19G 3G 8G13G23G27
  -2713072.01647  -2109261.90643  23904827.2524   23904826.5414
      1459.1954
   -608125.64547   -472854.05943  23401909.3854   23401909.9674
      -553.8534
  -4798381.63748  -3729518.59844  22794887.1274   22794886.7254
      1475.9574
   1833736.82449   1423972.18846  20751564.1114   20751562.0964
     -1296.4544
   8731718.85948   6779499.12144  22566782.6274   22566780.4864
     -3565.9374
  -1344398.66049  -1047314.85546  21706935.4864   21706934.4324
       250.1794
 04  9 10 21 19 45.0020000  0  6G19G 3G 8G13G23G27
  -2734890.46947  -2126263.25043  23900675.6824   23900674.1584
      1454.5644
   -599683.92647   -466276.07043  23403515.6504   23403516.4004
      -562.7814
  -4820484.91448  -3746741.90244  22790680.8074   22790680.4004
      1473.5524
   1853295.03149   1439212.34847  20755286.2914   20755283.8304
     -1303.8804
   8785281.40648   6821236.14844  22576975.4554   22576972.8774
     -3570.8364
  -1348116.10549  -1050211.55146  21706227.8224   21706227.0214
       247.8304
 04  9 10 21 20  0.0020000  0  6G19G 3G 8G13G23G27
  -2756640.02347  -2143210.89843  23896536.6894   23896535.6274
      1449.9704
   -591109.13747   -459594.39843  23405147.3224   23405148.3934
      -571.6534
  -4842553.11348  -3763937.89544  22786481.5644   22786480.8654
      1471.2134
   1872963.81349   1454538.67247  20759028.9394   20759026.8964
     -1311.2524
   8838916.51648   6863029.70344  22587182.0334   22587179.3814
     -3575.6744
  -1351799.13349  -1053081.43746  21705527.5964   21705526.3114
       245.5354
 04  9 10 21 20 15.0020000  0  6G19G 3G 8G13G23G27
  -2778315.81647  -2160101.07443  23892411.9864   23892411.6704
      1445.0534
   -582396.69147   -452805.47743  23406804.9944   23406805.3694
      -580.8304
  -4864581.76248  -3781103.04744  22782289.6114   22782289.0494
      1468.5774
   1892747.81649   1469954.78146  20762793.6044   20762791.7054
     -1318.9344
   8892628.47348   6904883.14544  22597403.0494   22597400.6004
     -3580.7974
  -1355443.26249  -1055921.00446  21704834.0964   21704833.0494
       242.9424
 04  9 10 21 20 30.0020000  0  6G19G 3G 8G13G23G27
  -2799921.24247  -2176936.41443  23888300.3224   23888299.7214
      1440.3624
   -573550.09047   -445911.99643  23408488.9634   23408488.6584
      -589.7734
  -4886574.39848  -3798240.15244  22778104.8544   22778104.2214
      1466.1764
   1912643.26249   1485457.71546  20766579.3694   20766577.3424
     -1326.3634
   8946413.44548   6946793.47344  22607638.1664   22607635.4824
     -3585.6654
  -1359052.25849  -1058733.20746  21704147.2994   21704145.9904
       240.6004
 04  9 10 21 20 45.0020000  0  6G19G 3G 8G13G23G27
  -2821456.66047  -2193717.21143  23884202.6584   23884201.8074
      1435.6954
   -564570.17247   -438914.65243  23410197.3074   23410198.4044
      -598.6614
  -4908532.04348  -3815349.98844  22773926.3304   22773926.0414
      1463.8434
   1932649.44949   1501046.95346  20770386.9554   20770384.7014
     -1333.7464
   9000270.42648   6988759.91044  22617886.5574   22617884.3854
     -3590.4654
  -1362626.94949  -1061518.67646  21703466.7834   21703465.9714
       238.3134
 04  9 10 21 21  0.0020000  0  6G19G 3G 8G13G23G27
  -2842920.76247  -2210442.43743  23880118.2834   23880117.0414
      1430.9404
   -555455.83247   -431812.54343  23411932.5184   23411932.9434
      -607.6234
  -4930453.61748  -3832431.71144  22769754.2054   22769754.7254
      1461.4384
   1952767.52349   1516723.37146  20774215.1194   20774213.3424
     -1341.2054
   9054200.23448   7030783.10944  22628149.3694   22628146.6624
     -3595.3214
  -1366166.19949  -1064276.52046  21702793.1664   21702792.4824
       235.9504
 04  9 10 21 21 15.0020000  0  6G19G 3G 8G13G23G27
  -2864314.20747  -2227112.60543  23876047.3144   23876046.4594
      1426.2304
   -546207.94947   -424606.38743  23413691.3464   23413692.8344
      -616.5264
  -4952340.00048  -3849486.00044  22765589.8464   22765590.0254
      1459.0924
   1972996.25849   1532486.01647  20778064.2914   20778062.5024
     -1348.5824
   9108201.82848   7072862.24244  22638425.4324   22638422.6194
     -3600.1064
  -1369671.12949  -1067007.62946  21702126.4474   21702125.6504
       233.6624
 04  9 10 21 21 30.0020000  0  6G19G 3G 8G13G23G27
  -2885637.02347  -2243727.72343  23871989.4474   23871989.1114
      1421.5214
   -536826.97347   -417296.52043  23415476.5644   23415477.1934
      -625.3984
  -4974191.63348  -3866513.22744  22761430.9554   22761431.5104
      1456.7764
   1993335.51649   1548334.78946  20781934.8544   20781932.8384
     -1355.9514
   9162274.57048   7114996.81644  22648715.1354   22648712.5024
     -3604.8494
  -1373142.24649  -1069712.38746  21701466.0414   21701464.6544
       231.4084
 04  9 10 21 21 45.0020000  0  6G19G 3G 8G13G23G27
  -2906883.15647  -2260283.07043  23867945.9324   23867945.7994
      1416.4094
   -527306.95747   -409878.30143  23417288.0574   23417289.0254
      -634.6684
  -4996002.64848  -3883508.80144  22757280.1434   22757280.9794
      1454.0684
   2013791.26649   1564274.32446  20785827.6354   20785825.7484
     -1363.7174
   9216424.03548   7157191.17244  22659019.6044   22659016.8114
     -3609.9644
  -1376573.68449  -1072386.22346  21700812.6664   21700811.5804
       228.7624
 04  9 10 21 22  0.0020000  0  6G19G 3G 8G13G23G27
  -2928055.18447  -2276780.70343  23863916.9394   23863916.1974
      1411.4684
   -517650.66847   -402353.91843  23419125.7214   23419126.6044
      -643.7534
  -5017776.06648  -3900475.07444  22753137.5494   22753137.4044
      1451.5614
   2034360.44949   1580302.27346  20789741.6434   20789739.5104
     -1371.2794
   9270647.15648   7199442.92244  22669337.9394   22669335.3934
     -3614.8754
  -1379968.38749  -1075031.44146  21700166.8144   21700165.8504
       226.3144
 04  9 10 21 22 15.0020000  0  6G19G 3G 8G13G23G27
  -2949152.62947  -2293220.20743  23859902.9394   23859901.4794
      1406.4964
   -507858.04747   -394723.29343  23420989.3074   23420990.4944
      -652.8414
  -5039511.77748  -3917411.97744  22749000.8774   22749000.8854
      1449.0474
   2055043.07449   1596418.59446  20793677.5104   20793675.6434
     -1378.8424
   9324943.93048   7241752.06644  22679670.2914   22679668.1824
     -3619.7854
  -1383326.31249  -1077648.00046  21699527.8544   21699526.9594
       223.8624
 04  9 10 21 22 30.0020000  0  6G19G 3G 8G13G23G27
  -2970175.82047  -2309601.84843  23855902.4554   23855901.2834
      1401.5464
   -497929.44147   -386986.67643  23422878.3224   23422879.5844
      -661.9074
  -5061210.10248  -3934319.74644  22744872.0104   22744871.7644
      1446.5554
   2075838.75049   1612623.01246  20797634.6894   20797632.7254
     -1386.3784
   9379313.52348   7284117.94544  22690016.2134   22690014.1504
     -3624.6404
  -1386648.02049  -1080236.33246  21698895.7994   21698894.6004
       221.4474
 04  9 10 21 22 45.0020000  0  6G19G 3G 8G13G23G27
  -2991127.90647  -2325928.07443  23851914.6274   23851914.5644
      1396.8064
   -487868.45747   -379146.94143  23424793.1974   23424793.5844
      -670.7324
  -5082874.75048  -3951201.26644  22740749.6894   22740748.6434
      1444.3104
   2096744.09449   1628912.88347  20801612.7364   20801610.8734
     -1393.6904
   9433752.24648   7326537.69544  22700375.6664   22700373.4284
     -3629.2484
  -1389937.02349  -1082799.18746  21698269.8304   21698269.1354
       219.2674
 04  9 10 21 23  0.0020000  0  6G19G 3G 8G13G23G27
  -3012002.53947  -2342193.96143  23847942.1584   23847941.5454
      1391.6424
   -477669.06247   -371199.32843  23426733.6744   23426733.8224
      -679.9604
  -5104499.74248  -3968051.91044  22736634.7444   22736633.5144
      1441.6664
   2117764.95349   1645292.77747  20805613.0644   20805610.8734
     -1401.3914
   9488265.96548   7369015.89544  22710749.9004   22710746.8464
     -3634.2484
  -1393187.59449  -1085332.09046  21697651.3074   21697650.2684
       216.7054
 04  9 10 21 23 15.0020000  0  6G19G 3G 8G13G23G27
  -3032802.04348  -2358401.30543  23843984.5184   23843983.2874
      1386.6344
   -467333.62947   -363145.74643  23428700.7444   23428701.0884
      -689.0294
  -5126087.62148  -3984873.59844  22732526.1114   22732525.6504
      1439.1924
   2138898.83249   1661760.73046  20809634.7364   20809632.4284
     -1408.9254
   9542851.93448   7411550.37944  22721136.5024   22721134.2364
     -3639.0654
  -1396402.02749  -1087836.83646  21697039.6434   21697038.4864
       214.2964
 04  9 10 21 23 30.0020000  0  6G19G 3G 8G13G23G27
  -3053523.73847  -2374548.01243  23840041.4474   23840040.6044
      1381.4464
   -456859.78147   -354984.28543  23430693.7754   23430694.4674
      -698.2574
  -5147636.15248  -4001664.64144  22728425.7834   22728425.3224
      1436.5694
   2160148.19549   1678318.66446  20813678.3544   20813676.1314
     -1416.6244
   9597512.25048   7454142.81344  22731538.3144   22731535.2754
     -3644.0214
  -1399578.13749  -1090311.71146  21696435.5254   21696434.1864
       211.7414
 04  9 10 21 23 45.0020000  0  6G19G 3G 8G13G23G27
  -3074166.69547  -2390633.35943  23836112.8694   23836112.7014
      1376.1974
   -446247.06647   -346714.62143  23432712.8304   23432714.4164
      -707.5144
  -5169144.64848  -4018424.48044  22724332.8774   22724332.5574
      1433.9004
   2181513.50849   1694966.96946  20817743.9944   20817741.9044
     -1424.3544
   9652247.30148   7496793.46944  22741954.3854   22741952.1354
     -3649.0034
  -1402715.36749  -1092756.30146  21695838.3304   21695837.2644
       209.1494
 04  9 10 21 24  0.0020000  0  6G19G 3G 8G13G23G27
  -3094733.51247  -2406659.38343  23832198.9324   23832198.4434
      1371.1214
   -435498.28947   -338338.93443  23434758.4864   23434759.6784
      -716.5854
  -5190616.03948  -4035155.41044  22720246.9634   22720247.0254
      1431.4264
   2202991.93849   1711703.40246  20821831.4634   20821829.1974
     -1431.8954
   9707053.93048   7539499.89144  22752383.2364   22752381.4434
     -3653.7754
  -1405816.74649  -1095172.95346  21695248.3074   21695247.1234
       206.7594
 04  9 10 21 24 15.0020000  0  6G19G 3G 8G13G23G27
  -3115224.92646  -2422626.65643  23828299.5644   23828298.8304
      1366.0944
   -424614.33647   -329857.92643  23436830.1044   23436829.8304
      -725.5974
  -5212051.32448  -4051858.19944  22716167.5024   22716168.1044
      1429.0194
   2224582.37949   1728527.12146  20825939.8464   20825937.5294
     -1439.3634
   9761930.96948   7582261.18844  22762826.1044   22762823.9394
     -3658.4694
  -1408883.24249  -1097562.42246  21694664.6114   21694663.3384
       204.4334
 04  9 10 21 24 30.0020000  0  6G19G 3G 8G13G23G27
  -3135640.85947  -2438535.12143  23824414.9004   23824413.7644
      1361.0624
   -413595.45347   -321271.77343  23438926.9794   23438927.1504
      -734.5924
  -5233450.59048  -4068532.92644  22712095.9944   22712096.0294
      1426.6184
   2246284.70749   1745438.02346  20830069.2684   20830067.7054
     -1446.8224
   9816878.03948   7625077.04744  22773282.2684   22773279.9324
     -3663.1384
  -1411915.19149  -1099924.97746  21694087.6114   21694086.3774
       202.1304
 04  9 10 21 24 45.0020000  0  6G19G 3G 8G13G23G27
  -3155980.14847  -2454383.85943  23820544.3774   23820543.3614
      1355.9534
   -402440.62147   -312579.69143  23441049.1114   23441050.4434
      -743.6554
  -5254813.03948  -4085178.96144  22708030.8224   22708030.5334
      1424.1634
   2268099.95349   1762436.91846  20834221.0184   20834218.8934
     -1454.3504
   9871895.92248   7667948.09044  22783751.9324   22783749.2134
     -3667.8594
  -1414911.56249  -1102259.80546  21693517.4634   21693516.4044
       199.7584
 04  9 10 21 25  0.0020000  0  6G19G 3G 8G13G23G27
  -3176243.86347  -2470173.71143  23816687.7604   23816687.4944
      1350.9144
   -391151.46947   -303782.94543  23443197.4164   23443198.3774
      -752.6104
  -5276140.31648  -4101797.60244  22703971.9794   22703972.0294
      1421.8184
   2290026.42249   1779522.47346  20838393.0574   20838391.3964
     -1461.7654
   9926982.74248   7710872.85944  22794234.6044   22794231.7324
     -3672.4554
  -1417874.11349  -1104568.27746  21692953.5884   21692952.5104
       197.5034
 04  9 10 21 25 15.0020000  0  6G19G 3G 8G13G23G27
  -3196430.83247  -2485903.76643  23812846.5494   23812845.9124
      1345.7984
   -379726.96147   -294880.70343  23445371.8614   23445371.5924
      -761.6344
  -5297431.50048  -4118388.10244  22699920.8694   22699920.2714
      1419.4124
   2312065.11349   1796695.47346  20842586.6744   20842584.9554
     -1469.2464
   9982139.40248   7753852.04744  22804730.4474   22804728.2134
     -3677.1114
  -1420801.82449  -1106849.60546  21692396.4554   21692395.4594
       195.1814
 04  9 10 21 25 30.0020000  0  6G19G 3G 8G13G23G27
  -3216538.37147  -2501571.91443  23809020.0104   23809019.5724
      1340.5034
   -368164.61747   -285871.09043  23447571.5254   23447571.9474
      -770.8234
  -5318684.05548  -4134948.52044  22695876.2834   22695876.2294
      1416.8374
   2334218.41449   1813957.78546  20846802.5724   20846800.7054
     -1476.8874
  10037368.04348   7796887.31344  22815240.0024   22815237.8544
     -3681.9094
  -1423692.36749  -1109101.96146  21691846.2524   21691845.9944
       192.7034
 04  9 10 21 25 45.0020000  0  6G19G 3G 8G13G23G27
  -3236564.16847  -2517176.35543  23805209.2994   23805207.9434
      1335.0534
   -356462.41847   -276752.47343  23449798.2214   23449799.2914
      -780.1474
  -5339896.14148  -4151477.38744  22691839.8544   22691839.4434
      1414.1394
   2356488.41449   1831311.03146  20851040.3224   20851038.8464
     -1484.6674
  10092670.55148   7839980.14844  22825763.9324   22825761.5574
     -3686.8344
  -1426543.79749  -1111323.84846  21691304.0804   21691302.6784
       190.0954
 04  9 10 21 26  0.0020000  0  6G19G 3G 8G13G23G27
  -3256509.06647  -2532717.78943  23801413.9794   23801412.7094
      1329.6604
   -344621.53147   -267525.79743  23452051.7134   23452052.1704
      -789.3924
  -5361068.81648  -4167975.55544  22687810.4794   22687810.3184
      1411.5124
   2378873.84849   1848754.21946  20855300.2684   20855298.4594
     -1492.3624
  10148045.46948   7883129.39844  22836300.9944   22836298.8614
     -3691.6614
  -1429357.32849  -1113516.21146  21690768.5184   21690767.5064
       187.5694
 04  9 10 21 26 15.0020000  0  6G19G 3G 8G13G23G27
  -3276373.48447  -2548196.50843  23797634.3144   23797632.1464
      1324.2954
   -332642.82447   -258191.72743  23454331.6354   23454331.9984
      -798.5804
  -5382202.91848  -4184443.64544  22683788.7524   22683788.7794
      1408.9404
   2401373.94549   1866286.76246  20859582.0494   20859580.1974
     -1500.0074
  10203491.69548   7926334.21544  22846852.0574   22846849.6974
     -3696.4154
  -1432133.77349  -1115679.66446  21690240.0494   21690239.0764
       185.0964
 04  9 10 21 26 30.0020000  0  6G19G 3G 8G13G23G27
  -3296155.32047  -2563610.87543  23793869.9004   23793867.6464
      1318.7894
   -320524.25447   -248748.67243  23456638.2054   23456638.4554
      -807.9054
  -5403296.46948  -4200880.15244  22679774.8464   22679774.2684
      1406.2374
   2423990.74649   1883910.24246  20863885.7684   20863884.0844
     -1507.7874
  10259011.08248   7969596.03944  22857417.5574   22857415.0104
     -3701.2924
  -1434871.23049  -1117812.74646  21689719.2214   21689718.1624
       182.4974
 04  9 10 21 26 45.0020000  0  6G19G 3G 8G13G23G27
  -3315854.53547  -2578960.83643  23790120.7214   23790119.5844
      1313.2814
   -308266.00448   -239196.77343  23458970.1824   23458971.2794
      -817.2174
  -5424349.78548  -4217285.31244  22675768.8544   22675768.3574
      1403.5544
   2446723.93849   1901624.40647  20868211.9084   20868209.9634
     -1515.5464
  10314603.16448   8012914.50444  22867996.4634   22867993.7364
     -3706.1394
  -1437570.02349  -1119915.68746  21689205.4794   21689204.3544
       179.9204
 04  9 10 21 27  0.0020000  0  6G19G 3G 8G13G23G27
  -3335466.53947  -2594242.85943  23786388.7914   23786388.0184
      1307.4674
   -295863.84847   -229532.75043  23461329.9244   23461330.9514
      -826.8104
  -5445358.62948  -4233655.82044  22671771.0724   22671770.2364
      1400.5904
   2469577.88349   1919432.67646  20872560.7524   20872558.8934
     -1523.5964
  10370271.97348   8056292.76644  22878589.6504   22878587.3614
     -3711.2544
  -1440225.91849  -1121985.21146  21688700.0964   21688699.0294
       177.0604
 04  9 10 21 27 15.0020000  0  6G19G 3G 8G13G23G27
  -3354991.04348  -2609456.71543  23782673.1824   23782671.9794
      1301.6344
   -283317.83647   -219756.62543  23463717.7134   23463718.3114
      -836.4014
  -5466323.11748  -4249991.75845  22667781.8774   22667781.7834
      1397.6334
   2492552.41049   1937334.89846  20876932.5804   20876930.6664
     -1531.6354
  10426017.24248   8099730.60944  22889198.0024   22889195.3544
     -3716.3514
  -1442838.88349  -1124021.28546  21688202.8614   21688201.8504
       174.1984
 04  9 10 21 27 30.0020000  0  6G19G 3G 8G13G23G27
  -3374422.81647  -2624598.30943  23778976.3384   23778974.3774
      1295.4524
   -270623.00848   -209864.53943  23466133.4474   23466133.5844
      -846.3224
  -5487238.51648  -4266289.45344  22663801.5414   22663801.0764
      1394.3604
   2515652.44949   1955334.93046  20881328.2914   20881326.0414
     -1540.0034
  10481843.73848   8143231.74244  22899821.0884   22899818.3854
     -3721.7664
  -1445404.25049  -1126020.27346  21687714.9554   21687713.9474
       171.0244
 04  9 10 21 27 45.0020000  0  6G19G 3G 8G13G23G27
  -3393764.21947  -2639669.48843  23775294.9474   23775293.5374
      1289.4274
   -257782.04347   -199858.57042  23468576.7684   23468576.7214
      -856.0644
  -5508107.07448  -4282550.63344  22659830.1584   22659830.1784
      1391.2374
   2538875.37149   1973430.70746  20885747.4864   20885745.7684
     -1548.1954
  10537748.56348   8186793.92244  22910459.1434   22910457.0334
     -3726.9884
  -1447924.61349  -1127984.18746  21687235.0804   21687234.1194
       168.0244
 04  9 10 21 28  0.0020000  0  6G19G 3G 8G13G23G27
  -3413017.04747  -2654671.64143  23771630.6664   23771630.1894
      1283.5224
   -244796.96147   -189740.32443  23471047.8934   23471048.4824
      -865.6724
  -5528931.22748  -4298777.21144  22655867.6194   22655867.3654
      1388.2774
   2562219.04749   1991620.57847  20890189.7604   20890187.9714
     -1556.2454
  10593729.33248   8230415.25444  22921112.7684   22921110.2914
     -3732.0514
  -1450402.17249  -1129914.75046  21686763.5574   21686762.8694
       165.1714
 04  9 10 21 28 15.0020000  0  6G19G 3G 8G13G23G27
  -3432180.89147  -2669604.44543  23767984.2754   23767983.3304
      1277.5904
   -231667.58647   -179509.62943  23473546.4864   23473546.8544
      -875.2924
  -5549710.74648  -4314969.02344  22651913.1584   22651912.8424
      1385.3014
   2585683.63349   2009904.66846  20894654.8614   20894653.4204
     -1564.3064
  10649786.11348   8274095.82444  22931779.9864   22931777.6114
     -3737.1194
  -1452836.71549  -1131811.78946  21686300.4244   21686299.2524
       162.3034
 04  9 10 21 28 30.0020000  0  6G19G 3G 8G13G23G27
  -3451255.01247  -2684467.35543  23764354.5104   23764353.5534
      1271.6084
   -218393.54347   -169166.18443  23476072.5254   23476072.4004
      -884.9364
  -5570445.11348  -4331125.64144  22647967.3384   22647966.8184
      1382.2914
   2609269.45349   2028283.22746  20899143.0104   20899141.2524
     -1572.3884
  10705919.04748   8317835.74244  22942461.7054   22942459.1004
     -3742.1964
  -1455227.84049  -1133674.99646  21685845.2134   21685844.0254
       159.4084
 04  9 10 21 28 45.0020000  0  6G19G 3G 8G13G23G27
  -3470239.23848  -2699260.21143  23760742.4554   23760740.5884
      1265.6154
   -204974.87147   -158710.06643  23478625.8854   23478625.7604
      -894.5784
  -5591134.44948  -4347247.18444  22644030.3464   22644029.7214
      1379.2894
   2632976.43049   2046756.19546  20903654.4164   20903652.8424
     -1580.4654
  10762127.92248   8361634.83244  22953157.9634   22953155.2294
     -3747.2584
  -1457575.78549  -1135504.55546  21685398.9324   21685397.4904
       156.5304
 04  9 10 21 29  0.0020000  0  6G19G 3G 8G13G23G27
  -3489132.16847  -2713981.93443  23757146.7294   23757145.7644
      1259.5294
   -191410.55147   -148140.46543  23481207.3144   23481207.9474
      -904.2884
  -5611777.67248  -4363332.79344  22640102.2214   22640101.3734
      1376.2154
   2656805.71949   2065324.46546  20908188.9944   20908186.9984
     -1588.6194
  10818413.50048   8405493.69144  22963868.4394   22963866.1784
     -3752.3724
  -1459879.46949  -1137299.63346  21684960.1664   21684958.9554
       153.5794
 04  9 10 21 29 15.0020000  0  7G19G 3G 8G13G10G23G27
  -3507935.81247  -2728634.08643  23753568.3694   23753567.6154
      1253.5764
   -177702.79747   -137459.09043  23483815.8304   23483816.6584
      -913.8504
  -5632377.23448  -4379384.38744  22636182.2524   22636181.3224
      1373.3044
   2680755.02749   2083986.25846  20912746.2914   20912744.5964
     -1596.6214
    -45049.37555    -31201.12152  24727004.0104   24727005.3654

  10874773.34448   8449410.41444  22974593.7214   22974590.6074
     -3757.3234
  -1462141.23449  -1139062.04346  21684529.9714   21684528.3654
       150.7844
 04  9 10 21 29 30.0020000  0  7G19G 3G 8G13G10G23G27
  -3526648.58647  -2743215.41443  23750007.5184   23750006.4984
      1247.5184
   -163850.42647   -126665.01243  23486451.3074   23486451.5374
      -923.4914
  -5652931.73448  -4395400.86344  22632271.3854   22632270.6824
      1370.3004
   2704825.59849   2102742.54346  20917327.0884   20917325.1934
     -1604.7054
    -65597.72745    -47212.77742  24723093.6044   24723094.6314
      1369.8904
  10931208.46148   8493385.80144  22985332.4794   22985330.0254
     -3762.3414
  -1464359.80149  -1140790.79746  21684107.7834   21684106.3654
       147.9044
 04  9 10 21 29 45.0020000  0  7G19G 3G 8G13G10G23G27
  -3545276.11348  -2757730.33243  23746462.9084   23746461.7834
      1241.8354
   -149859.43047   -115762.93042  23489113.5884   23489113.6934
      -932.7334
  -5673447.25848  -4411386.96944  22628366.8384   22628366.3894
      1367.7024
   2729011.40249   2121588.62146  20921929.5334   20921927.4824
     -1612.3874
    -86035.74245    -63138.48042  24719204.3614   24719205.2324
      1362.5344
  10987712.74648   8537415.07444  22996085.2054   22996082.8034
     -3766.9524
  -1466541.25849  -1142490.62546  21683692.6504   21683691.6044
       145.4304
 04  9 10 21 30  0.0020000  0  7G19G 3G 8G13G10G23G27
  -3563821.73847  -2772181.43743  23742934.1434   23742932.6504
      1236.3754
   -135733.31248   -104755.54742  23491802.1274   23491802.3574
      -941.7414
  -5693927.09448  -4427345.25044  22624469.6894   22624469.0414
      1365.3224
   2753308.90649   2140521.73046  20926552.8614   20926550.9984
     -1619.8344
   -106366.71545    -78980.79342  24715335.2754   24715336.1354
      1355.3984
  11044282.44148   8581495.31644  23006849.5884   23006847.7994
     -3771.3134
  -1468689.07449  -1144164.23846  21683283.9554   21683282.7364
       143.1884
 04  9 10 21 30 15.0020000  0  7G19G 3G 8G13G10G23G27
  -3582289.18748  -2786571.60943  23739419.8074   23739418.3344
      1231.1634
   -121476.04748    -93645.98843  23494514.9944   23494515.7684
      -950.4844
  -5714375.53148  -4443279.07444  22620578.2364   22620578.1464
      1363.2294
   2777714.01649   2159538.69546  20931197.1894   20931195.0924
     -1627.0074
   -126594.31645    -94742.54742  24711486.5024   24711486.9434
      1348.5074
  11100913.29348   8625623.21944  23017626.5804   23017624.0024
     -3775.3904
  -1470807.36349  -1145814.84846  21682880.6434   21682879.5804
       141.2194
 04  9 10 21 30 30.0020000  0  7G19G 3G 8G13G10G23G27
  -3600677.59048  -2800900.19543  23735920.1044   23735919.1394
      1225.8934
   -107087.09048    -82433.78143  23497252.9084   23497253.7754
      -959.2644
  -5734791.65648  -4459187.71545  22616693.6114   22616693.3144
      1361.0754
   2802227.34849   2178639.98846  20935862.0644   20935859.7684
     -1634.2224
   -146717.85945   -110423.18442  24707657.3074   24707657.7014
      1341.5704
  11157605.73448   8669799.10544  23028414.8934   23028412.7714
     -3779.4964
  -1472895.67249  -1147442.09446  21682483.2994   21682481.9284
       139.2214
 04  9 10 21 30 45.0020000  0  7G19G 3G 8G13G10G23G27
  -3618984.00048  -2815164.89843  23732436.2994   23732435.6004
      1220.4274
    -92563.84047    -71116.96543  23500017.0494   23500017.3934
      -968.2174
  -5755173.45748  -4475069.61344  22612814.6194   22612814.7324
      1358.7874
   2826851.52749   2197827.65246  20940547.5334   20940545.8654
     -1641.6124
   -166734.64545   -126020.67642  24703848.2444   24703848.7444
      1334.4524
  11214362.04348   8714024.77044  23039215.3074   23039213.4824
     -3783.7544
  -1474951.22749  -1149043.81646  21682092.2524   21682090.9984
       137.0374
 04  9 10 21 31  0.0020000  0  7G19G 3G 8G13G10G23G27
  -3637205.14848  -2829363.14143  23728968.9244   23728968.1544
      1214.7434
    -77903.27348    -59693.12943  23502806.8304   23502807.0884
      -977.3714
  -5775517.64148  -4490922.19144  22608943.2994   22608943.1114
      1356.2794
   2851589.72749   2217104.16846  20945255.2754   20945252.9204
     -1649.2134
   -186641.26245   -141532.29342  24700060.0964   24700060.5494
      1327.1084
  11271185.18448   8758302.50844  23050028.2134   23050026.2404
     -3788.2094
  -1476971.17649  -1150617.79746  21681707.9164   21681706.6584
       134.6634
 04  9 10 21 31 15.0020000  0  7G19G 3G 8G13G10G23G27
  -3655342.18448  -2843495.86343  23725517.8614   23725516.8574
      1209.1364
    -63106.84448    -48163.42643  23505622.4794   23505623.1234
      -986.4294
  -5795825.65248  -4506746.60944  22605078.7914   22605078.5644
      1353.8674
   2876440.24649   2236468.20346  20949984.0334   20949982.1974
     -1656.7014
   -206438.99645   -156959.09442  24696292.5804   24696292.3464
      1319.8494
  11328073.21948   8802630.80544  23060853.2604   23060851.8574
     -3792.5364
  -1478957.07049  -1152165.24246  21681330.0184   21681328.3424
       132.3934
 04  9 10 21 31 30.0020000  0  7G19G 3G 8G13G10G23G27
  -3673395.79748  -2857563.58243  23722082.1584   23722081.5144
      1203.5744
    -48175.57847    -36528.65643  23508463.8074   23508464.0214
      -995.4184
  -5816098.46548  -4522543.57844  22601220.8464   22601221.1864
      1351.5214
   2901402.16849   2255919.04746  20954734.3384   20954732.2014
     -1664.1284
   -226128.68445   -172301.66042  24692544.9554   24692545.8184
      1312.6464
  11385025.14848   8847008.88744  23071691.7994   23071689.2994
     -3796.7954
  -1480909.72349  -1153686.78546  21680958.4554   21680956.9824
       130.1774
 04  9 10 21 31 45.0020000  0  7G19G 3G 8G13G10G23G27
  -3691364.02747  -2871564.76643  23718663.0414   23718661.8504
      1197.8824
    -33107.84048    -24787.55543  23511331.4084   23511330.4944
     -1004.5164
  -5836334.29748  -4538311.73445  22597370.7294   22597369.8734
      1349.0554
   2926477.12549   2275457.96946  20959505.7524   20959503.7014
     -1671.6644
   -245708.40245   -187558.57442  24688819.2834   24688820.3774
      1305.3154
  11442042.34448   8891437.84044  23082541.5574   23082538.9864
     -3801.1464
  -1482827.78949  -1155181.37546  21680593.0724   21680592.2214
       127.8714
 04  9 10 21 32  0.0020000  0  7G19G 3G 8G13G10G23G27
  -3709242.21948  -2885495.78943  23715261.3224   23715259.7714
      1191.8794
    -17899.15647    -12936.61342  23514225.1114   23514225.1504
     -1013.9124
  -5856528.92248  -4554047.79344  22593527.5184   22593526.8654
      1346.3084
   2951669.39849   2295088.30546  20964299.8614   20964297.6824
     -1679.4854
   -265173.50446   -202726.17642  24685114.9554   24685116.2644
      1297.6734
  11499129.15248   8935921.02744  23093404.6044   23093402.1004
     -3805.7874
  -1484706.69949  -1156645.45346  21680235.6194   21680234.4864
       125.2614
 04  9 10 21 32 15.0020000  0  7G19G 3G 8G13G10G23G27
  -3727034.34047  -2899359.73443  23711875.2054   23711873.5724
      1186.1414
     -2553.76647      -979.15643  23517144.8544   23517146.2014
     -1023.0264
  -5876686.58248  -4569755.03944  22589691.4164   22589690.6584
      1343.8444
   2976974.67249   2314806.68846  20969115.1044   20969113.4394
     -1687.0184
   -284528.08646   -217807.65642  24681431.9634   24681433.0144
      1290.3054
  11556280.94948   8980454.86344  23104280.0104   23104277.8114
     -3810.1204
  -1486550.75449  -1158082.37546  21679885.1114   21679883.4044
       122.9374
 04  9 10 21 32 30.0020000  0  7G19G 3G 8G13G10G23G27
  -3744738.72747  -2913155.31244  23708505.8774   23708504.6664
      1180.2924
     12929.48848     11085.73043  23520091.8544   23520092.5374
     -1032.2174
  -5896806.11748  -4585432.58244  22585862.8934   22585862.3464
      1341.3024
   3002394.38748   2334614.25846  20973952.2914   20973950.6704
     -1694.6484
   -303770.70346   -232801.87942  24677770.3544   24677771.5294
      1282.8414
  11613498.87948   9025040.22744  23115169.0104   23115166.4324
     -3814.5294
  -1488358.66049  -1159491.12546  21679540.8934   21679539.5684
       120.5274
 04  9 10 21 32 45.0020000  0  7G19G 3G 8G13G10G23G27
  -3762355.77347  -2926882.84844  23705153.8464   23705151.8574
      1174.4704
     28549.95348     23257.52743  23523064.1974   23523063.7914
     -1041.3644
  -5916887.90648  -4601080.71944  22582041.3384   22582040.5964
      1338.7864
   3027927.83649   2354510.43446  20978811.1894   20978809.1394
     -1702.2304
   -322901.71545   -247709.11742  24674129.7134   24674130.4124
      1275.4014
  11670781.97348   9069676.36744  23126069.4004   23126067.4594
     -3818.8734
  -1490131.28149  -1160872.38346  21679203.3854   21679202.0884
       118.1754
 04  9 10 21 33  0.0020000  0  7G19G 3G 8G13G10G23G27
  -3779887.19147  -2940543.66043  23701817.5644   23701816.4284
      1168.7614
     44305.72748     35534.75442  23526062.6434   23526062.1864
     -1050.3854
  -5936934.12948  -4616701.12144  22578226.6894   22578226.1584
      1336.4154
   3053573.10249   2374493.75446  20983691.4394   20983689.6274
     -1709.6844
   -341922.74645   -262530.70342  24670509.9084   24670511.2954
      1268.0694
  11728128.18448   9114361.66444  23136982.2754   23136979.9904
     -3823.0814
  -1491870.40249  -1162227.53546  21678872.4004   21678871.4284
       115.9414
 04  9 10 21 33 15.0020000  0  7G19G 3G 8G13G10G23G27
  -3797330.62547  -2954135.90643  23698497.9714   23698497.0884
      1162.8964
     60198.76248     47918.93042  23529086.8074   23529086.4004
     -1059.5364
  -5956942.77348  -4632292.25844  22574419.0574   22574418.2404
      1333.9104
   3079331.98049   2394565.60946  20988593.1504   20988591.0764
     -1717.2594
   -360831.79346   -277264.98842  24666911.8144   24666913.1194
      1260.6034
  11785539.21148   9159097.50044  23147907.0414   23147904.9864
     -3827.4024
  -1493574.20749  -1163555.17246  21678548.2604   21678546.7604
       113.5874
 04  9 10 21 33 30.0020000  0  7G19G 3G 8G13G10G23G27
  -3814686.12947  -2967659.63343  23695195.0574   23695194.2954
      1157.0344
     76228.71148     60409.81343  23532137.0414   23532137.8144
     -1068.6634
  -5976914.04348  -4647854.25045  22570618.5414   22570618.3224
      1331.4184
   3105204.30549   2414725.84446  20993516.5964   20993514.5574
     -1724.8224
   -379628.91846   -291912.06242  24663335.3614   24663335.8614
      1253.1424
  11843014.57448   9203883.45743  23158844.7524   23158841.4044
     -3831.6914
  -1495242.88749  -1164855.42646  21678230.7754   21678229.4554
       111.2454
 04  9 10 21 33 45.0020000  0  7G19G 3G 8G13G10G23G27
  -3831953.87547  -2981114.99244  23691909.5804   23691908.0764
      1151.1834
     92395.23448     73007.12543  23535212.5644   23535213.6154
     -1077.7684
  -5996848.49648  -4663387.55945  22566825.1274   22566825.4284
      1328.9644
   3131189.66049   2434974.16446  20998461.2364   20998459.2174
     -1732.3574
   -398314.27346   -306472.07042  24659779.5724   24659779.9284
      1245.6904
  11900553.72348   9248719.11744  23169794.0334   23169791.2404
     -3835.9434
  -1496876.94549  -1166128.72746  21677920.0644   21677918.7094
       108.9374
 04  9 10 21 34  0.0020000  0  7G19G 3G 8G13G10G23G27
  -3849131.72347  -2994500.28143  23688640.3464   23688639.4714
      1145.1904
    108699.99648     85712.12942  23538316.1434   23538316.6464
     -1086.9844
  -6016744.09048  -4678890.58645  22563038.9944   22563038.8814
      1326.3734
   3157289.73849   2455311.88746  21003427.8614   21003426.0844
     -1740.0054
   -416885.91846   -320943.48842  24656245.2054   24656246.0294
      1238.1104
  11958158.18848   9293605.68444  23180755.3464   23180753.3934
     -3840.2984
  -1498474.48449  -1167373.55146  21677615.9324   21677614.5024
       106.5034
 04  9 10 21 34 15.0020000  0  7G19G 3G 8G13G10G23G27
  -3866220.25048  -3007815.97744  23685388.7834   23685387.5844
      1139.2354
    125142.21148     98524.25043  23541444.5804   23541445.1864
     -1096.1484
  -6036601.69549  -4694364.03945  22559260.6434   22559259.9514
      1323.8404
   3183503.68849   2475738.32846  21008416.1584   21008414.3694
     -1747.5974
   -435344.54346   -335326.80542  24652732.8544   24652733.5614
      1230.5754
  12015826.96547   9338542.35544  23191729.6894   23191727.1584
     -3844.5854
  -1500036.55948  -1168590.74646  21677318.3614   21677316.9754
       104.1384
 04  9 10 21 34 30.0020000  0  7G19G 3G 8G13G10G23G27
  -3883219.02747  -3021061.74243  23682154.2364   23682153.0104
      1133.2524
    141721.82848    111443.43843  23544600.1044   23544600.1784
     -1105.3084
  -6056421.42648  -4709807.97345  22555488.7054   22555488.9514
      1321.3154
   3209831.55949   2496253.55146  21013426.2994   21013424.7604
     -1755.1914
   -453689.72746   -349621.70342  24649241.9714   24649242.7294
      1223.0124
  12073559.87947   9383528.99244  23202715.3464   23202713.6044
     -3848.8614
  -1501563.02049  -1169780.18746  21677027.8694   21677026.4514
       101.7644
 04  9 10 21 34 45.0020000  0  7G19G 3G 8G13G10G23G27
  -3900126.51247  -3034236.35243  23678936.2134   23678935.0684
      1127.1664
    158440.26648    124470.79343  23547780.6664   23547782.3184
     -1114.5624
  -6076201.98849  -4725221.37545  22551724.6894   22551724.3114
      1318.7044
   3236274.68049   2516858.57046  21018458.0574   21018456.3854
     -1762.8754
   -471919.92646   -363827.05142  24645773.4164   24645773.1044
      1215.3474
  12131357.98847   9428566.42644  23213714.3934   23213712.3344
     -3853.2074
  -1503052.52349  -1170940.83646  21676744.1504   21676743.2644
        99.3004
 04  9 10 21 35  0.0020000  0  7G19G 3G 8G13G10G23G27
  -3916936.46547  -3047335.00043  23675737.5024   23675736.0574
      1120.6644
    175303.30948    137610.84443  23550989.9554   23550990.7914
     -1124.2034
  -6095937.39548  -4740599.59444  22547969.1194   22547968.9824
      1315.6944
   3262838.91449   2537557.97346  21023512.9714   21023511.4084
     -1770.9494
   -490029.12546   -377938.09042  24642327.1114   24642327.0374
      1207.2804
  12189226.97347   9473659.10944  23224726.5724   23224724.3814
     -3857.9324
  -1504499.34849  -1172068.23046  21676469.4634   21676467.9594
        96.4554
 04  9 10 21 35 15.0020000  0  8G19G 3G 8G13G10G28G23G27
  -3933649.14147  -3060357.82843  23672557.7754   23672555.7324
      1114.1784
    192310.59448    150863.27743  23554226.1504   23554226.6354
     -1133.8194
  -6115628.00848  -4755942.89544  22544221.9554   22544221.6234
      1312.7084
   3289523.87949   2558351.44546  21028591.5574   21028589.3144
     -1778.9984
   -508017.59846   -391955.04342  24638903.4474   24638903.6194
      1199.2324
    -84174.72757    -58862.64552  24887955.7994   24887958.1354

  12247166.25447   9518806.56344  23235752.0334   23235749.7794
     -3862.6194
  -1505903.88749  -1173162.66446  21676201.9944   21676200.7134
        93.6364
 04  9 10 21 35 30.0020000  0  8G19G 3G 8G13G10G28G23G27
  -3950263.49247  -3073304.03543  23669395.5644   23669394.2134
      1107.6234
    209462.80148    164228.63343  23557491.1664   23557490.7324
     -1143.4804
  -6135273.14849  -4771250.77744  22540483.4164   22540483.2754
      1309.6764
   3316330.21549   2579239.48446  21033692.4324   21033690.7874
     -1787.0894
   -525884.41046   -405877.22342  24635503.4864   24635503.8034
      1191.1214
   -122568.32847    -88779.66442  24880650.3774   24880651.8074
      2559.5734
  12305176.34447   9564009.18444  23246790.6354   23246788.2484
     -3867.3394
  -1507265.50849  -1174223.66846  21675942.9864   21675941.7994
        90.7754
 04  9 10 21 35 45.0020000  0  8G19G 3G 8G13G10G28G23G27
  -3966786.84047  -3086179.33243  23666250.9244   23666250.1394
      1101.5574
    226752.12948    177700.82843  23560780.6354   23560780.8384
     -1152.6224
  -6154880.60249  -4786529.29744  22536752.5024   22536751.8114
      1307.1644
   3343250.19149   2600216.08246  21038815.1584   21038812.9364
     -1794.6654
   -543636.86746   -419710.30542  24632125.3224   24632125.6114
      1183.4974
   -160931.89547   -118673.24642  24873349.5804   24873350.9824
      2557.5714
  12363249.29747   9609260.78944  23257842.1114   23257839.7564
     -3871.5304
  -1508591.78549  -1175257.11746  21675690.5254   21675688.9474
        88.4184
 04  9 10 21 36  0.0020000  0  8G19G 3G 8G13G10G28G23G27
  -3983219.51247  -3098983.97743  23663124.4244   23663122.7794
      1095.5114
    244178.12948    191279.54343  23564096.6354   23564096.5764
     -1161.7334
  -6174450.66049  -4801778.67644  22533028.7294   22533028.3854
      1304.6714
   3370283.26249   2621280.80146  21043959.3224   21043957.2054
     -1802.2054
   -561275.48046   -433454.64142  24628769.0964   24628769.5964
      1175.9084
   -199265.58647   -148543.60542  24866054.7364   24866056.2444
      2555.5794
  12421384.35247   9654560.79744  23268904.5414   23268902.6664
     -3875.6704
  -1509883.27749  -1176263.46946  21675444.3854   21675443.3224
        86.0994
 04  9 10 21 36 15.0020000  0  8G19G 3G 8G13G10G28G23G27
  -3999563.03547  -3111719.15644  23660014.5644   23660013.2134
      1089.5684
    261738.76248    204963.16843  23567438.1894   23567438.5494
     -1170.7094
  -6193985.25849  -4817000.40645  22529311.1504   22529311.0614
      1302.3074
   3397427.53949   2642432.18446  21049124.7214   21049122.9434
     -1809.6184
   -578801.81646   -447111.49642  24625433.9794   24625434.5334
      1168.4224
   -237571.28147   -178392.09842  24858765.1974   24858767.4514
      2553.7134
  12479579.48047   9699907.60944  23279978.9944   23279977.0764
     -3879.6754
  -1511142.02349  -1177244.30946  21675205.0024   21675203.9554
        83.9164
 04  9 10 21 36 30.0020000  0  8G19G 3G 8G13G10G28G23G27
  -4015818.33647  -3124385.57843  23656920.9794   23656920.1004
      1083.6874
    279432.85547    218750.76643  23570805.4394   23570806.2174
     -1179.6064
  -6213485.73449  -4832195.57045  22525600.6354   22525600.3544
      1300.0324
   3424681.68849   2663669.18446  21054310.9474   21054309.4434
     -1816.9434
   -596216.97745   -460681.74242  24622119.7214   24622120.2914
      1161.0114
   -275849.98847   -208219.55542  24851481.2294   24851483.3304
      2551.9144
  12537833.32047   9745300.16443  23291064.0334   23291062.5294
     -3883.5894
  -1512369.07449  -1178200.44546  21674971.6194   21674970.0964
        81.8034
 04  9 10 21 36 45.0020000  0  8G19G 3G 8G13G10G28G23G27
  -4031984.63747  -3136982.66844  23653844.4474   23653843.5104
      1077.7534
    297260.78548    232642.68043  23574197.6974   23574198.2684
     -1188.5294
  -6232951.59049  -4847363.74245  22521896.0964   22521896.0844
      1297.7244
   3452046.26649   2684992.21946  21059518.4324   21059516.5494
     -1824.3054
   -613520.26246   -474164.77742  24618826.5414   24618827.3574
      1153.5524
   -314101.10247   -238025.53142  24844202.6044   24844204.2054
      2550.0744
  12596146.05947   9790738.60944  23302160.3614   23302158.6004
     -3887.5164
  -1513564.05149  -1179131.59046  21674744.3614   21674742.8814
        79.6654
 04  9 10 21 37  0.0020000  0  8G19G 3G 8G13G10G28G23G27
  -4048061.50447  -3149510.06644  23650785.2364   23650783.6744
      1071.7914
    315222.92648    246639.15643  23577616.4864   23577615.7444
     -1197.4764
  -6252382.27749  -4862504.52345  22518198.8544   22518198.8304
      1295.3794
   3479521.53149   2706401.50446  21064746.6354   21064745.0684
     -1831.6844
   -630711.15645   -487560.26242  24615554.9794   24615555.5964
      1146.0604
   -352324.15647   -267809.64842  24836928.2684   24836929.9554
      2548.2044
  12654517.64847   9836222.92243  23313267.9634   23313266.3734
     -3891.4394
  -1514726.65649  -1180037.50846  21674522.8144   21674521.8384
        77.5074
 04  9 10 21 37 15.0020000  0  8G19G 3G 8G13G10G28G23G27
  -4064051.29747  -3161969.61343  23647742.6434   23647741.1864
      1065.9864
    333316.48048    260738.02743  23581059.3384   23581059.0374
     -1206.2374
  -6271780.75849  -4877620.19945  22514506.9084   22514506.7644
      1293.2324
   3507104.67249   2727894.86346  21069995.5724   21069993.9594
     -1838.8764
   -647792.28545   -500870.21942  24612305.3774   24612304.5184
      1138.7424
   -390521.57847   -297573.82042  24829659.8144   24829661.1664
      2546.4954
  12712945.29347   9881750.91044  23324386.8144   23324384.8264
     -3895.1764
  -1515859.61749  -1180920.33646  21674307.4944   21674306.1004
        75.5314
 04  9 10 21 37 30.0020000  0  8G19G 3G 8G13G10G28G23G27
  -4079955.79747  -3174362.68744  23644716.3614   23644714.4794
      1060.3004
    351539.37148    274937.70343  23584526.8304   23584526.9244
     -1214.8594
  -6291149.04748  -4892712.35545  22510821.3854   22510821.5614
      1291.2194
   3534793.54749   2749470.59446  21075264.7524   21075262.9394
     -1845.9254
   -664765.47346   -514096.06242  24609075.0104   24609075.3384
      1131.5464
   -428695.30147   -327319.50442  24822395.9794   24822396.4754
      2544.9154
  12771426.75847   9927320.83644  23335516.0574   23335513.5844
     -3898.7644
  -1516965.13749  -1181781.77046  21674096.9864   21674095.7444
        73.7014
 04  9 10 21 37 45.0020000  0  8G19G 3G 8G13G10G28G23G27
  -4095776.59047  -3186690.54344  23641705.1664   23641703.8654
      1054.7204
    369889.57848    289236.58643  23588018.1354   23588019.0574
     -1223.3474
  -6310489.28149  -4907782.64545  22507141.1584   22507141.3114
      1289.3494
   3562586.21949   2771127.21946  21080553.3614   21080551.6934
     -1852.8454
   -681632.47346   -527239.14542  24605865.5104   24605865.9984
      1124.4674
   -466847.17647   -357048.15642  24815135.5184   24815137.0494
      2543.4584
  12829959.80547   9972930.94944  23346654.2134   23346652.4244
     -3902.2034
  -1518045.06649  -1182623.27046  21673891.8774   21673890.3114
        71.9954
 04  9 10 21 38  0.0020000  0  8G19G 3G 8G13G10G28G23G27
  -4111511.67647  -3198951.60943  23638710.7754   23638709.6744
      1049.0064
    388368.76248    303635.95743  23591534.5644   23591535.1354
     -1231.9464
  -6329799.54349  -4922829.57845  22503466.3774   22503465.7484
      1287.3514
   3590484.47749   2792866.10946  21085862.2684   21085860.4864
     -1859.8844
   -698391.29745   -540297.96142  24602676.5964   24602677.3344
      1117.2554
   -504975.31647   -386758.31642  24807879.7994   24807881.4244
      2541.8764
  12888545.82847  10018582.35943  23357802.8774   23357800.7714
     -3905.7354
  -1519097.72749  -1183443.52046  21673691.2914   21673689.9594
        70.1774
 04  9 10 21 38 15.0020000  0  8G19G 3G 8G13G10G28G23G27
  -4127162.26247  -3211146.84043  23635732.4164   23635731.1894
      1043.3724
    406975.47348    318134.69143  23595075.9394   23595075.7644
     -1240.4474
  -6349081.28949  -4937854.28544  22499797.1354   22499796.8464
      1285.4504
   3618486.82848   2814686.11746  21091191.1504   21091189.4674
     -1866.8234
   -715043.25045   -553273.47742  24599508.1744   24599508.8504
      1110.1304
   -543080.89847   -416450.91842  24800628.6194   24800630.3734
      2540.3724
  12947183.42247  10064273.93443  23368961.0644   23368959.1434
     -3909.1734
  -1520124.59848  -1184243.66846  21673495.7444   21673494.2874
        68.4584
 04  9 10 21 38 30.0020000  0  8G19G 3G 8G13G10G28G23G27
  -4142729.28147  -3223276.96143  23632770.2054   23632768.4364
      1037.8014
    425708.52348    332731.88743  23598640.5104   23598640.7524
     -1248.8704
  -6368335.58249  -4952857.62545  22496133.1274   22496132.6864
      1283.6204
   3646591.95348   2836586.20746  21096539.0254   21096537.3034
     -1873.6754
   -731589.35945   -566166.51642  24596359.3304   24596359.5254
      1103.0744
   -581165.08647   -446126.80542  24793381.0414   24793382.4204
      2538.9464
  13005870.94547  10110004.43043  23380129.0414   23380127.1044
     -3912.5024
  -1521126.72748  -1185024.55146  21673305.1504   21673303.6434
        66.8094
 04  9 10 21 38 45.0020000  0  8G19G 3G 8G13G10G28G23G27
  -4158208.70747  -3235338.82044  23629824.6434   23629823.3614
      1031.9624
    444571.46548    347430.29343  23602230.0724   23602231.1044
     -1257.5294
  -6387558.79349  -4967836.73044  22492475.3384   22492474.0684
      1281.5474
   3674803.68848   2858569.36346  21101907.7134   21101905.9904
     -1880.7824
   -748025.72745   -578974.05942  24593231.0104   24593232.5024
      1095.7584
   -619223.93447   -475782.96542  24786138.5644   24786139.9324
      2537.2574
  13064611.98447  10155776.62143  23391307.3384   23391305.1354
     -3916.0694
  -1522100.66048  -1185783.45346  21673119.4944   21673118.6114
        64.9294
 04  9 10 21 39  0.0020000  0  8G19G 3G 8G13G10G28G23G27
  -4173597.70347  -3247330.19543  23626896.2054   23626895.0494
      1025.9334
    463567.01248    362232.02343  23605845.2214   23605845.8574
     -1266.3704
  -6406748.23849  -4982789.54344  22488823.8544   22488822.7094
      1279.2964
   3703124.51648   2880637.53146  21107296.9164   21107295.4004
     -1888.0554
   -764349.41045   -591693.76642  24590125.6584   24590125.8074
      1088.2464
   -657254.48047   -505417.10942  24778902.0644   24778903.2604
      2535.3704
  13123409.06647  10201592.48443  23402496.1354   23402494.1154
     -3919.8054
  -1523043.50048  -1186518.12946  21672939.8934   21672939.1584
        62.8564
 04  9 10 21 39 15.0020000  0  8G19G 3G 8G13G10G28G23G27
  -4188895.78547  -3259250.74244  23623985.0334   23623983.5024
      1019.8724
    482695.19948    377137.10543  23609485.0334   23609485.1274
     -1275.2124
  -6425903.68049  -4997715.84845  22485178.2994   22485177.9004
      1277.0294
   3731554.64148   2902790.87146  21112707.0024   21112705.1044
     -1895.3424
   -780560.17645   -604325.51642  24587040.3774   24587041.1004
      1080.7184
   -695256.53547   -535029.01242  24771670.3614   24771671.5534
      2533.4704
  13182262.09047  10247451.93443  23413695.2914   23413693.5574
     -3923.5354
  -1523955.30948  -1187228.61746  21672766.8224   21672765.4754
        60.7874
 04  9 10 21 39 30.0020000  0  8G19G 3G 8G13G10G28G23G27
  -4204105.77747  -3271102.65244  23621090.8304   23621089.1274
      1013.9994
    501952.91448    392143.11743  23613149.2214   23613149.4674
     -1283.8484
  -6445028.40249  -5012618.20745  22481539.3694   22481539.1464
      1274.9824
   3760090.84848   2925026.86346  21118137.5884   21118135.5414
     -1902.4144
   -796660.88346   -616871.48842  24583976.2834   24583976.8614
      1073.3804
   -733233.10547   -564621.07842  24764443.1354   24764444.3224
      2531.7714
  13241167.59847  10293352.28543  23424904.6504   23424903.2684
     -3927.0344
  -1524839.18048  -1187917.34446  21672598.5024   21672597.1044
        58.9254
 04  9 10 21 39 45.0020000  0  8G19G 3G 8G13G10G28G23G27
  -4219221.40247  -3282881.03543  23618214.2294   23618212.6974
      1007.7084
    521346.14548    407254.71942  23616840.0334   23616840.2094
     -1292.8824
  -6464116.41849  -5027491.97345  22477906.9474   22477905.9594
      1272.5344
   3788739.04748   2947350.12546  21123588.9324   21123587.1744
     -1909.8804
   -812645.36745   -629326.92642  24580934.4794   24580934.5684
      1065.6324
   -771178.10947   -594188.52342  24757222.9244   24757224.0104
      2529.6674
  13300131.53947  10339298.16443  23436124.9474   23436123.4714
     -3930.9294
  -1525689.12148  -1188579.62946  21672436.4794   21672435.2794
        56.6634
 04  9 10 21 40  0.0020000  0  8G19G 3G 8G13G10G28G23G27
  -4234242.22747  -3294585.55143  23615356.1974   23615354.1434
      1001.3884
    540875.00848    422472.03143  23620556.1114   23620555.8614
     -1301.9244
  -6483167.29349  -5042336.78545  22474281.5414   22474281.5844
      1270.0584
   3817499.45748   2969760.83246  21129061.5724   21129060.0884
     -1917.3614
   -828513.33245   -641691.53142  24577914.3854   24577914.7324
      1057.8644
   -809091.00847   -623730.96142  24750008.1274   24750009.2994
      2527.5274
  13359153.77347  10385289.46143  23447356.6044   23447355.1044
     -3934.8164
  -1526504.91448  -1189215.30946  21672281.4944   21672280.6004
        54.3864
 04  9 10 21 40 15.0020000  0  8G19G 3G 8G13G10G28G23G27
  -4249160.29347  -3306209.97344  23612517.1824   23612515.5024
       994.5384
    560546.95748    437800.82443  23624299.4944   23624299.7834
     -1311.4634
  -6502173.50049  -5057146.80145  22470664.6274   22470664.8074
      1267.0804
   3846379.59049   2992264.81646  21134557.7134   21134556.0104
     -1925.3424
   -844256.87545   -653959.19542  24574918.9474   24574919.2914
      1049.5704
   -846964.11347   -653242.39542  24742801.3464   24742802.4674
      2524.8744
  13418241.66447  10431331.93843  23458600.6974   23458598.8504
     -3939.1934
  -1527279.00849  -1189818.49246  21672134.2444   21672133.2324
        51.6064
 04  9 10 21 40 30.0020000  0  8G19G 3G 8G13G10G28G23G27
  -4263978.71547  -3317756.76644  23609696.9394   23609696.2914
       987.8954
    580358.61748    453238.47343  23628069.9634   23628069.5064
     -1320.7774
  -6521138.74649  -5071924.88745  22467055.8544   22467055.2444
      1264.3504
   3875376.00449   3014859.42646  21140075.4394   21140073.3934
     -1933.0944
   -859879.27045   -666132.46142  24571946.1354   24571946.9634
      1041.4934
   -884800.59847   -682725.33242  24735600.8544   24735601.3894
      2522.4324
  13477391.67647  10477422.81343  23469856.8224   23469855.0214
     -3943.3344
  -1528014.81248  -1190391.84046  21671994.4084   21671993.1864
        49.0544
 04  9 10 21 40 45.0020000  0  8G19G 3G 8G13G10G28G23G27
  -4278699.93048  -3329227.80144  23606895.8774   23606894.4594
       981.4144
    600307.28148    468782.90643  23631865.4864   23631866.5884
     -1329.9114
  -6540065.17249  -5086672.72345  22463454.2754   22463454.0254
      1261.7624
   3904486.22749   3037542.70746  21145614.9004   21145613.2484
     -1940.6824
   -875382.84445   -678213.16842  24568995.5104   24568996.1894
      1033.5724
   -922602.91846   -712181.59442  24728406.9864   24728408.5494
      2520.1554
  13536600.93047  10523559.84443  23481123.8614   23481122.2604
     -3947.2844
  -1528714.89149  -1190937.34446  21671860.7994   21671859.4084
        46.6724
 04  9 10 21 41  0.0020000  0  8G19G 3G 8G13G10G28G23G27
  -4293323.18747  -3340622.51244  23604112.8934   23604111.6234
       974.8844
    620393.30948    484434.35943  23635687.7134   23635688.3734
     -1339.0684
  -6558952.57049  -5101390.15645  22459860.1194   22459859.5024
      1259.1604
   3933710.42249   3060314.78946  21151176.1354   21151174.2294
     -1948.2804
   -890767.03146   -690200.80942  24566068.7684   24566068.3384
      1025.6124
   -960370.48847   -741610.73442  24721219.5334   24721221.9204
      2517.8384
  13595869.66447  10569743.21143  23492402.5104   23492400.9554
     -3951.2494
  -1529378.90249  -1191454.75446  21671734.7294   21671733.2684
        44.2674
 04  9 10 21 41 15.0020000  0  8G19G 3G 8G13G10G28G23G27
  -4307850.90247  -3351942.77343  23601348.3224   23601347.0924
       968.5144
    640613.94948    500190.70742  23639535.6114   23639535.6704
     -1348.0434
  -6577803.80549  -5116079.41045  22456272.8384   22456272.1074
      1256.7494
   3963045.88749   3083173.59046  21156758.1504   21156756.7684
     -1955.6984
   -906034.48446   -702097.49242  24563163.1974   24563163.6354
      1017.8304
   -998105.87947   -771014.84842  24714038.7994   24714040.7324
      2515.6934
  13655194.86747  10615970.60543  23503691.8854   23503689.7684
     -3955.0144
  -1530009.57049  -1191946.18046  21671614.7914   21671613.3304
        42.0454
 04  9 10 21 41 30.0020000  0  8G19G 3G 8G13G10G28G23G27
  -4322282.36348  -3363188.03944  23598602.1434   23598600.6894
       962.0974
    660969.55548    516052.22343  23643409.0414   23643409.9794
     -1357.0404
  -6596618.15249  -5130739.93445  22452692.4634   22452691.3384
      1254.2904
   3992493.15249   3106119.49646  21162361.9324   21162359.9394
     -1963.1514
   -921184.39845   -713902.59442  24560279.8854   24560280.2214
      1009.9944
  -1035808.48047   -800393.40642  24706864.5724   24706865.1624
      2513.5074
  13714576.83247  10662242.22743  23514991.8224   23514990.2364
     -3958.7984
  -1530606.36349  -1192411.20346  21671501.0724   21671499.6824
        39.7864
 04  9 10 21 41 45.0020000  0  8G19G 3G 8G13G10G28G23G27
  -4336617.06247  -3374357.90243  23595874.4004   23595873.2714
       955.6474
    681460.39148    532019.10943  23647308.6974   23647309.8574
     -1366.0564
  -6615395.59449  -5145371.68745  22449119.2754   22449117.9674
      1251.8294
   4022052.25849   3129152.55946  21167986.8304   21167985.0684
     -1970.6074
   -936216.47345   -725615.87542  24557420.3074   24557419.2604
      1002.1384
  -1073477.79747   -829746.04742  24699696.2364   24699698.0684
      2511.2884
  13774015.59847  10708558.08644  23526302.1894   23526300.7054
     -3962.5844
  -1531169.10549  -1192849.70346  21671393.5254   21671392.6624
        37.5164
 04  9 10 21 42  0.0020000  0  8G19G 3G 8G13G10G28G23G27
  -4350857.44147  -3385454.25844  23593164.6974   23593163.1784
       949.3594
    702083.78148    548089.28542  23651232.8384   23651233.4794
     -1374.8934
  -6634138.48449  -5159976.52345  22445552.8224   22445551.3034
      1249.5264
   4051720.40649   3152270.59046  21173632.7054   21173631.1704
     -1977.8774
   -951133.14545   -737239.25042  24554581.2604   24554581.3504
       994.4454
  -1111116.51647   -859074.81642  24692533.8464   24692535.1464
      2509.2484
  13833508.23847  10754915.93843  23537623.7914   23537622.2444
     -3966.1764
  -1531700.50849  -1193263.77746  21671293.0184   21671291.3344
        35.4274
 04  9 10 21 42 15.0020000  0  8G19G 3G 8G13G10G28G23G27
  -4365006.12547  -3396479.16044  23590471.9864   23590470.5454
       943.2464
    722836.56348    564260.28143  23655181.9864   23655182.1894
     -1383.5194
  -6652849.96949  -5174556.88745  22441992.1274   22441991.1194
      1247.4324
   4081494.61748   3175471.26646  21179298.6974   21179296.7094
     -1984.9474
   -965937.31245   -748774.94542  24551763.6354   24551765.0964
       986.9454
  -1148727.34847   -888381.85542  24685377.2364   24685378.2364
      2507.3894
  13893051.52347  10801313.25043  23548954.5804   23548952.2914
     -3969.5524
  -1532203.55949  -1193655.76246  21671196.8774   21671196.2324
        33.5374
 04  9 10 21 42 30.0020000  0  8G19G 3G 8G13G10G28G23G27
  -4379062.48448  -3407432.13344  23587797.0804   23587795.8034
       937.0914
    743719.12148    580532.39143  23659155.6504   23659156.6504
     -1392.1714
  -6671529.82049  -5189112.59845  22438437.3224   22438436.7604
      1245.3234
   4111375.48049   3198755.03946  21184984.5804   21184982.6354
     -1992.0584
   -980628.24646   -760222.40242  24548968.3614   24548968.3574
       979.3964
  -1186309.68048   -917666.72342  24678225.5414   24678226.2134
      2505.4894
  13952645.87547  10847750.35543  23560294.7134   23560293.1464
     -3972.9574
  -1532677.81648  -1194025.29746  21671106.5494   21671105.7484
        31.6174
 04  9 10 21 42 45.0020000  0  8G19G 3G 8G13G10G28G23G27
  -4393027.46547  -3418313.89543  23585139.9084   23585137.4754
       930.9994
    764730.22747    596904.69143  23663154.1974   23663154.6664
     -1400.7404
  -6690178.66049  -5203644.13745  22434888.4474   22434887.9824
      1243.2564
   4141361.78548   3222120.98046  21190690.7994   21190688.7174
     -1999.0874
   -995206.90246   -771582.37542  24546194.0804   24546194.0374
       971.9104
  -1223864.48047   -946930.13342  24671078.8144   24671079.3224
      2503.6534
  14012289.64147  10894225.96943  23571645.2444   23571643.1784
     -3976.2514
  -1533124.38348  -1194373.27046  21671021.3544   21671020.5454
        29.7714
 04  9 10 21 43  0.0020000  0  8G19G 3G 8G13G10G28G23G27
  -4406896.64148  -3429121.01244  23582500.2994   23582498.4984
       924.6124
    785873.94548    613380.31343  23667177.7754   23667178.0844
     -1409.5814
  -6708792.73849  -5218148.59445  22431346.4004   22431345.7214
      1240.9394
   4171457.53948   3245572.20746  21196417.5254   21196416.0924
     -2006.3844
  -1009669.18746   -782851.67242  24543441.7604   24543442.0684
       964.1524
  -1261387.65247   -976168.85542  24663937.8774   24663939.1824
      2501.5454
  14071986.78147  10940743.16843  23583005.0724   23583003.3964
     -3979.8094
  -1533539.25048  -1194696.53946  21670942.9244   21670941.4084
        27.6584
 04  9 10 21 43 15.0020000  0  8G19G 3G 8G13G10G28G23G27
  -4420667.62148  -3439851.60544  23579879.5964   23579877.4754
       918.0654
    807152.30547    629960.86343  23671226.6824   23671227.5334
     -1418.5574
  -6727369.74249  -5232624.16045  22427811.0414   22427810.3424
      1238.4674
   4201664.78548   3269110.31346  21202166.2134   21202164.4284
     -2013.8164
  -1024012.57446   -794028.30942  24540712.2294   24540712.5374
       956.2264
  -1298876.76247  -1005381.06642  24656803.4944   24656804.5614
      2499.2744
  14131739.27047  10987303.50443  23594375.3544   23594373.1744
     -3983.4994
  -1533920.20748  -1194993.38746  21670870.5574   21670869.1044
        25.3974
 04  9 10 21 43 30.0020000  0  8G19G 3G 8G13G10G28G23G27
  -4434341.22347  -3450506.32844  23577277.8854   23577275.9164
       911.5734
    828564.06648    646645.34043  23675301.6194   23675301.8964
     -1427.4514
  -6745910.91049  -5247071.80145  22424282.9554   22424282.6154
      1236.0784
   4231982.30548   3292734.34046  21207935.4554   21207933.5964
     -2021.1684
  -1038238.12945   -805113.14842  24538005.2054   24538005.9824
       948.3704
  -1336332.69147  -1034567.40642  24649676.3854   24649677.4794
      2497.0624
  14191545.74247  11033905.90643  23605756.1114   23605754.3504
     -3987.0984
  -1534268.42648  -1195264.71946  21670804.4634   21670802.9284
        23.2154
 04  9 10 21 43 45.0020000  0  8G19G 3G 8G13G10G28G23G27
  -4447919.23447  -3461086.57444  23574693.9944   23574691.9824
       905.2014
    850107.06648    663432.08643  23679401.1434   23679401.3544
     -1436.2004
  -6764418.34049  -5261493.14545  22420760.9164   22420760.6544
      1233.8294
   4262407.89548   3316442.57846  21213725.4244   21213723.5374
     -2028.3734
  -1052347.83645   -816107.70342  24535320.5884   24535320.9944
       940.6474
  -1373757.51247  -1063729.51642  24642554.3544   24642555.5414
      2494.9884
  14251403.88347  11080548.55943  23617147.3934   23617145.0104
     -3990.5434
  -1534586.08648  -1195512.24246  21670743.7294   21670742.4714
        21.1774
 04  9 10 21 44  0.0020000  0  8G19G 3G 8G13G10G28G23G27
  -4461401.46147  -3471592.15644  23572128.6664   23572127.0684
       898.8154
    871781.29347    680321.11343  23683525.1504   23683526.0144
     -1444.9484
  -6782892.11349  -5275888.28545  22417245.7364   22417244.9474
      1231.5854
   4292941.49649   3340234.98046  21219535.9164   21219533.8814
     -2035.5734
  -1066341.46946   -827011.80142  24532657.3544   24532658.1704
       932.9094
  -1411150.95747  -1092867.18042  24635438.8304   24635439.5574
      2492.8964
  14311313.34447  11127231.21143  23628547.2994   23628545.4284
     -3993.9644
  -1534873.13749  -1195735.91046  21670688.9944   21670687.7054
        19.1374
 04  9 10 21 44 15.0020000  0  8G19G 3G 8G13G10G28G23G27
  -4474788.89547  -3482023.89144  23569581.3544   23569579.0724
       892.4964
    893585.32047    697311.26243  23687674.2134   23687675.1504
     -1453.6024
  -6801333.27349  -5290258.00445  22413736.4794   22413735.7644
      1229.4114
   4323581.87949   3364110.59846  21225366.5724   21225364.3734
     -2042.6924
  -1080220.10246   -837826.29742  24530015.8934   24530017.3574
       925.2424
  -1448514.24247  -1121981.34042  24628327.7214   24628329.4164
      2490.8864
  14371272.85946  11173952.87143  23639957.2054   23639955.2644
     -3997.3014
  -1535130.82049  -1195936.70746  21670639.8614   21670638.7794
        17.1794
 04  9 10 21 44 30.0020000  0  8G19G 3G 8G13G10G28G23G27
  -4488078.19947  -3492379.15644  23567052.0254   23567049.9284
       885.9544
    915522.29747    714405.00843  23691848.8144   23691849.4434
     -1462.4654
  -6819738.77049  -5304599.93045  22410234.4394   22410233.2564
      1227.0334
   4354332.17249   3388071.86346  21231218.1114   21231215.9754
     -2050.0204
  -1093980.40646   -848548.59442  24527397.8074   24527398.2014
       917.3544
  -1485844.01647  -1151069.40242  24621224.8224   24621225.2874
      2488.6524
  14431285.13347  11220715.60543  23651377.0024   23651375.0844
     -4000.8184
  -1535356.02749  -1196112.18446  21670597.5104   21670596.1394
        15.0144
 04  9 10 21 44 45.0020000  0  8G19G 3G 8G13G10G28G23G27
  -4501268.46947  -3502657.26644  23564541.7754   23564540.1044
       879.3514
    937592.73047    731602.75443  23696048.3934   23696049.7174
     -1471.3624
  -6838107.81649  -5318913.45745  22406738.4004   22406737.7564
      1224.6034
   4385192.81649   3412119.10246  21237090.7364   21237088.4754
     -2057.3764
  -1107621.59446   -859178.06642  24524801.8614   24524802.4674
       909.4134
  -1523139.63347  -1180130.84042  24614128.5884   24614128.5254
      2486.3744
  14491350.54747  11267519.78143  23662807.9244   23662805.4554
     -4004.3614
  -1535548.30549  -1196262.01246  21670560.8144   21670559.5294
        12.8184
 04  9 10 21 45  0.0020000  0  8G19G 3G 8G13G10G28G23G27
  -4514359.81248  -3512858.27044  23562050.5414   23562049.1584
       872.7564
    959796.17647    748904.13743  23700273.6974   23700274.4714
     -1480.2304
  -6856440.93049  -5333198.98845  22403249.8224   22403248.7294
      1222.2084
   4416163.32849   3436251.96146  21242983.9084   21242982.0214
     -2064.7014
  -1121143.87946   -869714.91042  24522228.5334   24522228.9514
       901.4864
  -1560401.22347  -1209165.76642  24607037.1044   24607038.6154
      2484.1064
  14551468.52747  11314364.90243  23674247.8224   23674245.6934
     -4007.8654
  -1535707.82449  -1196386.30546  21670530.1434   21670529.0684
        10.6354
 04  9 10 21 45 15.0020000  0  8G19G 3G 8G13G10G28G23G27
  -4527348.30547  -3522979.11744  23559578.7364   23559577.8614
       865.8994
    982136.23447    766311.97743  23704525.4714   23704525.2604
     -1489.3374
  -6874734.58649  -5347453.75445  22399768.1744   22399767.7564
      1219.5774
   4447247.30949   3460473.23046  21248899.1274   21248897.1434
     -2072.2654
  -1134543.50446   -880156.15242  24519679.0724   24519679.9004
       893.3084
  -1597624.89147  -1238171.12142  24599953.3384   24599954.5804
      2481.5784
  14611642.60947  11361253.74643  23685698.3694   23685696.5214
     -4011.6054
  -1535830.96149  -1196482.24646  21670506.7684   21670505.6894
         8.2094
 04  9 10 21 45 30.0020000  0  8G19G 3G 8G13G10G28G23G27
  -4540233.55147  -3533019.53144  23557126.8074   23557125.2754
       859.0164
   1004612.88748    783826.27043  23708802.5334   23708802.8544
     -1498.4434
  -6892988.44549  -5361677.52345  22396294.6354   22396294.4434
      1216.9244
   4478444.96549   3484783.09046  21254835.8774   21254834.1624
     -2079.8444
  -1147820.15246   -890501.58242  24517152.5254   24517154.0064
       885.1104
  -1634810.47347  -1267146.81642  24592877.6114   24592878.1004
      2479.0394
  14671872.64847  11408186.19543  23697159.8384   23697157.7794
     -4015.3364
  -1535917.64849  -1196549.79746  21670490.3854   21670489.2054
         5.7794
 04  9 10 21 45 45.0020000  0  8G19G 3G 8G13G10G28G23G27
  -4553020.28147  -3542983.18744  23554694.0724   23554691.7914
       852.4494
   1027221.05547    801443.02043  23713104.2684   23713105.6704
     -1507.2114
  -6911207.55949  -5375874.21145  22392827.8384   22392826.8344
      1214.6084
   4509751.20749   3509177.55147  21260793.0724   21260791.4084
     -2087.0834
  -1160978.75846   -900755.02342  24514647.9084   24514648.8774
       877.2404
  -1671962.79747  -1296096.60942  24585807.2524   24585807.9864
      2476.8224
  14732153.35247  11455158.11743  23708630.5494   23708629.0574
     -4018.7144
  -1535972.89149  -1196592.84046  21670479.4944   21670478.8074
         3.6834
 04  9 10 21 46  0.0020000  0  8G19G 3G 8G13G10G28G23G27
  -4565709.23847  -3552870.66844  23552279.3224   23552276.8264
       845.9304
   1049959.60248    819161.34043  23717431.5964   23717432.5724
     -1515.9034
  -6929392.68049  -5390044.41445  22389367.2134   22389366.3184
      1212.3414
   4541164.87949   3533655.72746  21266770.9794   21266769.2644
     -2094.2454
  -1174019.98846   -910917.01242  24512166.6664   24512166.9474
       869.4154
  -1709082.64847  -1325021.10242  24578743.0644   24578743.9794
      2474.6574
  14792483.53148  11502168.59043  23720111.5574   23720109.4514
     -4022.0124
  -1535997.73849  -1196612.20746  21670475.5804   21670473.9324
         1.6574
 04  9 10 21 46 15.0020000  0  8G19G 3G 8G13G10G28G23G27
  -4578303.46948  -3562684.30944  23549882.7684   23549880.2014
       839.6154
   1072825.24248    836978.73843  23721783.0254   23721783.1434
     -1524.3764
  -6947547.34449  -5404190.88345  22385912.4944   22385912.0964
      1210.3114
   4572682.78149   3558215.12946  21272768.5964   21272766.7214
     -2101.1934
  -1186946.85946   -920989.89142  24509706.6114   24509706.8574
       861.7914
  -1746172.94947  -1353922.53942  24571684.9794   24571686.1744
      2472.6874
  14852859.76647  11549214.95743  23731600.5104   23731598.3074
     -4025.0824
  -1535995.29349  -1196610.28546  21670475.6044   21670474.6354
        -0.1634
 04  9 10 21 46 30.0020000  0  8G19G 3G 8G13G10G28G23G27
  -4590801.32848  -3572422.87544  23547504.0884   23547502.4244
       833.1914
   1095819.33647    854896.21543  23726158.3144   23726158.8464
     -1532.9404
  -6965670.03549  -5418312.44545  22382464.1504   22382463.3934
      1208.1794
   4604306.22349   3582856.75446  21278786.3224   21278784.4824
     -2108.2294
  -1199757.90646   -930972.48042  24507268.8384   24507269.1044
       854.0704
  -1783232.18747  -1382799.76242  24564633.5574   24564635.0574
      2470.6164
  14913283.23847  11596298.12543  23743099.2294   23743097.2214
     -4028.2324
  -1535964.12149  -1196585.99246  21670481.8854   21670480.4364
        -2.0784
 04  9 10 21 46 45.0020000  0  8G19G 3G 8G13G10G28G23G27
  -4603198.09448  -3582082.64544  23545145.5964   23545143.4944
       826.4514
   1118946.25448    872917.17642  23730559.5644   23730559.5924
     -1541.7954
  -6983756.17649  -5432405.52745  22379022.4864   22379022.0144
      1205.7434
   4636039.68849   3607584.12146  21284825.0494   21284823.3964
     -2115.5644
  -1212448.58646   -940861.30542  24504854.4474   24504854.4394
       846.0454
  -1820255.92247  -1411649.35942  24557587.4794   24557588.8544
      2468.2494
  14973758.14547  11643421.37543  23754607.1664   23754605.3774
     -4031.6604
  -1535899.82449  -1196535.89546  21670493.8384   21670492.4394
        -4.2864
 04  9 10 21 47  0.0020000  0  8G19G 3G 8G13G10G28G23G27
  -4615496.91447  -3591666.11744  23542804.7054   23542802.8544
       819.9214
   1142202.46948    891038.92643  23734984.8854   23734984.9674
     -1550.4144
  -7001809.34049  -5446472.91045  22375586.9794   22375586.1894
      1203.5444
   4667879.59049   3632394.41846  21290883.9864   21290882.0724
     -2122.6604
  -1225022.12547   -950658.87142  24502461.5724   24502461.5574
       838.2364
  -1857247.37547  -1440473.83242  24550548.6504   24550548.9394
      2466.0974
  15034280.85947  11690581.87143  23766123.9864   23766122.5184
     -4034.8484
  -1535805.91449  -1196462.71146  21670511.7604   21670510.0614
        -6.2614
 04  9 10 21 47 15.0020000  0  8G19G 3G 8G13G10G28G23G27
  -4627700.14848  -3601175.10944  23540482.9394   23540480.3264
       813.5494
   1165585.17648    909259.22743  23739434.0104   23739434.9364
     -1558.8474
  -7019832.18749  -5460516.66445  22372156.8694   22372156.5064
      1201.5234
   4699823.14549   3657285.48846  21296962.6664   21296960.9634
     -2129.5704
  -1237481.06646   -960367.11742  24500090.8074   24500090.2714
       830.5964
  -1894209.04347  -1469275.04742  24543515.2054   24543515.4754
      2464.1114
  15094848.45347  11737777.34443  23777649.5334   23777647.9044
     -4037.8404
  -1535685.05149  -1196368.53146  21670534.5884   21670533.1314
        -8.0584
 04  9 10 21 47 30.0030000  0  8G19G 3G 8G13G10G28G23G27
  -4639808.67648  -3610610.29744  23538178.6244   23538175.8434
       807.2354
   1189095.64547    927579.05943  23743908.7184   23743908.1474
     -1567.3654
  -7037826.09049  -5474537.87145  22368733.0934   22368732.4764
      1199.5934
   4731872.19949   3682258.77046  21303061.4374   21303059.9484
     -2136.6044
  -1249826.42247   -969986.83242  24497740.8664   24497741.2884
       823.0244
  -1931143.51247  -1498055.09442  24536486.4214   24536487.1594
      2462.2984
  15155464.45747  11785010.53143  23789184.4684   23789182.7414
     -4041.0674
  -1535537.47349  -1196253.52346  21670562.5624   21670561.2654
        -9.8394
 04  9 10 21 47 45.0030000  0  8G19G 3G 8G13G10G28G23G27
  -4651816.57847  -3619967.07444  23535893.2184   23535891.2104
       800.5274
   1212734.42247    945998.89543  23748406.2104   23748407.5584
     -1575.9184
  -7055784.78549  -5488531.63345  22365315.7334   22365315.2534
      1197.2464
   4764026.27049   3707313.88346  21309180.4214   21309178.5544
     -2143.6054
  -1262052.44146   -979513.58642  24495414.9684   24495415.2614
       815.0684
  -1968041.78947  -1526806.91842  24529465.4684   24529466.1904
      2459.8854
  15216124.33247  11832277.91843  23800727.6874   23800726.3234
     -4043.9924
  -1535359.38749  -1196114.75846  21670596.5544   21670595.2264
       -11.8724
 04  9 10 21 48  0.0030000  0  8G19G 3G 8G13G10G28G23G27
  -4663724.24248  -3629245.73444  23533626.9444   23533625.7534
       793.8444
   1236503.28147    964520.09443  23752929.5544   23752930.7964
     -1584.5914
  -7073709.37949  -5502498.84845  22361904.5854   22361903.9914
      1194.9734
   4796287.64549   3732452.60246  21315319.4134   21315317.7064
     -2150.7584
  -1274159.50846   -988947.63742  24493110.4374   24493110.9214
       807.1384
  -2004905.91447  -1555532.14142  24522450.0464   24522451.6284
      2457.6084
  15276832.31647  11879582.78943  23812280.0384   23812278.8314
     -4047.1994
  -1535150.44949  -1195951.94146  21670636.1404   21670634.9524
       -13.9294
 04  9 10 21 48 15.0030000  0  8G19G 3G 8G13G10G28G23G27
  -4675533.16048  -3638447.46544  23531380.2964   23531378.2804
       787.2614
   1260400.39847    983141.21143  23757477.1554   23757478.1284
     -1593.1414
  -7091601.34849  -5516440.61745  22358499.8124   22358499.2414
      1192.7984
   4828654.63749   3757673.62946  21321478.5224   21321476.6084
     -2157.7994
  -1286149.19946   -998290.24242  24490829.4294   24490828.9174
       799.3134
  -2041737.51647  -1584231.99242  24515440.9684   24515442.0894
      2455.4404
  15337586.46547  11926923.62543  23823840.8434   23823839.4914
     -4050.2774
  -1534912.45349  -1195766.48846  21670681.4134   21670680.5154
       -15.8664
 04  9 10 21 48 30.0030000  0  8G19G 3G 8G13G10G28G23G27
  -4687244.09848  -3647572.84044  23529151.6794   23529149.9254
       780.7294
   1284424.79348   1001861.52042  23762049.3274   23762049.2414
     -1601.6264
  -7109461.53149  -5530357.62145  22355100.9444   22355100.3044
      1190.6794
   4861126.17649   3782976.10946  21327657.6944   21327656.1474
     -2164.7694
  -1298022.31646  -1007542.00442  24488569.5464   24488569.9174
       791.5414
  -2078537.28547  -1612907.07442  24508437.9684   24508438.6674
      2453.3184
  15398385.54347  11974299.47343  23835410.9214   23835409.4134
     -4053.2724
  -1534646.21149  -1195559.02046  21670732.0774   21670730.8474
       -17.7494
 04  9 10 21 48 45.0030000  0  8G19G 3G 8G13G10G28G23G27
  -4698854.36348  -3656619.77044  23526942.5384   23526940.4094
       774.0184
   1308578.83648   1020682.85542  23766645.3904   23766646.0154
     -1610.2704
  -7127287.64549  -5544248.08645  22351708.8744   22351707.9484
      1188.4084
   4893704.75049   3808362.00046  21333857.1554   21333855.4014
     -2171.9054
  -1309776.18446  -1016700.84442  24486332.9134   24486333.4724
       783.5914
  -2115302.56648  -1641555.30542  24501442.5224   24501441.9334
      2451.0194
  15459231.82447  12021712.09443  23846989.5304   23846988.8824
     -4056.4194
  -1534349.25849  -1195327.62946  21670788.5304   21670787.5264
       -19.7974
 04  9 10 21 49  0.0030000  0  8G19G 3G 8G13G10G28G23G27
  -4710360.88748  -3665585.86344  23524752.4834   23524750.8434
       767.1024
   1332865.12547   1039607.24242  23771266.6404   23771267.0814
     -1619.0864
  -7145076.67249  -5558109.64545  22348324.0154   22348323.1084
      1185.9354
   4926393.06649   3833833.40246  21340077.6554   21340075.5074
     -2179.2214
  -1321407.78147  -1025764.40242  24484120.0224   24484120.2334
       775.4404
  -2152030.44148  -1670174.37542  24494453.0694   24494453.5654
      2448.5254
  15520127.91847  12069163.52743  23858577.6404   23858576.7964
     -4059.7404
  -1534018.75449  -1195070.09046  21670851.3664   21670850.5934
       -22.0344
 04  9 10 21 49 15.0030000  0  8G19G 3G 8G13G10G28G23G27
  -4721765.27348  -3674472.37144  23522582.2104   23522580.5304
       760.2924
   1357281.76648   1058633.21542  23775913.0624   23775913.6944
     -1627.7764
  -7162830.54349  -5571943.82445  22344945.4764   22344944.8864
      1183.5914
   4959189.11349   3859388.76646  21346318.3664   21346316.8784
     -2186.4034
  -1332918.94547  -1034734.12542  24481929.6164   24481930.0584
       767.4114
  -2188722.72747  -1698765.65642  24487470.5304   24487471.5194
      2446.1524
  15581071.74247  12116652.16843  23870175.3744   23870174.3544
     -4062.9224
  -1533656.67649  -1194787.94546  21670920.5934   21670919.4014
       -24.1394
 04  9 10 21 49 30.0030000  0  8G19G 3G 8G13G10G28G23G27
  -4733069.03147  -3683280.46144  23520431.4444   23520429.6164
       753.5844
   1381827.00047   1077759.36743  23780583.3194   23780584.0304
     -1636.3494
  -7180551.02049  -5585751.97745  22341573.0074   22341572.4724
      1181.3654
   4992091.18449   3885026.73046  21352579.5224   21352577.6944
     -2193.4714
  -1344311.16847  -1043611.16442  24479761.1944   24479760.9914
       759.4824
  -2225380.82447  -1727330.34042  24480494.6474   24480495.8584
      2443.8734
  15642061.31647  12164176.45343  23881780.7334   23881779.9684
     -4065.9724
  -1533264.66049  -1194482.47346  21670995.2884   21670994.1474
       -26.1344
 04  9 10 21 49 45.0030000  0  8G19G 3G 8G13G10G28G23G27
  -4744269.69147  -3692008.22744  23518300.3434   23518297.9564
       746.7114
   1406502.73047   1096987.21942  23785279.1084   23785279.6714
     -1645.0494
  -7198235.98049  -5599532.44145  22338208.2264   22338207.4404
      1178.9974
   5025101.25849   3910748.85246  21358861.0304   21358859.3974
     -2200.6724
  -1355582.37146  -1052393.90242  24477615.7184   24477616.9684
       751.4144
  -2262002.57848  -1755866.72742  24473526.2574   24473525.1364
      2441.4504
  15703098.41447  12211737.77743  23893396.6944   23893394.6204
     -4069.1404
  -1532840.60949  -1194152.03946  21671075.8044   21671074.4954
       -28.2704
 04  9 10 21 50  0.0030000  0  8G19G 3G 8G13G10G28G23G27
  -4755364.10548  -3700653.19144  23516188.9684   23516186.8084
       739.6284
   1431311.84448   1116318.99642  23790000.1474   23790000.6714
     -1653.9414
  -7215882.16449  -5613282.70745  22334850.1474   22334849.4484
      1176.4124
   5058222.39149   3936557.52046  21365163.8044   21365162.4134
     -2208.0764
  -1366729.37547  -1061079.86342  24475494.9834   24475496.2764
       743.1344
  -2298584.73847  -1784372.27042  24466564.6634   24466564.3864
      2438.8114
  15764185.84847  12259338.31343  23905021.0934   23905019.6044
     -4072.4964
  -1532381.59849  -1193794.36746  21671163.3354   21671161.8044
       -30.6014
 04  9 10 21 50 15.0030000  0  8G19G 3G 8G13G10G28G23G27
  -4766352.59448  -3709215.62944  23514097.6874   23514095.5194
       732.5664
   1456253.58648   1135754.12943  23794746.6084   23794746.7844
     -1662.7834
  -7233490.27349  -5627003.28545  22331499.4684   22331499.0264
      1173.8744
   5091453.64149   3962451.98446  21371487.3434   21371485.9404
     -2215.4174
  -1377752.51246  -1069669.30942  24473397.1794   24473398.3544
       734.8764
  -2335127.84447  -1812847.33642  24459609.8744   24459610.9724
      2436.2074
  15825322.70747  12306977.35243  23916654.4604   23916653.6594
     -4075.7914
  -1531888.16849  -1193409.86746  21671257.0464   21671255.5504
       -32.8954
 04  9 10 21 50 30.0030000  0  8G19G 3G 8G13G10G28G23G27
  -4777233.06248  -3717693.89544  23512027.1474   23512025.2764
       725.3654
   1481329.73848   1155293.98443  23799518.8044   23799519.2804
     -1671.7434
  -7251058.53949  -5640692.82445  22328156.1164   22328155.7064
      1171.2184
   5124796.76649   3988433.62546  21377832.8824   21377830.9214
     -2222.8754
  -1388650.00047  -1078160.82842  24471323.3194   24471324.1874
       726.4994
  -2371629.97747  -1841290.47742  24452664.3904   24452665.2144
      2433.4764
  15886510.73047  12354656.27343  23928298.2494   23928297.6984
     -4079.2024
  -1531358.51249  -1192997.14146  21671358.2334   21671356.6084
       -35.3104
 04  9 10 21 50 45.0030000  0  8G19G 3G 8G13G10G28G23G27
  -4788004.50448  -3726087.19544  23509977.0694   23509975.6514
       718.0964
   1506541.08248   1174939.18843  23804316.8744   23804317.1324
     -1680.7564
  -7268586.43449  -5654350.90645  22324820.1634   22324819.9334
      1168.5264
   5158252.68049   4014503.15646  21384199.0854   21384197.5584
     -2230.3944
  -1399420.68446  -1086553.55942  24469273.8434   24469274.7694
       718.0464
  -2408090.00447  -1869700.82842  24445725.5774   24445726.8434
      2430.6684
  15947750.43047  12402375.45743  23939952.4054   23939950.8744
     -4082.6474
  -1530791.70749  -1192555.47346  21671465.6404   21671464.6674
       -37.7874
 04  9 10 21 51  0.0030000  0  8G19G 3G 8G13G10G28G23G27
  -4798667.32847  -3734395.87544  23507948.5304   23507946.4764
       710.8554
   1531886.75048   1194689.07043  23809139.5384   23809140.0034
     -1689.7114
  -7286074.23449  -5667977.74645  22321492.6794   22321491.8274
      1165.8534
   5191820.55149   4040659.92246  21390586.9374   21390585.1444
     -2237.8584
  -1410065.09847  -1094847.88742  24467248.0304   24467249.4794
       709.6284
  -2444508.56247  -1898078.86742  24438795.6244   24438796.0694
      2427.9044
  16009040.85947  12450134.16843  23951615.5854   23951613.9994
     -4086.0294
  -1530188.54349  -1192085.46946  21671580.2334   21671579.0774
       -40.2114
 04  9 10 21 51 15.0030000  0  8G19G 3G 8G13G10G28G23G27
  -4809221.23447  -3742619.66044  23505940.1164   23505937.7104
       703.5944
   1557366.85547   1214543.70743  23813987.8434   23813988.0344
     -1698.6744
  -7303521.67249  -5681573.14545  22318172.7414   22318171.7924
      1163.1634
   5225500.34849   4066903.91046  21396995.7724   21396994.2184
     -2245.3204
  -1420583.07846  -1103043.71142  24465246.8824   24465247.3194
       701.1994
  -2480885.37147  -1926424.37942  24431873.2024   24431874.0264
      2425.1214
  16070382.13347  12497932.50443  23963288.4444   23963286.5504
     -4089.4184
  -1529548.76649  -1191586.93446  21671702.3974   21671701.1794
       -42.6524
 04  9 10 21 51 30.0030000  0  8G19G 3G 8G13G10G28G23G27
  -4819667.28547  -3750759.41844  23503951.8514   23503949.8744
       696.4034
   1582979.75847   1234501.82442  23818861.8514   23818861.8314
     -1707.5274
  -7320930.43749  -5695138.40645  22314860.1014   22314859.3194
      1160.5844
   5259290.67649   4093234.02746  21403426.2724   21403424.4914
     -2252.6894
  -1430975.85947  -1111141.95742  24463269.0774   24463269.5894
       692.8524
  -2517221.55148  -1954738.19942  24424958.6634   24424959.9684
      2422.4124
  16131772.36347  12545768.99643  23974970.7574   23974969.3154
     -4092.6824
  -1528873.93449  -1191061.08246  21671830.5694   21671829.0734
       -44.9894
 04  9 10 21 51 45.0030000  0  8G19G 3G 8G13G10G28G23G27
  -4830005.01248  -3758814.76644  23501984.8514   23501982.3624
       689.1824
   1608725.72747   1254563.62142  23823760.9684   23823761.6634
     -1716.3984
  -7338300.03549  -5708673.14545  22311554.4914   22311553.6084
      1157.9734
   5293191.86749   4119650.52046  21409877.4604   21409875.6944
     -2260.0794
  -1441242.97747  -1119142.30942  24461315.7654   24461315.5974
       684.4744
  -2553516.64147  -1983020.04742  24418051.9054   24418052.8394
      2419.6734
  16193211.71547  12593643.74243  23986662.0154   23986661.0034
     -4095.9574
  -1528163.63349  -1190507.59846  21671965.7574   21671964.5584
       -47.3534
 04  9 10 21 52  0.0030000  0  8G19G 3G 8G13G10G28G23G27
  -4840234.17648  -3766785.52044  23500038.2964   23500035.9954
       681.9444
   1634604.51647   1274728.90242  23828685.3974   23828685.6794
     -1725.2534
  -7355630.65249  -5722177.51245  22308256.3744   22308256.0814
      1155.3744
   5327203.79749   4146153.30946  21416349.6474   21416347.6944
     -2267.4624
  -1451384.25847  -1127044.57442  24459385.1084   24459385.1124
       676.0854
  -2589770.58647  -2011269.80142  24411153.0934   24411153.4094
      2416.9304
  16254699.93447  12641556.58643  23998362.7804   23998361.5934
     -4099.2154
  -1527417.82449  -1189926.44146  21672107.8044   21672106.4014
       -49.7214
 04  9 10 21 52 15.0030000  0  8G19G 3G 8G13G10G28G23G27
  -4850353.42248  -3774670.61744  23498112.4294   23498110.6324
       674.6164
   1660617.11348   1294998.48042  23833635.6944   23833635.5194
     -1734.1734
  -7372920.89849  -5735650.41845  22304966.6164   22304965.3354
      1152.6834
   5361327.30949   4172743.05146  21422843.0074   21422841.4684
     -2274.9014
  -1461398.64147  -1134847.98042  24457480.4374   24457480.4564
       667.6264
  -2625982.13747  -2039486.54342  24404262.1474   24404262.5734
      2414.1034
  16316237.90247  12689508.18843  24010072.6404   24010072.3234
     -4102.5314
  -1526635.55149  -1189316.87146  21672256.4524   21672255.0734
       -52.1524
 04  9 10 21 52 30.0030000  0  8G19G 3G 8G13G10G28G23G27
  -4860362.08647  -3782469.55144  23496207.5154   23496206.1284
       667.2444
   1686763.89547   1315372.60243  23838611.2414   23838611.6834
     -1743.1194
  -7390170.38349  -5749091.56245  22301684.0464   22301683.0624
      1149.9664
   5395562.82049   4199420.05946  21429357.7724   21429356.0624
     -2282.3674
  -1471285.43446  -1142551.96542  24455598.2574   24455599.7064
       659.1204
  -2662150.65648  -2067669.74242  24397380.0074   24397380.4914
      2411.2354
  16377825.88347  12737498.76243  24021792.8664   24021791.8124
     -4105.8654
  -1525816.19949  -1188678.41046  21672412.3274   21672410.9484
       -54.6234
 04  9 10 21 52 45.0030000  0  8G19G 3G 8G13G10G28G23G27
  -4870258.53147  -3790181.04744  23494324.6324   23494322.9294
       659.7634
   1713046.12547   1335852.26643  23843612.0544   23843613.2024
     -1752.1494
  -7407377.47349  -5762499.66845  22298409.4374   22298408.9644
      1147.1394
   5429911.67649   4226185.38346  21435894.3584   21435892.8544
     -2289.9244
  -1481043.16047  -1150155.35942  24453741.8744   24453742.2104
       650.5154
  -2698274.56248  -2095818.18742  24390505.1714   24390505.7334
      2408.2604
  16439465.03147  12785529.19943  24033522.5854   24033521.8704
     -4109.2774
  -1524958.38349  -1188009.98046  21672575.5854   21672574.4254
       -57.1884
 04  9 10 21 53  0.0030000  0  8G19G 3G 8G13G10G28G23G27
  -4880041.74248  -3797804.31644  23492463.5304   23492461.1324
       652.2144
   1739464.47348   1356438.00442  23848640.5774   23848640.7534
     -1761.2234
  -7424541.76649  -5775874.42645  22295143.3354   22295142.7694
      1144.2864
   5464374.59449   4253039.59846  21442452.6014   21442450.7654
     -2297.5284
  -1490670.84047  -1157657.44542  24451909.7804   24451909.7494
       641.8454
  -2734353.05148  -2123931.21542  24383640.0074   24383640.0344
      2405.2334
  16501155.81647  12833599.85943  24045262.0304   24045260.9294
     -4112.7194
  -1524061.40649  -1187311.02746  21672746.4914   21672744.9604
       -59.7984
 04  9 10 21 53 15.0030000  0  8G19G 3G 8G13G10G28G23G27
  -4889712.34448  -3805339.82444  23490622.5464   23490620.3744
       644.7074
   1766017.92247   1377129.00442  23853692.3354   23853693.1084
     -1770.2304
  -7441664.09849  -5789216.48445  22291885.2104   22291884.5344
      1141.4894
   5498950.62949   4279981.94946  21449031.8664   21449030.2294
     -2305.0694
  -1500169.27747  -1165058.80542  24450102.1714   24450102.3664
       633.2294
  -2770386.79747  -2152009.40642  24376782.6714   24376782.9874
      2402.2504
  16562897.16047  12881709.93843  24057011.2964   24057009.8784
     -4116.0904
  -1523126.09449  -1186582.20346  21672924.4994   21672923.0654
       -62.3544
 04  9 10 21 53 30.0030000  0  8G19G 3G 8G13G10G28G23G27
  -4899273.63348  -3812790.16444  23488803.6244   23488801.5074
       637.4194
   1792702.71947   1397922.34842  23858770.6404   23858771.1244
     -1778.9864
  -7458747.89149  -5802528.52345  22288634.1944   22288633.5464
      1138.9204
   5533636.08649   4307009.55946  21455632.0074   21455630.6634
     -2312.3644
  -1509541.88347  -1172362.12142  24448318.0154   24448319.2804
       624.8404
  -2806379.28547  -2180055.45342  24369933.8514   24369933.6164
      2399.4994
  16624685.34847  12929856.52343  24068769.3124   24068767.9994
     -4119.2124
  -1522155.93049  -1185826.23046  21673109.1084   21673107.6124
       -64.6784
 04  9 10 21 53 45.0030000  0  8G19G 3G 8G13G10G28G23G27
  -4908721.14548  -3820151.83644  23487005.7574   23487004.0154
       629.8344
   1819523.18047   1418821.41442  23863874.6714   23863874.8234
     -1788.0314
  -7475788.71949  -5815807.07845  22285391.3744   22285390.5584
      1136.0554
   5568435.25849   4334125.79346  21462254.2334   21462252.9374
     -2319.9454
  -1518784.14547  -1179563.85542  24446559.7104   24446560.2694
       616.1514
  -2842325.85247  -2208065.70342  24363093.2264   24363093.0344
      2396.4384
  16686524.37947  12978042.71543  24080536.7024   24080535.4794
     -4122.6024
  -1521146.64149  -1185039.76646  21673300.8124   21673299.6204
       -67.2864
 04  9 10 21 54  0.0030000  0  8G19G 3G 8G13G10G28G23G27
  -4918053.82447  -3827424.03944  23485229.4994   23485227.7924
       622.1794
   1846479.96947   1439826.71542  23869004.2024   23869003.7334
     -1797.1194
  -7492785.70349  -5829051.46945  22282157.0694   22282155.9014
      1133.1324
   5603348.84849   4361331.17246  21468898.1014   21468896.7574
     -2327.5734
  -1527895.30147  -1186663.44942  24444826.0694   24444826.7534
       607.4104
  -2878225.60248  -2236039.47742  24356261.5224   24356262.1634
      2393.3174
  16748414.74247  13026268.91443  24092313.7414   24092312.5154
     -4126.0244
  -1520097.41849  -1184222.19146  21673500.7574   21673499.3514
       -69.9484
 04  9 10 21 54 15.0030000  0  8G19G 3G 8G13G10G28G23G27
  -4927272.39148  -3834607.32044  23483475.5154   23483473.1834
       614.5714
   1873571.98047   1460937.37542  23874160.1794   23874159.6634
     -1806.1344
  -7509739.68749  -5842262.35245  22278930.7024   22278929.6324
      1130.2664
   5638375.68849   4388624.80546  21475563.7024   21475562.1634
     -2335.1234
  -1536876.04347  -1193661.41442  24443117.1634   24443117.5504
       598.7164
  -2914079.33648  -2263977.39142  24349438.9834   24349439.3194
      2390.2494
  16810355.29347  13074534.21542  24104101.0384   24104099.9524
     -4129.3704
  -1519009.24649  -1183374.25446  21673707.8434   21673706.3624
       -72.5454
 04  9 10 21 54 30.0030000  0  8G19G 3G 8G13G10G28G23G27
  -4936370.97748  -3841697.10244  23481743.8434   23481741.9874
       606.5724
   1900804.66047   1482157.66443  23879341.4994   23879342.1044
     -1815.5124
  -7526645.40249  -5855435.63345  22275713.4374   22275712.7264
      1127.0484
   5673521.42249   4416011.07846  21482251.8434   21482250.1084
     -2343.0494
  -1545720.67647  -1200553.33242  24441434.4444   24441434.2924
       589.6424
  -2949881.25048  -2291874.93442  24342626.1014   24342625.7024
      2386.7944
  16872351.59448  13122842.94543  24115898.5934   24115897.2024
     -4133.0874
  -1517876.49249  -1182491.58646  21673923.3974   21673922.2884
       -75.5174
 04  9 10 21 54 45.0030000  0  8G19G 3G 8G13G10G28G23G27
  -4945348.10947  -3848692.24644  23480035.3514   23480034.1874
       598.4764
   1928179.23047   1503488.51642  23884551.0544   23884551.6754
     -1824.9714
  -7543501.39849  -5868570.16445  22272506.1324   22272505.2264
      1123.7334
   5708787.29749   4443490.97746  21488962.6164   21488960.9564
     -2351.0584
  -1554427.75847  -1207338.03542  24439777.6874   24439777.7224
       580.4724
  -2985629.87547  -2319730.95742  24335822.9294   24335823.0544
      2383.2424
  16934404.60947  13171195.88342  24127706.8974   24127705.3154
     -4136.8684
  -1516697.69949  -1181573.04346  21674147.6554   21674146.2804
       -78.5864
 04  9 10 21 55  0.0030000  0  8G19G 3G 8G13G10G28G23G27
  -4954205.37147  -3855593.98044  23478349.7884   23478348.4054
       590.4844
   1955693.73447   1524928.37142  23889787.1014   23889787.1124
     -1834.3004
  -7560309.35549  -5881667.25445  22269307.3124   22269306.4564
      1120.5304
   5744171.27349   4471062.89546  21495695.7264   21495694.1754
     -2358.9324
  -1562998.96947  -1214016.89842  24438146.0854   24438146.0384
       571.4144
  -3021327.03547  -2347546.84442  24329029.3514   24329030.4014
      2379.8114
  16996512.14147  13219591.31343  24139525.6404   24139523.9724
     -4140.5024
  -1515474.74249  -1180620.08246  21674380.2654   21674379.1204
       -81.5304
 04  9 10 21 55 15.0030000  0  8G19G 3G 8G13G10G28G23G27
  -4962938.51647  -3862399.01244  23476688.2184   23476685.7654
       582.2104
   1983352.09047   1546480.35543  23895050.4914   23895050.0464
     -1843.8904
  -7577065.15249  -5894723.70345  22266118.8044   22266117.7144
      1117.0534
   5779677.45349   4498730.03946  21502452.3584   21502450.7614
     -2367.0794
  -1571430.21147  -1220586.68442  24436541.4524   24436542.0344
       562.0834
  -3056968.41048  -2375319.27742  24322247.8274   24322247.7764
      2376.0924
  17058678.06347  13268032.22343  24151355.8044   24151354.2334
     -4144.3954
  -1514203.63349  -1179629.60546  21674622.1084   21674621.1444
       -84.7414
 04  9 10 21 55 30.0030000  0  8G19G 3G 8G13G10G28G23G27
  -4971544.39848  -3869104.87944  23475050.3124   23475047.5504
       573.7264
   2011156.97347   1568146.50042  23900340.9134   23900341.4444
     -1853.6594
  -7593765.96949  -5907737.32445  22262940.8354   22262939.7534
      1113.3884
   5815308.32449   4526494.33246  21509232.9764   21509231.5034
     -2375.3914
  -1579718.49247  -1227045.08242  24434964.7724   24434965.0114
       552.5524
  -3092551.11348  -2403046.00442  24315476.5224   24315477.1014
      2372.1804
  17120904.98047  13316520.66443  24163197.1944   24163195.9564
     -4148.4614
  -1512881.46949  -1178599.34846  21674874.0854   21674872.8744
       -88.1444
 04  9 10 21 55 45.0030000  0  8G19G 3G 8G13G10G28G23G27
  -4980025.32447  -3875713.36344  23473436.8584   23473434.5224
       565.3954
   2039105.68847   1589924.72342  23905659.7574   23905659.4564
     -1863.2484
  -7610414.54749  -5920710.22345  22259772.6634   22259771.6284
      1109.9054
   5851061.40249   4554353.87146  21516036.4834   21516034.9054
     -2383.5394
  -1587866.25046  -1233393.94542  24433413.9374   24433414.6444
       543.1844
  -3128077.60947  -2430728.92242  24308715.8664   24308716.2104
      2368.4334
  17183190.17647  13365054.52743  24175049.7804   24175048.2534
     -4152.3464
  -1511510.75849  -1177531.25446  21675134.6164   21675133.4254
       -91.3814
 04  9 10 21 56  0.0030000  0  8G19G 3G 8G13G10G28G23G27
  -4988375.58247  -3882220.03544  23471847.2654   23471845.7804
       556.6844
   2067203.71548   1611819.32042  23911006.7184   23911006.7614
     -1873.2024
  -7627005.06649  -5933637.88745  22256615.6944   22256614.6244
      1106.0354
   5886942.23049   4582312.94146  21522863.9604   21522862.8864
     -2392.0554
  -1595867.72746  -1239628.87142  24431891.4764   24431890.8784
       533.4324
  -3163541.91448  -2458363.37142  24301967.2414   24301967.4604
      2364.2874
  17245539.03947  13413637.98842  24186913.8434   24186912.8864
     -4156.5914
  -1510085.90249  -1176420.96946  21675405.7724   21675404.2144
       -94.9904
 04  9 10 21 56 15.0030000  0  8G19G 3G 8G13G10G28G23G27
  -4996595.23048  -3888624.94144  23470283.4444   23470281.6514
       547.9774
   2095450.52747   1633829.82442  23916382.0224   23916381.7804
     -1883.1214
  -7643537.90249  -5946520.60545  22253469.5384   22253468.5974
      1102.1894
   5922950.29749   4610371.16046  21529716.3044   21529714.8864
     -2400.5384
  -1603723.10546  -1245749.90242  24430396.6324   24430396.5694
       523.6924
  -3198944.34048  -2485949.61343  24295230.1944   24295230.4014
      2360.1624
  17307950.83247  13462270.50043  24198790.3584   24198789.6164
     -4160.7864
  -1508607.27049  -1175268.78946  21675687.3584   21675685.9644
       -98.5764
 04  9 10 21 56 30.0030000  0  8G19G 3G 8G13G10G28G23G27
  -5004682.99648  -3894927.08244  23468744.1634   23468742.4054
       539.1844
   2123846.95347   1655956.90642  23921785.1474   23921786.4874
     -1893.0954
  -7660012.05149  -5959357.59845  22250334.6404   22250333.9564
      1098.2774
   5959086.57849   4638529.28946  21536592.7334   21536591.2294
     -2409.0854
  -1611431.26647  -1251756.26242  24428930.1084   24428929.6284
       513.8774
  -3234283.69548  -2513486.72342  24288505.3824   24288504.9914
      2355.9574
  17370426.50847  13510952.77343  24210679.2574   24210678.7724
     -4165.0454
  -1507073.73849  -1174073.82046  21675978.9914   21675978.0854
      -102.2354
 04  9 10 21 56 45.0030000  0  8G19G 3G 8G13G10G28G23G27
  -5012638.75047  -3901126.34844  23467230.4444   23467228.2964
       530.3844
   2152392.87548   1678200.49242  23927217.5304   23927217.6594
     -1903.0614
  -7676427.49249  -5972148.82845  22247210.7654   22247210.2804
      1094.3634
   5995350.96549   4666787.24246  21543493.6474   21543492.1044
     -2417.6264
  -1618992.07047  -1257647.77742  24427490.7024   24427490.9404
       504.0544
  -3269559.88348  -2540974.61742  24281792.7574   24281792.9214
      2351.7464
  17432965.80547  13559684.62543  24222580.3584   24222579.4294
     -4169.2864
  -1505485.29749  -1172836.07446  21676281.0624   21676279.7804
      -105.8964
 04  9 10 21 57  0.0030000  0  8G19G 3G 8G13G10G28G23G27
  -5020462.85948  -3907223.03544  23465741.2574   23465739.4724
       521.6074
   2181087.56647   1700559.98843  23932677.9374   23932677.9334
     -1912.9794
  -7692784.68749  -5984894.68445  22244098.3354   22244097.2454
      1090.4804
   6031742.67249   4695144.40646  21550418.8274   21550417.3704
     -2426.1144
  -1626406.11347  -1263424.96542  24426080.0074   24426080.6164
       494.2704
  -3304773.26248  -2568413.56242  24275092.0154   24275091.9404
      2347.5594
  17495567.74247  13608465.27742  24234493.0074   24234492.3544
     -4173.4624
  -1503842.64149  -1171556.07846  21676593.5694   21676592.7104
      -109.5104
 04  9 10 21 57 15.0030000  0  8G19G 3G 8G13G10G28G23G27
  -5028156.53547  -3913218.09044  23464277.9994   23464275.2374
       512.9124
   2209929.41047   1723034.17642  23938166.7804   23938166.7884
     -1922.7904
  -7709085.07049  -5997596.27045  22240996.4914   22240995.4644
      1086.6924
   6068260.13349   4723599.55946  21557367.6554   21557366.6124
     -2434.4974
  -1633674.84047  -1269088.87142  24424696.7024   24424697.0854
       484.5824
  -3339925.19148  -2595804.60942  24268402.2964   24268402.4054
      2343.4624
  17558230.70747  13657293.49643  24246417.6324   24246416.5344
     -4177.5314
  -1502147.24649  -1170234.99646  21676916.3904   21676915.1014
      -113.0264
 04  9 10 21 57 30.0030000  0  8G19G 3G 8G13G10G28G23G27
  -5035721.65248  -3919112.96544  23462837.9524   23462835.4794
       504.3414
   2238916.14547   1745621.21542  23943682.5304   23943682.8234
     -1932.4494
  -7725330.67249  -6010255.16845  22237904.7804   22237903.9484
      1083.0404
   6104901.31649   4752151.11746  21564340.5464   21564339.2844
     -2442.7464
  -1640800.03946  -1274640.95342  24423340.7104   24423341.3124
       475.0134
  -3375017.61748  -2623149.28142  24261724.5224   24261724.8974
      2339.4954
  17620952.33247  13706167.44143  24258352.8824   24258352.1124
     -4181.4424
  -1500401.13349  -1168874.37946  21677248.6634   21677247.5194
      -116.4084
 04  9 10 21 57 45.0030000  0  8G19G 3G 8G13G10G28G23G27
  -5043155.68447  -3924905.69544  23461423.1554   23461420.6674
       495.6024
   2268050.10247   1768323.02343  23949226.2184   23949227.5224
     -1942.2644
  -7741519.27049  -6022869.64145  22234824.1164   22234823.0734
      1079.2404
   6141668.33649   4780800.73046  21571337.1794   21571335.7764
     -2451.1354
  -1647779.22746  -1280079.28542  24422012.9374   24422013.2454
       465.2794
  -3410047.98048  -2650445.60542  24255058.5154   24255058.3544
      2335.3584
  17683734.90247  13755088.85543  24270300.2024   24270299.5894
     -4185.5054
  -1498601.71149  -1167472.23046  21677591.1944   21677589.6754
      -119.9614
 04  9 10 21 58  0.0030000  0  8G19G 3G 8G13G10G28G23G27
  -5050461.52747  -3930598.53544  23460033.1714   23460030.1474
       487.0564
   2297328.01647   1791136.98042  23954797.8584   23954797.9374
     -1951.8614
  -7757653.64149  -6035441.86345  22231753.9764   22231753.2614
      1075.6254
   6178558.05549   4809545.96546  21578356.5854   21578355.5344
     -2459.3154
  -1654615.57846  -1285406.27042  24420711.7654   24420712.8154
       455.7574
  -3445019.32448  -2677695.94142  24248403.6244   24248403.7294
      2331.4234
  17746574.91847  13804055.03143  24282258.3044   24282257.6404
     -4189.3344
  -1496752.28949  -1166031.11746  21677943.1324   21677941.7764
      -123.2954
 04  9 10 21 58 15.0030000  0  8G19G 3G 8G13G10G28G23G27
  -5057642.52048  -3936194.09044  23458666.5544   23458664.0734
       478.7334
   2326746.05547   1814060.12942  23960395.7334   23960396.1044
     -1961.2034
  -7773737.79349  -6047974.96545  22228693.0694   22228692.3124
      1072.2774
   6215566.83649   4838383.95746  21585399.4524   21585398.2764
     -2467.2524
  -1661312.44146  -1290624.58642  24419437.4684   24419437.6594
       446.4584
  -3479935.11347  -2704902.98842  24241759.5154   24241759.7264
      2327.7194
  17809468.56647  13853062.98842  24294227.1324   24294226.2494
     -4192.9104
  -1494856.39149  -1164553.78946  21678303.7104   21678302.4724
      -126.3934
 04  9 10 21 58 30.0030000  0  8G19G 3G 8G13G10G28G23G27
  -5064700.46548  -3941693.77044  23457323.2264   23457320.9014
       470.5304
   2356302.13347   1837090.83242  23966019.6404   23966020.7184
     -1970.4054
  -7789773.30949  -6060470.15245  22225641.5074   22225640.7024
      1069.0344
   6252692.57449   4867313.09446  21592464.3514   21592462.8314
     -2475.0494
  -1667871.63347  -1295735.65642  24418189.7724   24418188.9764
       437.2794
  -3514797.12547  -2732068.12543  24235124.7414   24235125.4484
      2324.1344
  17872413.81647  13902111.17642  24306204.9214   24306203.7454
     -4196.3504
  -1492915.87149  -1163041.69546  21678673.1084   21678671.7534
      -129.3684
 04  9 10 21 58 45.0030000  0  8G19G 3G 8G13G10G28G23G27
  -5071635.43048  -3947097.60944  23456003.5934   23456001.2494
       462.3314
   2385995.81647   1860228.77742  23971670.6554   23971670.4054
     -1979.5794
  -7805760.66049  -6072927.82045  22222599.3904   22222598.5114
      1065.8234
   6289934.64849   4896332.88346  21599551.0624   21599549.4134
     -2482.8054
  -1674293.60547  -1300739.75042  24416966.5464   24416967.1674
       428.1324
  -3549605.60548  -2759191.54742  24228501.4524   24228501.5034
      2320.5654
  17935409.85247  13951198.92643  24318192.4054   24318192.4254
     -4199.7364
  -1490931.25049  -1161495.23846  21679050.9834   21679049.2144
      -132.3084
 04  9 10 21 59  0.0030000  0  8G19G 3G 8G13G10G28G23G27
  -5078449.12548  -3952406.95744  23454707.0154   23454704.4484
       454.2464
   2415824.91446   1883472.23042  23977346.4214   23977346.9794
     -1988.6074
  -7821701.56649  -6085349.28545  22219565.7654   22219564.9054
      1062.7274
   6327291.15249   4925441.83246  21606659.7884   21606658.7224
     -2490.4344
  -1680580.00047  -1305638.23442  24415770.5304   24415770.7804
       419.0934
  -3584362.31648  -2786274.64142  24221887.1014   24221887.2224
      2317.1144
  17998454.43047  14000324.51642  24330189.7964   24330189.0034
     -4202.9724
  -1488904.26649  -1159915.76246  21679436.5464   21679434.9174
      -135.1324
 04  9 10 21 59 15.0030000  0  8G19G 3G 8G13G10G28G23G27
  -5085142.34047  -3957622.41444  23453432.7724   23453430.4214
       446.2144
   2445788.40646   1906820.40242  23983048.7884   23983049.3584
     -1997.5664
  -7837597.03149  -6097735.35245  22216541.1014   22216540.1944
      1059.6984
   6364761.05149   4954639.13746  21613790.4134   21613788.8274
     -2497.9934
  -1686731.77347  -1310431.79342  24414600.0154   24414600.5224
       410.1184
  -3619068.00048  -2813317.96942  24215283.1794   24215282.6364
      2313.7124
  18061546.59047  14049487.16442  24342195.8974   24342194.8904
     -4206.1444
  -1486835.98049  -1158304.10946  21679830.1874   21679828.9054
      -137.8864
 04  9 10 21 59 30.0030000  0  8G19G 3G 8G13G10G28G23G27
  -5091713.73448  -3962742.96544  23452182.8974   23452180.0894
       438.0934
   2475887.25847   1930274.03942  23988776.4524   23988777.1834
     -2006.5904
  -7853445.93449  -6110085.12545  22213525.2574   22213524.5544
      1056.5934
   6402345.25849   4983925.52746  21620942.1164   21620940.9914
     -2505.6144
  -1692747.70747  -1315119.51242  24413455.3044   24413455.8434
       401.0624
  -3653721.27348  -2840320.46543  24208688.9764   24208688.9374
      2310.2184
  18124687.14547  14098687.50042  24354211.2184   24354210.5974
     -4209.3704
  -1484725.09449  -1156659.26246  21680231.7884   21680229.8974
      -140.7264
 04  9 10 21 59 45.0030000  0  8G19G 3G 8G13G10G28G23G27
  -5098159.88347  -3967765.91044  23450956.0854   23450953.7264
       429.7434
   2506124.60248   1953835.61742  23994530.3584   23994531.3624
     -2015.8234
  -7869244.97749  -6122396.05146  22210519.0304   22210518.0264
      1053.2704
   6440046.98049   5013303.48046  21628116.5384   21628115.1594
     -2513.4484
  -1698624.39846  -1319698.76242  24412337.2104   24412337.7184
       391.7794
  -3688318.93448  -2867279.60942  24202104.6324   24202105.3354
      2306.5114
  18187879.12547  14147927.95742  24366235.7334   24366235.2614
     -4212.7994
  -1482568.41049  -1154978.72346  21680642.2104   21680640.7884
      -143.7794
 04  9 10 22  0  0.0030000  0  8G19G 3G 8G13G10G28G23G27
  -5104484.89847  -3972694.46144  23449752.0384   23449750.2144
       421.6684
   2536495.69147   1977501.39142  24000309.7264   24000309.9604
     -2024.7394
  -7884998.68049  -6134671.65646  22207521.2264   22207520.0694
      1050.2474
   6477861.71149   5042769.48846  21635312.5694   21635310.9794
     -2520.9824
  -1704366.23846  -1324172.90642  24411244.8354   24411245.0034
       382.7894
  -3722865.15248  -2894198.67242  24195531.1324   24195530.4564
      2303.0814
  18251117.84847  14197204.80142  24378269.8044   24378268.7844
     -4215.9154
  -1480370.34049  -1153265.94146  21681060.5624   21681059.3084
      -146.5384
 04  9 10 22  0 15.0030000  0  8G19G 3G 8G13G10G28G23G27
  -5110683.78947  -3977524.73844  23448572.8664   23448570.6324
       413.2594
   2567005.23847   2001275.05142  24006115.5694   24006115.5894
     -2033.9704
  -7900702.05949  -6146908.03545  22204532.5384   22204531.8314
      1046.8924
   6515794.16049   5072327.23046  21642530.7964   21642529.7184
     -2528.8304
  -1709968.16446  -1328538.03542  24410178.1164   24410178.8744
       373.4624
  -3757354.94547  -2921073.79343  24188967.3664   24188967.4334
      2299.3204
  18314407.88347  14246521.64142  24390313.7574   24390313.4874
     -4219.3364
  -1478126.02049  -1151517.12546  21681487.7184   21681486.1944
      -149.6214
 04  9 10 22  0 30.0030000  0  8G19G 3G 8G13G10G28G23G27
  -5116759.51648  -3982259.03144  23447415.9764   23447414.6834
       405.0484
   2597649.97347   2025154.05942  24011946.9214   24011947.4294
     -2042.9824
  -7916358.18449  -6159107.59845  22201553.6324   22201552.3234
      1043.7424
   6553841.04349   5101974.14546  21649771.1634   21649769.8864
     -2536.4594
  -1715433.24247  -1332796.52042  24409138.7414   24409139.0504
       364.3394
  -3791791.37547  -2947907.29742  24182414.8044   24182414.3624
      2295.7624
  18377745.87147  14295875.85242  24402366.5074   24402366.3544
     -4222.5334
  -1475838.52049  -1149734.64846  21681922.7494   21681921.2494
      -152.5004
 04  9 10 22  0 45.0030000  0  8G19G 3G 8G13G10G28G23G27
  -5122711.01648  -3986896.53944  23446283.7574   23446281.8974
       396.7674
   2628430.66447   2049139.00043  24017804.8194   24017804.8624
     -2052.0464
  -7931965.93749  -6171269.47745  22198583.4374   22198582.2534
      1040.5174
   6592003.27049   5131710.93446  21657033.2184   21657032.0934
     -2544.1484
  -1720760.61747  -1336947.70742  24408124.5774   24408125.2184
       355.1584
  -3826173.38748  -2974698.42642  24175871.8904   24175871.7024
      2292.1344
  18441132.43047  14345267.91442  24414428.7724   24414428.3664
     -4225.7714
  -1473506.91049  -1147917.80546  21682366.2264   21682365.2064
      -155.4414
 04  9 10 22  1  0.0030000  0  8G19G 3G 8G13G10G28G23G27
  -5128537.61347  -3991436.71144  23445175.6164   23445173.1474
       388.4404
   2659347.55147   2073230.09043  24023687.5224   24023688.3474
     -2061.1264
  -7947525.04349  -6183393.43045  22195622.4834   22195621.6834
      1037.2744
   6630281.08249   5161537.78146  21664317.0544   21664315.6014
     -2551.8544
  -1725949.57047  -1340991.02742  24407137.4834   24407138.0384
       345.9304
  -3860500.40648  -3001446.69542  24169340.0384   24169339.2374
      2288.4684
  18504567.87147  14394698.05942  24426500.4214   24426499.6244
     -4229.0294
  -1471130.78949  -1146066.27746  21682818.5694   21682817.3744
      -158.4084
 04  9 10 22  1 15.0030000  0  8G19G 3G 8G13G10G28G23G27
  -5134239.41848  -3995879.64844  23444090.0154   23444088.1834
       380.1204
   2690400.27747   2097427.00043  24029596.8354   24029597.1474
     -2070.1824
  -7963035.64849  -6195479.60545  22192670.9054   22192669.9484
      1034.0404
   6668673.95349   5191454.29746  21671622.9134   21671621.6044
     -2559.5254
  -1731000.48047  -1344926.80542  24406176.6404   24406176.1944
       336.7274
  -3894772.57447  -3028152.21943  24162817.9444   24162817.8514
      2284.8114
  18568051.56647  14444165.81342  24438580.5304   24438580.7184
     -4232.2464
  -1468710.30549  -1144180.18446  21683279.0934   21683277.6124
      -161.3664
 04  9 10 22  1 30.0030000  0  8G19G 3G 8G13G10G28G23G27
  -5139810.11348  -4000220.43044  23443030.2574   23443027.6714
       371.3804
   2721594.71147   2121734.35542  24035532.7884   24035533.3084
     -2079.6294
  -7978491.83249  -6207523.36746  22189729.6474   22189728.9444
      1030.4124
   6707187.80949   5221465.08246  21678951.6794   21678950.4684
     -2567.5904
  -1735907.09047  -1348750.10942  24405242.4994   24405242.8514
       327.1074
  -3928983.78148  -3054810.24642  24156307.3974   24156307.5264
      2280.7474
  18631589.35947  14493675.69942  24450671.2334   24450671.1514
     -4235.8534
  -1466239.48849  -1142254.86746  21683749.4294   21683748.0504
      -164.7214
 04  9 10 22  1 45.0030000  0  8G19G 3G 8G13G10G28G23G27
  -5145247.81648  -4004457.57444  23441995.0624   23441993.1514
       362.5144
   2752932.25447   2146153.21543  24041496.8274   24041496.0074
     -2089.1704
  -7993891.85949  -6219523.37546  22186799.3044   22186798.2334
      1026.6684
   6745824.38349   5251571.48446  21686304.2414   21686302.8664
     -2575.7724
  -1740667.69147  -1352459.67242  24404335.9914   24404336.9724
       317.3734
  -3963132.04747  -3081419.22343  24149808.7724   24149809.1014
      2276.5514
  18695182.78947  14543228.94542  24462773.0774   24462772.0734
     -4239.5624
  -1463716.66049  -1140289.02346  21684229.3974   21684228.1754
      -168.1894
 04  9 10 22  2  0.0030000  0  8G19G 3G 8G13G10G28G23G27
  -5150553.68048  -4008591.98044  23440985.6634   23440983.2374
       353.7244
   2784411.51247   2170682.50842  24047486.3194   24047486.7764
     -2098.6174
  -8009237.06249  -6231480.66045  22183879.2104   22183877.7414
      1023.0144
   6784582.22749   5281772.40246  21693679.7414   21693678.3124
     -2583.8564
  -1745283.39847  -1356056.30942  24403458.6794   24403458.1284
       307.7144
  -3997218.60548  -3107980.11343  24143322.9134   24143322.6084
      2272.4374
  18758830.18447  14592824.24243  24474884.9214   24474883.8944
     -4243.1604
  -1461142.97349  -1138283.55146  21684719.2334   21684718.1874
      -171.5794
 04  9 10 22  2 15.0030000  0  8G19G 3G 8G13G10G28G23G27
  -5155727.31648  -4012623.34844  23440001.2414   23439999.2264
       344.9094
   2816032.50047   2195322.23042  24053504.2104   24053504.0974
     -2108.0664
  -8024527.19949  -6243395.04745  22180969.3274   22180968.0584
      1019.3424
   6823461.48849   5312067.90646  21701077.9914   21701076.8004
     -2591.9514
  -1749753.95347  -1359539.85242  24402607.6324   24402607.0154
       298.0374
  -4031243.00448  -3134492.57442  24136848.6474   24136846.9334
      2268.2934
  18822531.60547  14642461.64842  24487007.0304   24487006.1044
     -4246.7614
  -1458518.32849  -1136238.36746  21685218.5774   21685217.3974
      -174.9764
 04  9 10 22  2 30.0030000  0  8G19G 3G 8G13G10G28G23G27
  -5160769.85948  -4016552.56644  23439041.4444   23439039.2964
       336.1704
   2847793.76247   2220071.27042  24059548.1404   24059547.9094
     -2117.4174
  -8039763.42649  -6255267.41846  22178070.2654   22178069.0504
      1015.7484
   6862460.64849   5342456.85546  21708499.3044   21708497.8784
     -2599.9444
  -1754080.61747  -1362911.26242  24401784.0154   24401784.4404
       288.4444
  -4065206.38348  -3160957.51643  24130385.8434   24130385.0464
      2264.2254
  18886285.41047  14692139.86742  24499139.2494   24499138.0264
     -4250.2544
  -1455843.91049  -1134154.39846  21685727.8124   21685726.3354
      -178.2954
 04  9 10 22  2 45.0030000  0  8G19G 3G 8G13G10G28G23G27
  -5165681.48848  -4020379.78144  23438106.8274   23438104.5304
       327.4424
   2879694.74247   2244929.18443  24065618.8904   24065618.6984
     -2126.7324
  -8054945.93449  -6267097.92646  22175181.1554   22175180.3474
      1012.1674
   6901579.25449   5372938.87946  21715943.5384   21715941.9914
     -2607.9074
  -1758263.64147  -1366170.74242  24400988.0464   24400988.0974
       278.8684
  -4099109.07448  -3187375.14843  24123933.5224   24123933.0734
      2260.1794
  18950091.04747  14741858.47342  24511280.5384   24511279.6514
     -4253.7094
  -1453120.13349  -1132031.98046  21686246.0694   21686244.5464
      -181.5854
 04  9 10 22  3  0.0030000  0  8G19G 3G 8G13G10G28G23G27
  -5170463.69947  -4024106.14844  23437196.5774   23437194.2064
       318.8144
   2911733.44547   2269894.36743  24071715.5074   24071715.7414
     -2135.9144
  -8070076.57449  -6278888.02746  22172301.5774   22172300.9914
      1008.7094
   6940815.31349   5403512.41446  21723409.8274   21723408.5934
     -2615.7374
  -1762304.81247  -1369319.70342  24400219.2654   24400219.1944
       269.4114
  -4132952.80547  -3213746.81643  24117493.4134   24117493.1634
      2256.2494
  19013946.41847  14791615.83242  24523432.4524   24523430.9684
     -4257.0254
  -1450348.64149  -1129872.37146  21686773.4054   21686771.7454
      -184.7664
 04  9 10 22  3 15.0030000  0  8G19G 3G 8G13G10G28G23G27
  -5175116.70348  -4027731.82844  23436311.1874   23436309.2144
       310.2004
   2943909.35246   2294966.52042  24077838.1554   24077838.3274
     -2145.0604
  -8085155.62949  -6290637.91846  22169432.1714   22169431.3864
      1005.2704
   6980168.43049   5434177.17646  21730898.2494   21730897.1164
     -2623.5414
  -1766204.32047  -1372358.27042  24399477.2334   24399476.5264
       259.9674
  -4166737.68747  -3240072.64143  24111063.8044   24111064.1044
      2252.3264
  19077851.00447  14841411.55143  24535593.2574   24535592.0264
     -4260.3064
  -1447529.81649  -1127675.88346  21687309.6944   21687308.4994
      -187.9224
 04  9 10 22  3 30.0030000  0  8G19G 3G 8G13G10G28G23G27
  -5179642.17648  -4031258.13744  23435450.0854   23435448.3824
       301.6984
   2976220.45747   2320144.02042  24083986.1014   24083986.6874
     -2154.0744
  -8100185.02049  -6302349.12146  22166571.8044   22166571.2924
      1001.9594
   7019636.65249   5464931.62946  21738408.9374   21738407.6284
     -2631.2154
  -1769963.96947  -1375287.82842  24398761.5774   24398761.2964
       250.6434
  -4200465.51248  -3266354.00043  24104646.0224   24104645.6444
      2248.5224
  19141802.69947  14891243.94942  24547762.2654   24547762.5544
     -4263.4464
  -1444665.48849  -1125443.93446  21687854.8354   21687853.2924
      -190.9554
 04  9 10 22  3 45.0030000  0  8G19G 3G 8G13G10G28G23G27
  -5184036.99648  -4034682.64844  23434613.6944   23434611.9254
       292.9884
   3008669.52046   2345428.96942  24090161.5154   24090162.0774
     -2163.2714
  -8115161.73449  -6314019.27745  22163722.0464   22163721.4444
       998.4484
   7059222.72349   5495777.90646  21745942.2024   21745940.6364
     -2639.0714
  -1773580.76247  -1378106.10542  24398073.1874   24398073.7334
       241.1204
  -4234133.03148  -3292588.39143  24098239.4444   24098239.0504
      2244.5014
  19205804.05947  14941115.05942  24559941.7574   24559941.2064
     -4266.7574
  -1441752.73449  -1123174.25046  21688409.1714   21688407.6124
      -194.1844
 04  9 10 22  4  0.0030000  0  8G19G 3G 8G13G10G28G23G27
  -5188303.99648  -4038007.55544  23433801.7804   23433799.4874
       284.4674
   3041253.25047   2370818.90243  24096362.1714   24096363.1514
     -2172.2494
  -8130088.55149  -6325650.53945  22160881.9294   22160880.8664
       995.1214
   7098923.51649   5526713.57846  21753496.8664   21753495.3744
     -2646.7204
  -1777057.69547  -1380815.39542  24397411.6244   24397411.7614
       231.7964
  -4267743.28548  -3318778.13342  24091843.1084   24091842.9174
      2240.6844
  19269851.87947  14991022.38342  24572129.6474   24572129.2494
     -4269.8554
  -1438794.41449  -1120869.06246  21688972.0464   21688970.5504
      -197.2214
 04  9 10 22  4 15.0030000  0  8G19G 3G 8G13G10G28G23G27
  -5192440.60247  -4041230.84444  23433014.5304   23433012.7724
       275.7744
   3073973.93047   2396315.52043  24102589.1244   24102589.5814
     -2181.3794
  -8144963.34849  -6337241.27745  22158051.1874   22158050.1874
       991.6534
   7138741.27049   5557740.38746  21761073.9994   21761072.7884
     -2654.5174
  -1780392.27047  -1383413.76242  24396776.9214   24396777.2264
       222.3054
  -4301293.70347  -3344921.26243  24085458.9994   24085458.3784
      2236.6954
  19333948.34847  15040967.60243  24584327.2884   24584326.9874
     -4273.0984
  -1435788.39549  -1118526.69946  21689544.0154   21689542.7844
      -200.4014
 04  9 10 22  4 30.0030000  0  8G19G 3G 8G13G10G28G23G27
  -5196448.64148  -4044353.96544  23432251.9294   23432249.6404
       267.2034
   3106829.40247   2421917.19142  24108841.2884   24108841.0424
     -2190.3654
  -8159788.09849  -6348793.02045  22155229.8744   22155228.8584
       988.3174
   7178673.84049   5588856.66846  21768672.8194   21768671.5464
     -2662.1714
  -1783586.41447  -1385902.68042  24396169.3354   24396169.6554
       212.9434
  -4334786.07847  -3371019.16843  24079085.6634   24079085.4334
      2232.8254
  19398091.19147  15090948.96942  24596532.7884   24596532.9604
     -4276.1904
  -1432736.34449  -1116148.48046  21690124.8744   21690123.4214
      -203.4704
 04  9 10 22  4 45.0030000  0  8G19G 3G 8G13G10G28G23G27
  -5200326.89148  -4047375.94944  23431514.3974   23431511.7144
       258.5504
   3139820.59047   2447624.61743  24115118.7654   24115119.5424
     -2199.4124
  -8174561.43449  -6360304.70345  22152418.6634   22152417.6164
       984.8894
   7218722.16049   5620063.13746  21776293.8514   21776292.3154
     -2669.8884
  -1786638.87947  -1388281.21142  24395588.2104   24395588.5814
       203.4984
  -4368219.23848  -3397070.93043  24072723.4604   24072722.5074
      2228.8774
  19462281.25047  15140967.13743  24608748.0154   24608748.1404
     -4279.3374
  -1429637.33249  -1113733.66046  21690714.4604   21690713.0654
      -206.6014
 04  9 10 22  5  0.0030000  0  8G19G 3G 8G13G10G28G23G27
  -5204071.55548  -4050293.83644  23430801.8434   23430799.2414
       249.6444
   3172950.80547   2473440.36742  24121422.6944   24121423.6044
     -2208.6814
  -8189280.05549  -6371773.74246  22149618.1634   22149616.6904
       981.2414
   7258889.60249   5651362.42646  21783937.4374   21783935.9684
     -2677.8294
  -1789546.16447  -1390546.63342  24395035.3514   24395035.1984
       193.8194
  -4401589.50048  -3423073.69143  24066372.7724   24066372.7184
      2224.6844
  19526521.95747  15191024.73442  24620973.5694   24620972.7064
     -4282.7144
  -1426487.62149  -1111279.33646  21691313.7654   21691312.6014
      -209.9814
 04  9 10 22  5 15.0030000  0  8G19G 3G 8G13G10G28G23G27
  -5207683.73048  -4053108.49644  23430114.3194   23430112.0814
       240.8124
   3206218.62947   2499363.34842  24127754.2024   24127753.9254
     -2217.8554
  -8203945.04349  -6383200.99245  22146827.1874   22146826.3944
       977.6664
   7299175.04749   5682753.67646  21791603.4914   21791601.8514
     -2685.6964
  -1792309.34047  -1392699.74242  24394509.2964   24394509.4374
       184.2124
  -4434897.99247  -3449028.30142  24060034.6014   24060034.7694
      2220.5664
  19590811.72347  15241120.58642  24633206.5304   24633206.2574
     -4285.9844
  -1423288.44149  -1108786.46946  21691922.6324   21691921.4214
      -213.2794
 04  9 10 22  5 30.0030000  0  8G19G 3G 8G13G10G28G23G27
  -5211163.44548  -4055819.91844  23429451.4834   23429449.6364
       231.9814
   3239623.79347   2525393.34442  24134110.4684   24134111.0194
     -2227.0114
  -8218556.47749  -6394586.51645  22144046.5774   22144045.8544
       974.0964
   7339578.19549   5714236.63746  21799291.9604   21799290.4644
     -2693.5434
  -1794928.60247  -1394740.70342  24394010.7494   24394011.3904
       174.6174
  -4468144.71547  -3474934.78543  24053708.4214   24053707.4524
      2216.4484
  19655150.20347  15291254.39142  24645449.3974   24645449.6014
     -4289.2324
  -1420040.00449  -1106255.21146  21692540.8514   21692539.9874
      -216.5624
 04  9 10 22  5 45.0030000  0  8G19G 3G 8G13G10G28G23G27
  -5214510.03948  -4058427.64144  23428814.7884   23428812.7374
       223.1064
   3273166.50847   2551530.50843  24140493.6084   24140494.8704
     -2236.1814
  -8233113.94549  -6405929.98446  22141276.4444   22141275.5074
       970.4984
   7380099.19549   5745811.43446  21807002.6404   21807001.2374
     -2701.4004
  -1797403.43047  -1396669.13342  24393539.2884   24393540.0154
       164.9894
  -4501329.06248  -3500792.67243  24047393.1944   24047392.8004
      2212.2904
  19719537.45347  15341426.18442  24657702.5464   24657701.8584
     -4292.4834
  -1416741.80949  -1103685.18446  21693168.6714   21693167.4994
      -219.8804
 04  9 10 22  6  0.0030000  0  8G19G 3G 8G13G10G28G23G27
  -5217726.77748  -4060934.15644  23428202.6244   23428200.3974
       214.4494
   3306843.04747   2577771.96143  24146903.0154   24146902.9764
     -2245.1034
  -8247620.91449  -6417234.10546  22138515.9914   22138514.6754
       967.1314
   7420734.35249   5777475.17646  21814735.3124   21814734.1014
     -2709.0104
  -1799737.24647  -1398487.67242  24393095.7494   24393096.2294
       155.5884
  -4534454.36747  -3526604.54343  24041090.2334   24041089.0194
      2208.3544
  19783969.78547  15391633.10242  24669963.5854   24669963.4994
     -4295.4894
  -1413397.41049  -1101079.15246  21693804.6014   21693803.5814
      -222.9604
 04  9 10 22  6 15.0030000  0  8G19G 3G 8G13G10G28G23G27
  -5220810.71948  -4063337.21544  23427616.1014   23427613.1284
       205.5964
   3340655.84047   2604119.60942  24153336.3124   24153336.9334
     -2254.1864
  -8262074.53949  -6428496.65646  22135765.8904   22135764.7884
       963.5754
   7461486.39549   5809230.00046  21822490.4604   21822488.8474
     -2716.8034
  -1801927.20747  -1400194.12942  24392678.6014   24392679.3704
       145.9974
  -4567517.91848  -3552368.32043  24034797.8514   24034797.0544
      2204.2374
  19848449.73447  15441877.12943  24682234.1084   24682234.0154
     -4298.6634
  -1410003.94549  -1098434.89146  21694450.7964   21694449.3624
      -226.2314
 04  9 10 22  6 30.0030000  0  8G19G 3G 8G13G10G28G23G27
  -5223762.95748  -4065637.63344  23427054.1324   23427051.0194
       196.8164
   3374603.73447   2630572.51642  24159796.8434   24159797.5304
     -2263.1934
  -8276475.69549  -6439718.32446  22133025.5464   22133024.2334
       960.0774
   7502354.07849   5841074.93846  21830267.4054   21830265.9914
     -2724.5124
  -1803974.33646  -1401789.29342  24392289.1944   24392290.0624
       136.4754
  -4600520.62947  -3578084.66842  24028517.2494   24028517.2454
      2200.1814
  19912975.91047  15492157.19542  24694512.4994   24694512.3084
     -4301.7454
  -1406562.43049  -1095753.18746  21695105.3904   21695104.3194
      -229.4344
 04  9 10 22  6 45.0030000  0  8G19G 3G 8G13G10G28G23G27
  -5226582.78148  -4067834.88344  23426517.8124   23426514.8474
       187.9884
   3408687.04747   2657130.93042  24166282.6014   24166283.3194
     -2272.2214
  -8290824.08649  -6450898.87146  22130294.8514   22130294.1404
       956.5594
   7543337.73049   5873010.23846  21838066.2024   21838064.6514
     -2732.2434
  -1805878.02046  -1403272.65642  24391927.0624   24391927.6754
       126.9124
  -4633461.87547  -3603753.11343  24022248.8974   24022248.5934
      2196.0834
  19977548.60947  15542473.50842  24706801.1164   24706799.6244
     -4304.8474
  -1403072.39149  -1093033.66846  21695769.3744   21695768.1124
      -232.6694
 04  9 10 22  7  0.0030000  0  8G19G 3G 8G13G10G28G23G27
  -5229270.62948  -4069929.28544  23426005.8904   23426004.0344
       179.1904
   3442904.85947   2683794.18442  24172793.7804   24172793.7064
     -2281.1874
  -8305120.35949  -6462038.81245  22127574.1944   22127573.0264
       953.0854
   7584436.53949   5905035.27046  21845887.1084   21845885.6514
     -2739.9214
  -1807639.02347  -1404644.85942  24391592.0304   24391592.4794
       117.4004
  -4666342.01647  -3629373.94943  24015991.8124   24015992.1634
      2192.0094
  20042166.80547  15592825.27342  24719097.1084   24719096.1554
     -4307.8804
  -1399534.53949  -1090276.89546  21696442.8974   21696441.8124
      -235.8574
 04  9 10 22  7 15.0030000  0  8G19G 3G 8G13G10G28G23G27
  -5231828.04748  -4071922.04344  23425519.1404   23425517.5814
       170.4954
   3477255.29347   2710560.75842  24179330.3824   24179329.8584
     -2290.0294
  -8319366.23049  -6473139.47346  22124863.2184   22124862.2024
       949.7254
   7625648.43049   5937148.43046  21853729.4834   21853727.8824
     -2747.4594
  -1809258.93447  -1405907.09842  24391284.0384   24391284.2694
       107.9944
  -4699162.75047  -3654948.51243  24009745.9914   24009745.9834
      2188.0494
  20106828.72747  15643211.10542  24731402.5384   24731401.4684
     -4310.7954
  -1395950.44549  -1087484.09046  21697124.6244   21697123.5424
      -238.9404
 04  9 10 22  7 30.0030000  0  8G19G 3G 8G13G10G28G23G27
  -5234257.01648  -4073814.72744  23425056.9834   23425054.4174
       161.9314
   3511735.98847   2737428.83642  24185892.4294   24185892.4484
     -2298.7134
  -8333563.64849  -6484202.38346  22122161.6794   22122160.5894
       946.4954
   7666971.34449   5969348.08246  21861592.7184   21861591.4914
     -2754.8614
  -1810739.82447  -1407061.03142  24391001.4604   24391002.1874
        98.7264
  -4731926.09447  -3680478.34043  24003511.7184   24003511.3784
      2184.2234
  20171531.85547  15693629.04742  24743714.9994   24743713.8004
     -4313.5424
  -1392322.25049  -1084656.92246  21697815.2264   21697813.9334
      -241.8804
 04  9 10 22  7 45.0030000  0  8G19G 3G 8G13G10G28G23G27
  -5236557.34848  -4075607.18044  23424619.4294   23424616.3974
       153.3554
   3546346.71547   2764398.22342  24192477.6474   24192478.1794
     -2307.3824
  -8347712.66849  -6495227.58646  22119468.9374   22119468.2764
       943.2684
   7708405.13749   6001634.14146  21869477.8124   21869475.9094
     -2762.2534
  -1812081.72747  -1408106.66442  24390746.2884   24390747.2264
        89.4604
  -4764631.90247  -3705963.33243  23997287.8974   23997287.8274
      2180.3874
  20236276.00047  15744078.94942  24756035.3744   24756034.7724
     -4316.2764
  -1388650.09449  -1081795.49246  21698514.2334   21698512.7614
      -244.8104
 04  9 10 22  8  0.0030000  0  8G19G 3G 8G13G10G28G23G27
  -5238728.93448  -4077299.30544  23424205.9374   23424203.9334
       144.7724
   3581087.26247   2791468.78142  24199089.3194   24199089.2224
     -2316.0364
  -8361813.15649  -6506214.96946  22116785.9604   22116785.0384
       940.0334
   7749949.66449   6034006.49246  21877383.2964   21877381.8624
     -2769.6354
  -1813284.63347  -1409043.98442  24390518.0854   24390518.0654
        80.1944
  -4797280.14548  -3731403.48443  23991075.1244   23991074.1244
      2176.5494
  20301060.78947  15794560.52742  24768363.1634   24768363.1284
     -4318.9864
  -1384933.72749  -1078899.62146  21699221.4054   21699220.1714
      -247.7584
 04  9 10 22  8 15.0030000  0  8G19G 3G 8G13G10G28G23G27
  -5240770.60248  -4078890.18444  23423817.2964   23423815.3864
       136.1114
   3615958.52347   2818641.19142  24205724.9914   24205725.3394
     -2324.7514
  -8375864.14549  -6517163.77346  22114112.1944   22114111.0894
       936.7334
   7791605.84449   6066465.84046  21885310.1014   21885309.0304
     -2777.0794
  -1814347.31647  -1409872.02342  24390315.6554   24390315.7654
        70.8464
  -4829869.51247  -3756797.76243  23984873.3354   23984873.2844
      2172.6244
  20365887.12947  15845074.46142  24780699.3434   24780699.0034
     -4321.7564
  -1381172.10549  -1075968.47746  21699937.1164   21699935.8974
      -250.7754
 04  9 10 22  8 30.0030000  0  8G19G 3G 8G13G10G28G23G27
  -5242681.43748  -4080379.13344  23423453.8124   23423451.0584
       127.3894
   3650961.02347   2845915.85542  24212385.2884   24212385.8664
     -2333.5004
  -8389864.76249  -6528073.32846  22111447.5854   22111446.9174
       933.3744
   7833374.21149   6099012.60946  21893258.5694   21893256.8784
     -2784.5584
  -1815269.13747  -1410590.31242  24390139.8274   24390140.1714
        61.4554
  -4862399.23847  -3782145.53943  23978682.8744   23978683.6084
      2168.6484
  20430755.29347  15895621.00442  24793042.6164   24793043.2024
     -4324.5444
  -1377364.59849  -1073001.59046  21700661.6474   21700660.3084
      -253.8344
 04  9 10 22  8 45.0030000  0  8G19G 3G 8G13G10G28G23G27
  -5244461.33648  -4081766.04344  23423115.1794   23423112.3944
       118.6604
   3686094.48047   2873292.56342  24219070.9914   24219070.9724
     -2342.2304
  -8403814.98049  -6538943.62546  22108793.1634   22108792.5344
       930.0154
   7875254.56649   6131646.63746  21901227.9054   21901226.4484
     -2792.0244
  -1816050.07447  -1411198.81242  24389991.7804   24389991.3434
        52.0634
  -4894869.30947  -3807446.84843  23972504.5854   23972504.1244
      2164.6714
  20495665.21947  15946200.07842  24805395.6014   24805395.0154
     -4327.3284
  -1373511.05949  -1069998.82046  21701395.0694   21701393.5624
      -256.9034
 04  9 10 22  9  0.0030000  0  8G19G 3G 8G13G10G28G23G27
  -5246108.76248  -4083049.73044  23422801.7334   23422798.9914
       109.8284
   3721359.90648   2900772.12142  24225781.9214   24225780.8434
     -2351.0284
  -8417713.35549  -6549773.51246  22106148.2884   22106147.3154
       926.5584
   7917248.09049   6164368.85246  21909219.0854   21909217.5774
     -2799.5684
  -1816688.70347  -1411696.44942  24389869.4914   24389869.7414
        42.5754
  -4927278.18047  -3832700.47743  23966336.8824   23966337.2224
      2160.5914
  20560617.89547  15996812.45742  24817755.0854   24817755.1834
     -4330.1784
  -1369610.25449  -1066959.23046  21702137.2654   21702135.7724
      -260.0544
 04  9 10 22  9 15.0030000  0  8G19G 3G 8G13G10G28G23G27
  -5247621.72348  -4084228.63744  23422513.6404   23422511.4484
       100.8644
   3756759.02747   2928355.85942  24232517.9914   24232518.1014
     -2359.9414
  -8431558.06649  -6560561.57446  22103513.6404   22103513.2024
       922.9814
   7959356.62149   6197180.68046  21917232.1944   21917230.8544
     -2807.2354
  -1817183.11747  -1412081.67242  24389775.8044   24389776.2534
        32.9614
  -4959623.79347  -3857904.80543  23960182.1324   23960181.5424
      2156.3744
  20625614.84447  16047459.34842  24830124.4764   24830123.9914
     -4333.1304
  -1365660.21549  -1063881.28146  21702888.8824   21702887.3234
      -263.3364
 04  9 10 22  9 30.0030000  0  8G19G 3G 8G13G10G28G23G27
  -5249000.93048  -4085303.31244  23422251.0934   23422248.7884
        91.9474
   3792290.91847   2956043.06342  24239280.1324   24239279.1244
     -2368.7934
  -8445350.03949  -6571308.55946  22100889.1554   22100888.5584
       919.4654
   8001579.03949   6230081.24646  21925266.5464   21925265.3234
     -2814.8284
  -1817534.07847  -1412355.14142  24389708.6324   24389709.0504
        23.3974
  -4991906.88747  -3883060.42243  23954038.6874   23954038.6124
      2152.2064
  20690655.12147  16098140.01242  24842501.1324   24842501.1634
     -4336.0184
  -1361661.74649  -1060765.58646  21703649.8744   21703648.3544
      -266.5654
 04  9 10 22  9 45.0030000  0  8G19G 3G 8G13G10G28G23G27
  -5250246.79748  -4086274.10544  23422013.9764   23422011.6204
        83.0584
   3827954.57047   2983832.93042  24246066.0224   24246065.6514
     -2377.5774
  -8459089.83649  -6582014.88346  22098274.5694   22098273.6794
       915.9864
   8043914.47749   6263069.89146  21933322.9294   21933321.3824
     -2822.3624
  -1817742.27347  -1412517.36342  24389669.2724   24389669.8474
        13.8804
  -5024127.93048  -3908167.68443  23947907.7334   23947906.8784
      2148.0704
  20755737.80147  16148853.69542  24854885.0074   24854886.0774
     -4338.8454
  -1357615.43749  -1057612.61346  21704419.8584   21704418.0694
      -269.7544
 04  9 10 22 10  0.0030000  0  8G19G 3G 8G13G10G28G23G27
  -5251363.10548  -4087143.92244  23421801.4444   23421799.2804
        74.4214
   3863745.94547   3011722.29742  24252877.1164   24252877.8514
     -2386.0924
  -8472781.33249  -6592683.57446  22095669.3514   22095668.2844
       912.7664
   8086358.99249   6296143.53146  21941399.8044   21941397.9014
     -2829.6344
  -1817811.50847  -1412571.30542  24389655.9054   24389656.6084
         4.6164
  -5056290.71547  -3933229.53943  23941786.4764   23941786.3974
      2144.1864
  20820858.71146  16199597.19142  24867277.5384   24867278.3624
     -4341.3944
  -1353525.19549  -1054425.40246  21705198.0464   21705196.8124
      -272.6834
 04  9 10 22 10 15.0030000  0  8G19G 3G 8G13G10G28G23G27
  -5252350.49248  -4087913.29744  23421613.7494   23421611.2804
        65.8264
   3899664.20347   3039710.53942  24259711.9684   24259712.6834
     -2394.5514
  -8486425.18749  -6603315.13345  22093073.0154   22093072.0624
       909.5904
   8128911.82449   6329301.56646  21949497.2334   21949496.3824
     -2836.8554
  -1817742.47747  -1412517.50442  24389669.4054   24389669.7104
        -4.6024
  -5088395.90647  -3958246.53143  23935677.4374   23935676.7224
      2140.3464
  20886016.87546  16250369.68042  24879676.2654   24879677.6124
     -4343.8784
  -1349391.65649  -1051204.45746  21705984.3974   21705983.2654
      -275.5694
 04  9 10 22 10 30.0030000  0  8G19G 3G 8G13G10G28G23G27
  -5253208.05948  -4088581.50444  23421450.3514   23421448.0114
        57.1714
   3935709.68847   3067797.93442  24266571.3904   24266571.8004
     -2403.0324
  -8500020.57049  -6613908.92646  22090485.6084   22090484.8234
       906.3594
   8171573.28149   6362544.25046  21957615.5774   21957614.1594
     -2844.0974
  -1817534.44547  -1412355.39842  24389709.3124   24389709.3944
       -13.8694
  -5120442.68748  -3983218.00043  23929579.2494   23929578.7294
      2136.4524
  20951212.75046  16301171.56642  24892083.9054   24892084.1674
     -4346.3924
  -1345214.16449  -1047949.26646  21706779.7654   21706778.3944
      -278.4994
 04  9 10 22 10 45.0030000  0  8G19G 3G 8G13G10G28G23G27
  -5253936.05148  -4089148.75844  23421311.7724   23421309.4014
        48.5334
   3971881.78147   3095983.94142  24273455.0464   24273455.4874
     -2411.4734
  -8513568.05149  -6624465.40246  22087907.7964   22087906.7224
       903.1654
   8214342.82049   6395871.15246  21965753.9914   21965752.6834
     -2851.3034
  -1817187.80947  -1412085.27342  24389774.6324   24389775.5464
       -23.1094
  -5152431.39847  -4008144.23443  23923491.7494   23923491.1874
      2132.5814
  21016445.58247  16352002.25842  24904497.0304   24904497.3944
     -4348.8554
  -1340993.16449  -1044660.16846  21707583.0464   21707581.5114
      -281.4004
 04  9 10 22 11  0.0030000  0  8G19G 3G 8G13G10G28G23G27
  -5254533.21148  -4089614.05144  23421198.6014   23421196.2844
        39.8114
   4008181.44147   3124269.37942  24280362.9444   24280363.0544
     -2419.9774
  -8527066.33649  -6634983.53146  22085339.1634   22085337.7804
       899.8864
   8257221.62149   6429283.19145  21973914.0624   21973912.4604
     -2858.5874
  -1816701.36347  -1411706.21942  24389866.7184   24389867.4294
       -32.4304
  -5184360.64548  -4033024.11343  23917415.3044   23917415.6754
      2128.6164
  21081716.38747  16402862.53542  24916917.9764   24916918.0344
     -4351.3874
  -1336727.25049  -1041336.08646  21708394.6244   21708393.2724
      -284.3944
 04  9 10 22 11 15.0030000  0  8G19G 3G 8G13G10G28G23G27
  -5255002.89848  -4089980.02044  23421108.7414   23421106.7374
        31.3134
   4044604.97747   3152651.35942  24287293.2494   24287293.1594
     -2428.2364
  -8540518.79749  -6645465.96145  22082779.0694   22082777.9914
       896.8314
   8300205.91449   6462777.43446  21982093.7024   21982092.2144
     -2865.6204
  -1816078.55947  -1411220.90642  24389986.1164   24389985.8904
       -41.5204
  -5216233.86748  -4057860.35243  23911350.3974   23911349.9794
      2124.8824
  21147021.37947  16453749.47742  24929345.1474   24929344.9604
     -4353.6664
  -1332419.98449  -1037979.77346  21709214.1164   21709212.8824
      -287.1514
 04  9 10 22 11 30.0030000  0  8G19G 3G 8G13G10G28G23G27
  -5255345.98048  -4090247.34044  23421043.8354   23421041.2064
        22.8724
   4081151.22747   3181128.95342  24294247.2024   24294247.4444
     -2436.4174
  -8553926.43049  -6655913.45746  22080227.4834   22080226.5194
       893.8424
   8343294.55149   6496352.97345  21990292.9134   21990291.7614
     -2872.5764
  -1815320.34047  -1410630.07842  24390130.0384   24390130.6944
       -50.5484
  -5248051.91448  -4082653.59043  23905295.8514   23905295.7294
      2121.2034
  21212359.38347  16504662.11742  24941778.1474   24941777.8154
     -4355.8674
  -1328072.35549  -1034592.00846  21710041.4764   21710040.4444
      -289.8424
 04  9 10 22 11 45.0030000  0  8G19G 3G 8G13G10G28G23G27
  -5255554.09048  -4090409.47344  23421003.9604   23421001.6674
        13.8744
   4117828.02747   3209708.26242  24301227.6084   24301227.3274
     -2445.1204
  -8567280.87549  -6666319.51246  22077686.5224   22077685.3944
       890.2964
   8386495.64149   6530016.14846  21998513.6474   21998512.3824
     -2880.0734
  -1814418.62947  -1409927.43742  24390302.0464   24390301.9094
       -60.1144
  -5279806.45348  -4107397.33643  23899253.2884   23899253.0424
      2116.9694
  21277738.28547  16555606.63742  24954219.5154   24954219.5504
     -4358.5934
  -1323676.04749  -1031166.30946  21710878.1084   21710876.9174
      -293.0874
 04  9 10 22 12  0.0030000  0  8G19G 3G 8G13G10G28G23G27
  -5255624.27748  -4090464.14544  23420990.1404   23420987.9834
         4.6794
   4154637.98847   3238391.32842  24308231.9604   24308232.9724
     -2453.9974
  -8580579.66049  -6676682.19146  22075155.5694   22075154.7104
       886.5864
   8429811.75049   6563768.94946  22006756.7414   22006755.4444
     -2887.7414
  -1813370.55547  -1409110.73842  24390501.3904   24390501.5154
       -69.8724
  -5311494.63747  -4132089.38343  23893222.9914   23893222.1754
      2112.5464
  21343160.50047  16606584.88742  24966669.8354   24966669.5584
     -4361.4814
  -1319228.40649  -1027700.60946  21711724.4214   21711723.4134
      -296.5094
 04  9 10 22 12 15.0030000  0  8G19G 3G 8G13G10G28G23G27
  -5255558.00448  -4090412.48044  23421003.4444   23421000.2264
        -4.4184
   4191579.42247   3267176.83242  24315262.0464   24315262.3354
     -2462.7624
  -8593824.14849  -6687002.56246  22072635.4684   22072634.6284
       882.9664
   8473241.10949   6597610.00445  22015021.0774   22015019.8514
     -2895.2914
  -1812177.62947  -1408181.19542  24390728.6084   24390728.1204
       -79.5284
  -5343117.81648  -4156730.77343  23887205.2804   23887204.7294
      2108.2124
  21408624.31347  16657595.55942  24979126.5074   24979126.2414
     -4364.2544
  -1314730.76649  -1024195.95746  21712580.5464   21712579.1754
      -299.8434
 04  9 10 22 12 30.0030000  0  8G19G 3G 8G13G10G28G23G27
  -5255355.62548  -4090254.75044  23421041.5304   23421038.9914
       -13.4924
   4228651.52347   3296064.17642  24322317.1164   24322317.1794
     -2471.4734
  -8607014.41449  -6697280.68046  22070125.3514   22070124.6904
       879.3514
   8516783.13749   6631538.84045  22023307.0304   22023305.7064
     -2902.8024
  -1810840.34847  -1407139.13742  24390982.8044   24390983.3044
       -89.1524
  -5374676.41848  -4181321.86343  23881199.5854   23881199.3194
      2103.9074
  21474128.98847  16708638.05542  24991592.2334   24991591.9644
     -4366.9784
  -1310183.71149  -1020652.79746  21713445.8044   21713444.4444
      -303.1374
 04  9 10 22 12 45.0030000  0  8G19G 3G 8G13G10G28G23G27
  -5255016.22348  -4089990.27344  23421106.5934   23421103.6874
       -22.6274
   4265854.75447   3325053.68842  24329396.0464   24329396.3004
     -2480.2154
  -8620150.13349  -6707516.30146  22067625.9214   22067624.9644
       875.7154
   8560438.38349   6665555.90245  22031614.2964   22031612.7804
     -2910.3504
  -1809357.98847  -1405984.04342  24391265.1164   24391265.1364
       -98.8244
  -5406169.61348  -4205861.95743  23875206.5934   23875206.4254
      2099.5464
  21539674.98047  16759712.77042  25004064.6164   25004064.8084
     -4369.7334
  -1305586.43449  -1017070.50446  21714320.7184   21714319.1164
      -306.4854
 04  9 10 22 13  0.0030000  0  8G19G 3G 8G13G10G28G23G27
  -5254541.00448  -4089619.95744  23421197.1164   23421194.4254
       -31.6814
   4303187.57848   3354144.20342  24336500.1554   24336500.7184
     -2488.8554
  -8633232.23049  -6717710.12946  22065136.4604   22065135.7494
       872.1404
   8604205.37149   6699660.04745  22039942.7804   22039941.6634
     -2917.7994
  -1807731.80147  -1404716.87142  24391573.9914   24391574.2844
      -108.4124
  -5437598.52048  -4230351.96143  23869226.1554   23869225.4484
      2095.2604
  21605260.74246  16810818.47342  25016545.1324   25016545.7964
     -4372.3844
  -1300940.19949  -1013450.05546  21715204.7654   21715203.2454
      -309.7494
 04  9 10 22 13 15.0030000  0  8G19G 3G 8G13G10G28G23G27
  -5253926.19148  -4089140.86744  23421313.8664   23421311.4254
       -40.9874
   4340653.31347   3383338.26642  24343629.3514   24343629.9174
     -2497.7164
  -8646257.37149  -6727859.58646  22062657.7184   22062657.3544
       868.3434
   8648087.50849   6733853.90245  22048293.5774   22048291.7184
     -2925.4764
  -1805958.16046  -1403334.80942  24391911.8824   24391911.5544
      -118.2434
  -5468959.42648  -4254788.99243  23863258.5694   23863257.9764
      2090.7274
  21670889.59046  16861957.72342  25029033.4604   25029034.6244
     -4375.2574
  -1296241.42249  -1009788.66846  21716098.8744   21716097.3974
      -313.2524
 04  9 10 22 13 30.0030000  0  8G19G 3G 8G13G10G28G23G27
  -5253166.27348  -4088548.70344  23421458.6554   23421455.8194
       -50.6614
   4378257.28947   3412640.04742  24350785.5074   24350785.3154
     -2506.9324
  -8659219.78149  -6737960.14846  22060191.0934   22060190.1674
       864.1614
   8692090.05549   6768141.59045  22056666.8274   22056664.8514
     -2933.5034
  -1804031.58247  -1401833.57442  24392278.2264   24392278.5074
      -128.4394
  -5500246.94148  -4279168.83243  23857304.3664   23857303.5974
      2085.8344
  21736566.68046  16913134.58642  25041532.0854   25041532.7924
     -4378.4734
  -1291484.61349  -1006082.05946  21717004.0224   21717002.5774
      -317.1214
 04  9 10 22 13 45.0030000  0  8G19G 3G 8G13G10G28G23G27
  -5252256.82048  -4087840.01244  23421631.6714   23421629.2104
       -60.6304
   4416003.60948   3442052.78142  24357968.6554   24357968.2494
     -2516.4214
  -8672115.34049  -6748008.63346  22057737.0694   22057735.7224
       859.7044
   8736217.17649   6802526.34445  22065064.0384   22065062.2184
     -2941.8084
  -1801947.67646  -1400209.76242  24392674.5464   24392674.4254
      -138.9274
  -5531456.47747  -4303487.90643  23851365.6244   23851364.9484
      2080.6364
  21802296.07047  16964352.20342  25054040.0624   25054040.5694
     -4381.9594
  -1286665.34449  -1002326.78946  21717921.3274   21717919.8784
      -321.2854
 04  9 10 22 14  0.0030000  0  8G19G 3G 8G13G10G28G23G27
  -5251197.58248  -4087014.60944  23421832.8974   23421830.1944
       -70.6164
   4453892.05947   3471576.23442  24365178.5384   24365178.4954
     -2525.8974
  -8684944.19949  -6758005.14146  22055295.8124   22055294.8744
       855.2574
   8780468.71149   6837008.04746  22073484.4374   22073483.5114
     -2950.1024
  -1799706.55147  -1398463.40242  24393101.0624   24393101.2884
      -149.4084
  -5562587.90648  -4327746.11743  23845441.2414   23845440.9524
      2075.4294
  21868077.49646  17015610.37542  25066557.7264   25066558.9994
     -4385.4284
  -1281783.63349   -998522.84446  21718850.0854   21718848.8004
      -325.4474
 04  9 10 22 14 15.0030000  0  8G19G 3G 8G13G10G28G23G27
  -5249991.54747  -4086074.81244  23422062.0694   23422059.4794
       -80.4024
   4491919.40247   3501207.90642  24372415.2884   24372415.3544
     -2535.1564
  -8697708.88349  -6767951.63346  22052866.6874   22052865.8354
       850.9794
   8824841.48049   6871584.22745  22081928.5154   22081927.3234
     -2958.1854
  -1797311.07047  -1396596.78942  24393557.3904   24393556.9604
      -159.6994
  -5593644.14848  -4351945.73043  23839531.7884   23839531.3824
      2070.4164
  21933907.82846  17066906.63742  25079085.4134   25079085.6834
     -4388.6894
  -1276842.31649   -994672.46546  21719790.4834   21719789.1754
      -329.4214
 04  9 10 22 14 30.0030000  0  8G19G 3G 8G13G10G28G23G27
  -5248635.74648  -4085018.33644  23422320.2494   23422317.6474
       -90.3874
   4530088.18048   3530949.80942  24379678.1084   24379679.3314
     -2544.5854
  -8710406.74649  -6777846.06246  22050450.6014   22050449.5734
       846.5244
   8869338.29749   6906257.05946  22090396.1944   22090394.4834
     -2966.4544
  -1794758.46947  -1394607.75442  24394042.9684   24394043.1284
      -170.1734
  -5624622.15648  -4376084.39143  23833636.3744   23833635.9174
      2065.2014
  21999789.50047  17118242.93442  25091622.1324   25091622.7144
     -4392.1114
  -1271838.63349   -990773.49646  21720742.5384   21720741.2724
      -333.5794
 04  9 10 22 14 45.0030000  0  7G19G 3G 8G13G10G28G27
  -5247132.46948  -4083846.92644  23422606.2104   23422603.7024
      -100.2184
   4568395.75847   3560799.84442  24386967.6874   24386968.0264
     -2553.8394
  -8723039.91049  -6787690.07446  22048046.3974   22048045.4484
       842.2114
   8913956.32849   6941024.34445  22098886.5774   22098885.3194
     -2974.5354
  -1792051.27046  -1392498.23042  24394558.0384   24394558.8354
      -180.4804
  -5655524.34047  -4400163.97343  23827756.4604   23827755.1674
      2060.1464
  -1266774.96549   -986827.77346  21721706.1244   21721704.6834
      -337.5784
 04  9 10 22 15  0.0030000  0  7G19G 3G 8G13G10G28G27
  -5245483.28948  -4082561.83244  23422920.1244   23422917.6244
      -109.9454
   4606840.10948   3590756.46542  24394284.1474   24394283.9794
     -2562.9574
  -8735610.19149  -6797485.08646  22045654.3194   22045653.6714
       838.0194
   8958693.84049   6975884.73046  22107399.8664   22107398.5034
     -2982.5014
  -1789191.14147  -1390269.53942  24395101.8434   24395102.6284
      -190.6754
  -5686352.28148  -4424185.70743  23821889.5464   23821888.5774
      2055.1964
  -1261653.02349   -982836.64846  21722680.7964   21722679.4134
      -341.4634
 04  9 10 22 15 15.0030000  0  7G19G 3G 8G13G10G28G27
  -5243688.74247  -4081163.46544  23423261.7024   23423259.3784
      -119.6364
   4645420.35948   3620818.99642  24401625.2804   24401625.9524
     -2572.0174
  -8748118.28149  -6807231.64546  22043274.3824   22043273.2804
       833.8734
   9003549.85249   7010837.46146  22115935.4684   22115933.8664
     -2990.4014
  -1786178.66446  -1387922.15242  24395674.6944   24395675.6284
      -200.8324
  -5717106.64148  -4448150.09043  23816037.0074   23816036.3124
      2050.2914
  -1256473.48449   -978800.64146  21723666.6874   21723664.7654
      -345.3034
 04  9 10 22 15 30.0030000  0  7G19G 3G 8G13G10G28G27
  -5241746.94148  -4079650.35244  23423631.3664   23423629.0424
      -129.4534
   4684138.09847   3650988.64842  24408992.5074   24408992.0934
     -2581.1834
  -8760562.25049  -6816928.23846  22040906.2264   22040905.1984
       829.5984
   9048526.09849   7045883.86745  22124494.5384   22124493.0694
     -2998.4164
  -1783012.08246  -1385454.69942  24396278.3824   24396278.0344
      -211.1054
  -5747785.44148  -4472055.60543  23810198.7024   23810198.5194
      2045.2534
  -1251234.37549   -974718.21946  21724663.2654   21724661.9094
      -349.2744
 04  9 10 22 15 45.0030000  0  7G19G 3G 8G13G10G28G27
  -5239656.30947  -4078021.26644  23424029.1404   23424026.7924
      -139.3764
   4722994.51647   3681266.37142  24416386.9214   24416387.7764
     -2590.4284
  -8772940.96949  -6826573.98046  22038550.6634   22038549.1944
       825.2484
   9093623.82449   7081024.93845  22133076.0934   22133074.7144
     -3006.5154
  -1779689.91847  -1382865.99242  24396910.1324   24396910.2694
      -221.4784
  -5778387.09448  -4495901.00043  23804375.8514   23804375.4094
      2040.1104
  -1245934.25449   -970588.25046  21725672.0464   21725670.3784
      -353.3414
 04  9 10 22 16  0.0030000  0  7G19G 3G 8G13G10G28G27
  -5237414.53947  -4076274.42244  23424455.3124   23424452.9404
      -149.4514
   4761991.72347   3711653.78142  24423807.6164   24423808.5154
     -2599.8144
  -8785251.91849  -6836166.93046  22036207.7654   22036206.7654
       820.7304
   9138845.03549   7116262.23845  22141681.4374   22141680.1474
     -3014.7474
  -1776209.90246  -1380154.28942  24397572.3824   24397572.6714
      -232.0014
  -5808909.26248  -4519684.46943  23798567.5774   23798567.2884
      2034.8114
  -1240570.87149   -966408.99646  21726692.3974   21726691.2144
      -357.5594
 04  9 10 22 16 15.0030000  0  7G19G 3G 8G13G10G28G27
  -5235021.69548  -4074409.84444  23424911.0464   23424908.7724
      -159.5234
   4801129.10548   3742150.42642  24431256.2654   24431256.1444
     -2609.1594
  -8797495.02749  -6845707.00046  22033877.9764   22033877.3514
       816.2074
   9184189.53949   7151595.59845  22150310.2104   22150308.5154
     -3022.9674
  -1772572.21947  -1377319.73442  24398265.0544   24398265.1204
      -242.5124
  -5839352.04348  -4543406.05543  23792774.5854   23792773.4404
      2029.5194
  -1235144.35949   -962180.53546  21727725.3434   21727724.0894
      -361.7674
 04  9 10 22 16 30.0030000  0  7G19G 3G 8G13G10G28G27
  -5232478.43448  -4072428.07044  23425395.0694   23425392.5854
      -169.5514
   4840405.68047   3772755.56643  24438729.5854   24438730.4174
     -2618.4384
  -8809671.15249  -6855194.87946  22031561.0154   22031560.1554
       811.7424
   9229656.24249   7187024.18845  22158962.6014   22158961.0344
     -3031.1144
  -1768777.77047  -1374363.02042  24398986.7884   24398987.0264
      -252.9634
  -5869716.02348  -4567066.27043  23786995.9604   23786995.8004
      2024.2654
  -1229655.48849   -957903.48446  21728769.6244   21728768.1634
      -365.9254
 04  9 10 22 16 45.0030000  0  7G19G 3G 8G13G10G28G27
  -5229784.30148  -4070328.71944  23425907.5854   23425904.5194
      -179.6094
   4879821.64147   3803469.27042  24446229.8584   24446230.8864
     -2627.7314
  -8821779.98049  -6864630.31646  22029256.6874   22029255.5774
       807.2554
   9275245.34049   7222548.14845  22167637.5464   22167636.1874
     -3039.2734
  -1764826.18747  -1371283.85242  24399739.0384   24399739.2024
      -263.4394
  -5900000.83248  -4590664.77343  23781233.3044   23781232.6014
      2018.9874
  -1224103.75849   -953577.46546  21729826.3354   21729824.8154
      -370.1154
 04  9 10 22 17  0.0030000  0  7G19G 3G 8G13G10G28G27
  -5226940.07048  -4068112.43044  23426448.6084   23426445.6364
      -189.6154
   4919375.79747   3834290.66442  24453757.6554   24453757.4954
     -2636.9444
  -8833822.47749  -6874014.07446  22026965.0624   22026964.1044
       802.8334
   9320955.81649   7258166.68845  22176336.1874   22176334.7144
     -3047.3654
  -1760718.27047  -1368082.86742  24400520.7884   24400520.3664
      -273.8614
  -5930207.16448  -4614202.12543  23775485.3664   23775484.6754
      2013.7554
  -1218490.08249   -949203.16846  21730894.6944   21730892.8624
      -374.2454
 04  9 10 22 17 15.0030000  0  7G19G 3G 8G13G10G28G27
  -5223942.97348  -4065776.99644  23427019.1244   23427016.1164
      -199.8074
   4959070.47748   3865221.59042  24461311.4054   24461310.7724
     -2646.3124
  -8845795.51249  -6883343.69546  22024686.4604   22024685.6594
       798.2024
   9366789.95749   7293881.59045  22185058.2414   22185056.5034
     -3055.6094
  -1756451.46147  -1364758.07442  24401332.1014   24401332.2414
      -284.4544
  -5960332.32848  -4637676.22343  23769752.4524   23769751.6874
      2008.3444
  -1212811.82849   -944778.55546  21731974.5544   21731973.4484
      -378.5504
 04  9 10 22 17 30.0030000  0  7G19G 3G 8G13G10G28G27
  -5220795.00048  -4063324.03144  23427618.0544   23427615.4954
      -209.8654
   4998903.43047   3896260.27342  24468890.8744   24468890.5504
     -2655.5304
  -8857701.47749  -6892621.06646  22022420.9764   22022419.9484
       793.7314
   9412745.63349   7329691.19145  22193802.9444   22193801.4294
     -3063.7124
  -1752027.82047  -1361311.07442  24402174.1714   24402174.6014
      -294.9094
  -5990378.23048  -4661088.58243  23764034.8974   23764034.2294
      2003.0604
  -1207071.05149   -940305.21946  21733067.0384   21733066.0974
      -382.7184
 04  9 10 22 17 45.0030000  0  7G19G 3G 8G13G10G28G27
  -5217497.33248  -4060754.39844  23428245.7024   23428242.7694
      -219.8454
   5038873.16448   3927405.50842  24476497.3274   24476496.9404
     -2664.6494
  -8869541.44949  -6901847.00846  22020168.2494   22020167.3234
       789.3324
   9458821.41449   7365594.38745  22202570.9684   22202569.8314
     -3071.7194
  -1747448.59047  -1357742.85542  24403045.9834   24403045.5624
      -305.2824
  -6020346.16448  -4684440.16843  23758331.8904   23758331.6634
      1997.8624
  -1201268.86749   -935784.03946  21734171.4214   21734170.1554
      -386.8124
 04  9 10 22 18  0.0030000  0  7G19G 3G 8G13G10G28G27
  -5214053.05148  -4058070.52344  23428901.0774   23428898.4294
      -229.6194
   5078976.13747   3958654.56342  24484127.7414   24484129.1444
     -2673.5324
  -8881318.90649  -6911024.23446  22017926.6324   22017925.7694
       785.1644
   9505013.92249   7401588.53145  22211361.0694   22211359.7024
     -3079.5014
  -1742717.13747  -1354056.00042  24403945.8124   24403945.7844
      -315.4304
  -6050239.07848  -4707733.31243  23752643.7104   23752642.5194
      1992.8614
  -1195408.54349   -931217.54746  21735286.7964   21735285.5384
      -390.6884
 04  9 10 22 18 15.0030000  0  7G19G 3G 8G13G10G28G27
  -5210461.99648  -4055272.28544  23429584.1084   23429581.8394
      -239.4044
   5119212.16847   3990007.30542  24491784.2414   24491785.4644
     -2682.4024
  -8893033.48449  -6920152.45746  22015697.6554   22015696.5194
       780.9724
   9551322.91849   7437673.45345  22220173.9374   22220172.2104
     -3087.2664
  -1737833.39847  -1350250.49242  24404875.2654   24404875.0074
      -325.5834
  -6080056.95748  -4730967.98043  23746969.5224   23746967.9604
      1987.8594
  -1189490.04749   -926605.73046  21736412.9134   21736411.7454
      -394.5664
 04  9 10 22 18 30.0030000  0  7G19G 3G 8G13G10G28G27
  -5206724.32048  -4052359.80144  23430295.7414   23430293.3354
      -249.1784
   5159580.74648   4021463.30142  24499466.5934   24499467.5194
     -2691.2394
  -8904685.30549  -6929231.79346  22013480.6014   22013478.9874
       776.7884
   9597747.89149   7473848.73445  22229007.8974   22229006.5464
     -3094.9984
  -1732797.70747  -1346326.57842  24405833.5544   24405833.9214
      -335.7134
  -6109799.94548  -4754144.28543  23741309.3744   23741308.8044
      1982.8664
  -1183513.43049   -921948.62146  21737550.2494   21737548.7924
      -398.4414
 04  9 10 22 18 45.0030000  0  7G19G 3G 8G13G10G28G27
  -5202839.94148  -4049332.99644  23431034.9374   23431032.4644
      -258.9594
   5200081.70347   4053022.47342  24507174.1244   24507174.5544
     -2700.0644
  -8916274.34049  -6938262.19946  22011274.8904   22011273.7924
       772.6024
   9644288.84449   7510114.41045  22237864.3354   22237863.2764
     -3102.7304
  -1727609.93047  -1342284.15642  24406820.9524   24406820.9014
      -345.8524
  -6139467.81648  -4777262.06243  23735664.1244   23735663.2654
      1977.8584
  -1177478.66049   -917246.20346  21738698.7264   21738697.5544
      -402.3184
 04  9 10 22 19  0.0030000  0  7G19G 3G 8G13G10G28G27
  -5198809.94948  -4046192.71544  23431801.5854   23431799.3394
      -268.6664
   5240713.52048   4084683.62542  24514905.9914   24514906.5384
     -2708.7884
  -8927801.75849  -6947244.59446  22009081.2804   22009080.5304
       768.4954
   9690944.37549   7546469.34845  22246742.6324   22246741.6754
     -3110.3694
  -1722271.35247  -1338124.21142  24407836.6244   24407836.8584
      -355.9054
  -6169061.69548  -4800322.18743  23730032.0384   23730031.9254
      1972.9254
  -1171386.96549   -912499.42246  21739857.7264   21739856.4874
      -406.1134
 04  9 10 22 19 15.0030000  0  7G19G 3G 8G13G10G28G27
  -5194631.49248  -4042936.76244  23432596.8044   23432594.2804
      -278.5644
   5281478.69147   4116448.69542  24522662.8044   24522663.3354
     -2717.6784
  -8939264.77349  -6956176.80146  22006899.8744   22006899.3664
       764.2014
   9737716.89849   7582915.45345  22255643.1404   22255641.9054
     -3118.1684
  -1716779.27347  -1333844.67242  24408881.8514   24408881.7574
      -366.1394
  -6198578.85248  -4823322.51243  23724415.1324   23724414.6404
      1967.8104
  -1165235.58249   -907706.13346  21741028.2804   21741026.7614
      -410.0924
 04  9 10 22 19 30.0030000  0  7G19G 3G 8G13G10G28G27
  -5190305.19548  -4039565.60544  23433420.0224   23433417.0854
      -288.4204
   5322376.24647   4148316.89542  24530445.9134   24530446.0074
     -2726.5044
  -8950664.21949  -6965059.47746  22004730.6714   22004729.8354
       759.9634
   9784605.50449   7619452.02045  22264565.8434   22264564.2844
     -3125.9074
  -1711134.27347  -1329445.97742  24409956.5154   24409955.8274
      -376.3334
  -6228019.81248  -4846263.47344  23718812.8434   23718811.9914
      1962.7314
  -1159025.04349   -902866.75046  21742210.0154   21742208.7144
      -414.0364
 04  9 10 22 19 45.0030000  0  7G19G 3G 8G13G10G28G27
  -5185829.19548  -4036077.81644  23434271.7724   23434268.9724
      -298.4004
   5363407.64147   4180289.41842  24538253.5384   24538253.5074
     -2735.4264
  -8961998.15649  -6973891.10246  22002574.4054   22002572.9994
       755.5964
   9831611.91049   7656080.37145  22273510.9604   22273509.2294
     -3133.7604
  -1705334.66447  -1324926.79342  24411059.2884   24411060.1124
      -386.6414
  -6257382.64148  -4869143.55544  23713225.4444   23713224.9794
      1957.5224
  -1152753.68749   -897979.97746  21743403.5544   21743402.2264
      -418.0904
 04  9 10 22 20  0.0030000  0  7G19G 3G 8G13G10G28G27
  -5181198.78148  -4032469.68044  23435152.8124   23435150.2844
      -308.6944
   5404577.40247   4212369.71142  24546088.2104   24546089.1044
     -2744.6514
  -8973261.80949  -6982667.96946  22000430.7964   22000429.5854
       750.9104
   9878740.54749   7692803.96945  22282479.1244   22282477.7804
     -3141.9094
  -1699375.88347  -1320283.58642  24412193.8194   24412193.7764
      -397.2524
  -6286662.58648  -4891959.05544  23707653.2184   23707652.9254
      1951.9964
  -1146416.72349   -893042.08246  21744609.4294   21744608.3624
      -422.4644
 04  9 10 22 20 15.0030000  0  7G19G 3G 8G13G10G28G27
  -5176417.52348  -4028743.99244  23436062.5074   23436060.0814
      -318.7514
   5445881.64848   4244554.82842  24553948.0074   24553948.6204
     -2753.6164
  -8984458.86349  -6991392.93746  21998299.8744   21998298.7804
       746.4704
   9925987.63749   7729619.86745  22291469.7964   22291468.6984
     -3149.8064
  -1693261.57047  -1315519.18442  24413357.3354   24413357.3394
      -407.6214
  -6315863.18448  -4914712.72344  23702097.0224   23702095.9294
      1946.7074
  -1140017.77049   -888055.87946  21745827.2494   21745825.9134
      -426.5974
 04  9 10 22 20 30.0030000  0  7G19G 3G 8G13G10G28G27
  -5171480.29748  -4024896.79744  23437002.2724   23436999.9834
      -329.1484
   5487325.03947   4276848.37542  24561833.7654   24561835.4254
     -2762.8934
  -8995584.54349  -7000062.28946  21996182.9134   21996182.1554
       741.7124
   9973357.80149   7766531.66845  22300484.0854   22300482.9444
     -3158.0114
  -1686986.97746  -1310629.87942  24414551.1794   24414551.3004
      -418.3064
  -6344979.54348  -4937400.75443  23696555.8904   23696555.0934
      1941.0914
  -1133551.89849   -883017.54746  21747057.5854   21747056.5264
      -431.0584
 04  9 10 22 20 45.0030000  0  7G19G 3G 8G13G10G28G27
  -5166388.78948  -4020929.35944  23437970.9524   23437968.4834
      -339.4344
   5528905.43847   4309248.66042  24569747.1714   24569747.1404
     -2772.0274
  -9006640.03949  -7008676.94546  21994078.6634   21994078.1044
       737.0334
  10020849.11349   7803537.86745  22309521.6874   22309520.0694
     -3166.0874
  -1680553.66046  -1305616.90643  24415775.5384   24415775.4014
      -428.8884
  -6374013.17248  -4960024.30544  23691031.7264   23691030.4054
      1935.5754
  -1127020.76649   -877928.34046  21748300.4294   21748299.0194
      -435.4094
 04  9 10 22 21  0.0030000  0  7G19G 3G 8G13G10G28G27
  -5161143.90648  -4016842.42644  23438969.3664   23438967.1244
      -349.6594
   5570621.56347   4341754.73842  24577684.8974   24577685.0734
     -2781.0754
  -9017626.57049  -7017237.86746  21991988.2264   21991987.5694
       732.4354
  10068460.49649   7840637.62945  22318581.7884   22318580.4254
     -3174.0924
  -1673962.77746  -1300481.14143  24417029.2884   24417029.3664
      -439.3924
  -6402964.92648  -4982584.09843  23685521.6084   23685520.5464
      1930.1174
  -1120425.30149   -872789.02046  21749555.3664   21749554.2964
      -439.6984
 04  9 10 22 21 15.0030000  0  7G19G 3G 8G13G10G28G27
  -5155739.50448  -4012631.18744  23439997.7724   23439994.8004
      -360.2934
   5612479.32847   4374371.16442  24585649.8974   24585650.6794
     -2790.5184
  -9028538.04749  -7025740.31246  21989912.0224   21989910.7104
       727.4324
  10116197.76649   7877835.48445  22327665.5384   22327664.4954
     -3182.4854
  -1667208.15646  -1295217.80942  24418314.2264   24418315.0624
      -450.3084
  -6431828.75448  -5005075.32443  23680029.4294   23680028.4914
      1924.2554
  -1113759.39549   -867594.79746  21750823.9444   21750822.5384
      -444.3944
 04  9 10 22 21 30.0030000  0  7G19G 3G 8G13G10G28G27
  -5150175.61748  -4008295.66844  23441056.1164   23441053.6284
      -370.9264
   5654478.29747   4407097.59842  24593642.4524   24593643.0624
     -2799.9314
  -9039374.47349  -7034184.27046  21987849.9604   21987848.8624
       722.4284
  10164060.59449   7915131.17645  22336773.8044   22336772.8474
     -3190.8554
  -1660290.02047  -1289827.04342  24419631.5934   24419631.4524
      -461.2094
  -6460604.61748  -5027498.04343  23674553.2264   23674552.3354
      1918.3914
  -1107023.07049   -862345.71946  21752105.6944   21752104.3824
      -449.0884
 04  9 10 22 21 45.0040000  0  7G19G 3G 8G13G10G28G27
  -5144452.64848  -4003836.19544  23442145.2154   23442142.9734
      -381.5314
   5696620.16047   4439935.40642  24601661.9804   24601661.2934
     -2809.4584
  -9050137.26649  -7042570.85546  21985801.7304   21985800.6414
       717.5204
  10212051.03549   7952526.30945  22345906.1444   22345904.4574
     -3199.3634
  -1653208.82847  -1284309.21942  24420978.5904   24420978.9374
      -472.0794
  -6489295.27048  -5049854.35543  23669093.7304   23669092.1564
      1912.7104
  -1100216.77749   -857042.10546  21753401.2384   21753399.7504
      -453.7534
 04  9 10 22 22  0.0040000  0  7G19G 3G 8G13G10G28G27
  -5138569.57448  -3999251.96944  23443264.9804   23443261.9344
      -392.2054
   5738900.70747   4472881.27042  24609707.7934   24609707.8834
     -2818.7034
  -9060823.47749  -7050897.75846  21983768.2304   21983767.0314
       712.4144
  10260164.28149   7990017.12945  22355061.7624   22355060.5124
     -3207.5504
  -1645963.85547  -1278663.78542  24422357.2774   24422357.5824
      -482.9984
  -6517895.01648  -5072139.83243  23663650.9574   23663650.7464
      1906.6504
  -1093339.67649   -851683.32846  21754709.3554   21754708.3754
      -458.4734
 04  9 10 22 22 15.0040000  0  7G19G 3G 8G13G10G28G27
  -5132525.10248  -3994541.98444  23444415.1294   23444412.0824
      -402.9654
   5781323.41448   4505937.91042  24617781.3094   24617780.5904
     -2828.1804
  -9071432.84849  -7059164.78946  21981748.9964   21981747.9694
       707.2914
  10308404.12549   8027606.60945  22364241.5824   22364240.2114
     -3215.9904
  -1638553.84047  -1272889.75442  24423767.4734   24423767.6764
      -494.0014
  -6546404.76248  -5094355.18043  23658225.9184   23658225.3324
      1900.6504
  -1086390.33649   -846268.25846  21756032.0904   21756030.5124
      -463.2894
 04  9 10 22 22 30.0040000  0  7G19G 3G 8G13G10G28G27
  -5126323.91048  -3989709.86344  23445595.0354   23445592.3674
      -413.4134
   5823883.34047   4539101.47342  24625878.7624   24625880.0474
     -2837.3284
  -9081970.00049  -7067375.55546  21979744.1914   21979742.8634
       702.4774
  10356765.73849   8065290.96545  22373444.4104   22373443.0234
     -3224.1084
  -1630983.57047  -1266990.81642  24425208.1214   24425208.0594
      -504.6854
  -6574829.24248  -5116504.07443  23652816.7544   23652816.1374
      1894.9654
  -1079373.54749   -840800.62546  21757367.5124   21757366.0004
      -467.7864
 04  9 10 22 22 45.0040000  0  7G19G 3G 8G13G10G28G27
  -5119967.77748  -3984757.02344  23446804.5984   23446802.2114
      -423.7424
   5866578.08647   4572370.10242  24634004.0434   24634004.8204
     -2846.3164
  -9092436.78949  -7075531.48446  21977752.4414   21977751.2664
       697.7864
  10405246.99249   8103068.54345  22382669.9414   22382669.0354
     -3232.0844
  -1623254.91847  -1260968.52342  24426679.1054   24426678.8754
      -515.2434
  -6603170.09048  -5138587.81643  23647423.6294   23647422.6484
      1889.3904
  -1072291.11749   -835281.84846  21758715.1054   21758713.7694
      -472.1624
 04  9 10 22 23  0.0040000  0  7G19G 3G 8G13G10G28G27
  -5113458.00448  -3979684.46944  23448043.1764   23448041.0514
      -433.9854
   5909406.21947   4605742.66442  24642153.5904   24642153.8014
     -2855.2094
  -9102834.57449  -7083633.64146  21975773.5194   21975772.8484
       693.1864
  10453846.32449   8140938.12945  22391917.9734   22391917.0984
     -3239.9554
  -1615369.37147  -1254823.93043  24428179.3404   24428180.0354
      -525.7034
  -6631428.72748  -5160607.50043  23642046.3794   23642044.9024
      1883.9094
  -1065144.32049   -829712.91446  21760075.0434   21760074.2424
      -476.4534
 04  9 10 22 23 15.0040000  0  7G19G 3G 8G13G10G28G27
  -5106795.99248  -3974493.27044  23449310.9494   23449308.2424
      -444.1344
   5952365.93447   4639217.77042  24650328.9574   24650328.1804
     -2863.9814
  -9113164.84849  -7091683.19146  21973807.9264   21973807.0744
       688.6854
  10502562.12549   8178898.48445  22401188.4804   22401187.2154
     -3247.7204
  -1607328.37947  -1248558.22342  24429709.4654   24429709.6954
      -536.0664
  -6659606.41048  -5182564.09843  23636684.0124   23636683.3634
      1878.5124
  -1057934.64549   -824094.97746  21761447.0124   21761445.6524
      -480.6454
 04  9 10 22 23 30.0040000  0  7G19G 3G 8G13G10G28G27
  -5099980.35948  -3969182.37144  23450608.1214   23450605.5554
      -454.3764
   5995458.29347   4672796.19142  24658528.9884   24658529.5944
     -2872.8244
  -9123426.14149  -7099678.99646  21971855.2464   21971854.0004
       684.0864
  10551395.41848   8216950.38345  22410481.1294   22410479.9224
     -3255.5534
  -1599130.68047  -1242170.41842  24431269.7464   24431269.5004
      -546.5134
  -6687701.88748  -5204456.62943  23631337.8404   23631336.8634
      1873.0324
  -1050660.70349   -818426.96946  21762831.0274   21762829.8914
      -484.9294
 04  9 10 22 23 45.0040000  0  7G19G 3G 8G13G10G28G27
  -5093017.18747  -3963756.52344  23451932.9414   23451930.4614
      -464.2114
   6038676.75447   4706472.87942  24666753.1524   24666754.2814
     -2881.2314
  -9133624.59449  -7107625.83246  21969914.4024   21969913.0784
       679.8974
  10600339.75048   8255088.80945  22419795.0124   22419793.5084
     -3262.9554
  -1590782.54747  -1235665.37143  24432858.3554   24432858.3324
      -556.5424
  -6715721.16448  -5226289.79743  23626006.0194   23626005.1374
      1867.9524
  -1043328.68048   -812713.70346  21764226.6604   21764225.0904
      -488.8024
 04  9 10 22 24  0.0040000  0  7G19G 3G 8G13G10G28G27
  -5085902.18047  -3958212.33244  23453286.8634   23453284.2114
      -474.3344
   6082025.25847   4740250.91842  24675002.5194   24675003.6174
     -2889.9004
  -9143755.97349  -7115520.40246  21967986.4804   21967985.2114
       675.4254
  10649399.25449   8293316.97345  22429130.8634   22429129.9574
     -3270.6344
  -1582279.80147  -1229039.85542  24434476.0984   24434476.6484
      -566.8504
  -6743659.89148  -5248060.19144  23620689.4104   23620688.2464
      1862.5824
  -1035934.15248   -806951.73846  21765633.8874   21765631.8944
      -492.9684
 04  9 10 22 24 15.0040000  0  7G19G 3G 8G13G10G28G27
  -5078634.59847  -3952549.27044  23454669.7934   23454667.3244
      -484.5054
   6125504.23847   4774130.63742  24683276.0514   24683276.4924
     -2898.5994
  -9153819.33649  -7123361.97746  21966071.5514   21966070.6094
       670.8914
  10698574.34848   8331635.21545  22438488.3634   22438487.0554
     -3278.3404
  -1573621.75847  -1222293.33242  24436123.7544   24436123.9804
      -577.2034
  -6771517.32848  -5269767.25044  23615387.7234   23615386.9024
      1857.1624
  -1028476.44549   -801140.53546  21767052.7854   21767051.2544
      -497.1804
 04  9 10 22 24 30.0040000  0  7G19G 3G 8G13G10G28G27
  -5071212.23848  -3946765.61344  23456082.5744   23456079.4374
      -494.8244
   6169115.68847   4808113.57442  24691574.9964   24691575.7694
     -2907.4304
  -9163812.50049  -7131148.85246  21964169.8554   21964168.7664
       666.2114
  10747866.98448   8370045.04345  22447868.6524   22447867.1954
     -3286.1764
  -1564806.32447  -1215424.17242  24437801.5824   24437801.8874
      -587.6964
  -6799291.24648  -5291409.21544  23610102.8244   23610102.3054
      1851.5954
  -1020953.44549   -795278.45746  21768484.2774   21768482.8874
      -501.5334
 04  9 10 22 24 45.0040000  0  7G19G 3G 8G13G10G28G27
  -5063638.38347  -3940863.88744  23457523.9494   23457520.7974
      -504.9244
   6212855.91448   4842196.87142  24699898.7074   24699898.1174
     -2916.0154
  -9173738.89148  -7138883.69546  21962280.9884   21962279.8484
       661.7594
  10797273.65248   8408543.72345  22457270.2074   22457269.1564
     -3293.7784
  -1555836.83247  -1208434.97342  24439508.0744   24439508.4534
      -597.9664
  -6826984.91448  -5312988.66044  23604832.6914   23604832.1564
      1846.2454
  -1013368.38749   -789368.02046  21769928.0274   21769926.6134
      -505.6714
 04  9 10 22 25  0.0040000  0  7G19G 3G 8G13G10G28G27
  -5055912.05547  -3934843.36744  23458993.9574   23458991.3754
      -515.0894
   6256725.60547   4876381.02742  24708246.5594   24708246.8944
     -2924.6464
  -9183597.48848  -7146565.71546  21960405.1684   21960404.1844
       657.2404
  10846795.16048   8447131.89845  22466693.8164   22466692.9184
     -3301.4344
  -1546712.52747  -1201325.13342  24441244.2384   24441244.4264
      -608.2874
  -6854597.17248  -5334504.66844  23599578.8794   23599577.2854
      1840.8174
  -1005720.24249   -783408.41846  21771383.1764   21771381.7384
      -509.8764
 04  9 10 22 25 15.0040000  0  7G19G 3G 8G13G10G28G27
  -5048030.43447  -3928701.83644  23460493.8874   23460491.4694
      -525.4414
   6300727.23047   4910668.00442  24716619.7544   24716620.0514
     -2933.4424
  -9193385.44148  -7154192.68446  21958542.3244   21958541.4374
       652.5304
  10896433.96548   8485811.46545  22476139.8014   22476138.7854
     -3309.2544
  -1537430.75447  -1194092.56642  24443011.0514   24443011.0904
      -618.7854
  -6882125.26248  -5355955.09044  23594340.2694   23594338.7344
      1835.2064
   -998006.17648   -777397.45346  21772850.9494   21772850.0784
      -514.2714
 04  9 10 22 25 30.0040000  0  7G19G 3G 8G13G10G28G27
  -5039996.32847  -3922441.48444  23462022.4184   23462020.1564
      -535.6074
   6344857.64147   4945055.29742  24725017.5354   24725017.7584
     -2942.0274
  -9203105.52749  -7161766.76646  21956692.6764   21956691.9224
       648.0064
  10946186.89548   8524579.96945  22485607.5984   22485606.0474
     -3316.8624
  -1527994.43747  -1186739.60942  24444806.3554   24444806.5864
      -629.0884
  -6909571.89548  -5377342.05144  23589117.3634   23589116.5554
      1829.7764
   -990229.19548   -771337.46946  21774330.8634   21774329.5084
      -518.4654
 04  9 10 22 25 45.0040000  0  7G19G 3G 8G13G10G28G27
  -5031807.65647  -3916060.69944  23463580.5984   23463578.2034
      -545.9114
   6389118.35247   4979544.16042  24733440.3094   24733441.1954
     -2950.7144
  -9212756.01649  -7169286.61346  21954856.3014   21954855.2304
       643.3664
  10996055.71148   8563438.76645  22495097.4104   22495096.1994
     -3324.5884
  -1518401.58247  -1179264.64542  24446631.6604   24446632.4304
      -639.5244
  -6936935.09048  -5398663.98443  23583910.2154   23583909.2464
      1824.2134
   -982387.24648   -765226.85946  21775823.1374   21775821.7194
      -522.7974
 04  9 10 22 26  0.0040000  0  7G19G 3G 8G13G10G28G27
  -5023465.03947  -3909559.94944  23465168.3794   23465165.7664
      -556.1744
   6433508.49247   5014133.87542  24741886.8944   24741887.8914
     -2959.3434
  -9222337.36349  -7176752.59446  21953032.9964   21953032.1954
       638.7574
  11046039.54349   8602387.18445  22504608.9574   22504607.6094
     -3332.2554
  -1508652.95347  -1171668.34042  24448487.2074   24448486.8284
      -649.9094
  -6964215.42648  -5419921.34843  23578719.2074   23578717.6484
      1818.6894
   -974480.87949   -759066.05546  21777327.7694   21777326.4064
      -527.0914
 04  9 10 22 26 15.0040000  0  7G19G 3G 8G13G10G28G27
  -5014969.16448  -3902939.77044  23466784.7624   23466782.3634
      -566.3924
   6478027.33647   5048823.87142  24750359.1294   24750359.4574
     -2967.9234
  -9231850.07849  -7184165.09046  21951222.6994   21951221.6994
       634.1814
  11096137.50849   8641424.54745  22514142.2544   22514140.9344
     -3339.8644
  -1498749.23848  -1163951.14542  24450371.8324   24450371.4654
      -660.2484
  -6991413.44948  -5441114.58243  23573542.4734   23573541.7424
      1813.2024
   -966510.62149   -752855.46146  21778844.5354   21778842.9024
      -531.3514
 04  9 10 22 26 30.0040000  0  7G19G 3G 8G13G10G28G27
  -5006317.92248  -3896198.53544  23468431.3634   23468428.3244
      -576.7494
   6522676.44547   5083615.37142  24758855.8714   24758856.0434
     -2976.6074
  -9241292.29349  -7191522.65646  21949425.8874   21949425.1374
       629.4814
  11146351.35249   8680552.19945  22523697.7234   22523696.5394
     -3347.5904
  -1488688.55947  -1156111.65642  24452286.0514   24452286.7154
      -670.7124
  -7018527.14848  -5462242.09044  23568383.4804   23568382.4414
      1807.5804
   -958474.52049   -746593.55946  21780373.3164   21780372.3674
      -535.7404
 04  9 10 22 26 45.0040000  0  7G19G 3G 8G13G10G28G27
  -4997510.92648  -3889335.92244  23470107.3094   23470104.3054
      -587.1334
   6567455.75447   5118508.32442  24767376.8944   24767377.1844
     -2985.2874
  -9250663.53549  -7198824.91446  21947642.4414   21947641.4184
       624.7494
  11196681.34448   8719770.35945  22533275.1604   22533274.4804
     -3355.3334
  -1478470.66447  -1148149.67642  24454230.5044   24454231.0984
      -681.1934
  -7045556.14548  -5483303.63344  23563239.9654   23563239.0164
      1801.9334
   -950372.18749   -740280.05546  21781915.5124   21781914.4224
      -540.1554
 04  9 10 22 27  0.0040000  0  7G19G 3G 8G13G10G28G27
  -4988550.53548  -3882353.78944  23471812.3244   23471809.7234
      -597.3594
   6612362.69147   5153500.73842  24775922.5194   24775922.5044
     -2993.7964
  -9259966.14149  -7206073.69546  21945872.4264   21945871.1414
       620.1744
  11247124.97349   8759077.06345  22542874.2234   22542872.9494
     -3362.9094
  -1468097.98447  -1140067.06242  24456203.8324   24456204.4654
      -691.5124
  -7072502.62148  -5504300.83644  23558112.5194   23558110.5044
      1796.4324
   -942205.85949   -733916.68446  21783469.4344   21783468.4144
      -544.4224
 04  9 10 22 27 15.0040000  0  7G19G 3G 8G13G10G28G27
  -4979434.64548  -3875250.48844  23473547.1134   23473544.7854
      -607.7264
   6657399.08247   5188594.00042  24784492.2074   24784492.7584
     -3002.4264
  -9269197.98449  -7213267.32846  21944115.5354   21944114.8124
       615.4564
  11297683.97349   8798473.66845  22552495.3714   22552494.0084
     -3370.6004
  -1457568.52347  -1131862.28542  24458207.9184   24458207.8284
      -701.9644
  -7099364.36748  -5525232.03544  23553000.9884   23552999.3674
      1790.7834
   -933973.57049   -727501.90246  21785036.1914   21785034.8634
      -548.8194
 04  9 10 22 27 30.0040000  0  7G19G 3G 8G13G10G28G27
  -4970163.64848  -3868026.32044  23475311.1604   23475308.6564
      -618.0664
   6702564.18447   5223787.58242  24793086.3094   24793087.5944
     -3011.0074
  -9278359.16449  -7220405.89546  21942372.2464   21942371.2464
       610.7454
  11348357.60949   8837959.60245  22562138.4574   22562137.0944
     -3378.2424
  -1446882.70347  -1123535.67642  24460241.9884   24460241.6994
      -712.3884
  -7126141.70348  -5546097.46543  23547905.1374   23547903.7624
      1785.1564
   -925675.67649   -721036.01246  21786615.1374   21786613.6954
      -553.1934
 04  9 10 22 27 45.0040000  0  7G19G 3G 8G13G10G28G27
  -4960740.53148  -3860683.61344  23477104.2774   23477101.3834
      -628.2084
   6747854.66447   5259078.82842  24801705.3554   24801706.9804
     -3019.3654
  -9287452.85549  -7227491.89146  21940641.9804   21940640.8444
       606.2464
  11399142.71149   8877532.38745  22571802.5194   22571801.1564
     -3385.6734
  -1436043.69947  -1115089.70342  24462304.2694   24462304.3984
      -722.6004
  -7152837.74648  -5566899.54743  23542824.8324   23542823.2274
      1779.7364
   -917315.09849   -714521.27046  21788205.8874   21788204.5514
      -557.3724
 04  9 10 22 28  0.0040000  0  7G19G 3G 8G13G10G28G27
  -4951167.19548  -3853223.85244  23478926.1844   23478923.1294
      -638.2224
   6793268.28147   5294466.05542  24810347.0514   24810347.9184
     -3027.5744
  -9296481.15249  -7234526.92246  21938924.0274   21938922.7694
       601.8864
  11450037.03549   8917190.28145  22581487.2154   22581486.0624
     -3392.9554
  -1425053.65248  -1106526.02742  24464395.9024   24464395.4654
      -732.6704
  -7179454.42248  -5587639.78144  23537759.7694   23537758.8714
      1774.4454
   -908893.77049   -707959.19946  21789808.7694   21789807.4374
      -561.4224
 04  9 10 22 28 15.0040000  0  7G19G 3G 8G13G10G28G27
  -4941442.23448  -3845645.95744  23480776.4184   23480774.1174
      -648.3314
   6838806.07047   5329950.04342  24819012.8554   24819013.6684
     -3035.8534
  -9305442.55949  -7241509.82846  21937218.6684   21937217.3484
       597.4274
  11501041.66049   8956934.12545  22591193.3874   22591191.6444
     -3400.3084
  -1413911.25047  -1097843.63742  24466515.5664   24466516.2034
      -742.8274
  -7205990.18748  -5608316.95343  23532710.3634   23532709.4374
      1769.0514
   -900410.29749   -701348.69146  21791422.8944   21791421.6524
      -565.5654
 04  9 10 22 28 30.0040000  0  7G19G 3G 8G13G10G28G27
  -4931565.67648  -3837949.92244  23482656.0514   23482653.8714
      -658.4374
   6884467.66047   5365530.48442  24827702.4574   24827702.0474
     -3044.1064
  -9314336.95749  -7248440.52346  21935526.2074   21935524.5594
       592.9604
  11552156.39849   8996763.77345  22600919.8874   22600918.4924
     -3407.6494
  -1402616.57048  -1089042.59842  24468665.0354   24468665.3094
      -752.9794
  -7232444.96548  -5628931.03544  23527676.1134   23527674.9614
      1763.6524
   -891864.76649   -694689.84046  21793049.1764   21793047.8404
      -569.7024
 04  9 10 22 28 45.0040000  0  7G19G 3G 8G13G10G28G27
  -4921539.97348  -3830137.67244  23484563.5744   23484561.5274
      -668.3804
   6930250.27047   5401205.23842  24836413.6764   24836414.3284
     -3052.1744
  -9323166.72749  -7255320.85246  21933845.8404   21933844.5004
       588.6514
  11603378.62549   9036677.18045  22610667.3794   22610666.0354
     -3414.8154
  -1391172.31647  -1080125.00042  24470843.0514   24470843.5164
      -762.9504
  -7258821.23448  -5649483.93744  23522656.8094   23522655.7384
      1758.4184
   -883259.52049   -687984.44946  21794686.9104   21794685.4344
      -573.6834
 04  9 10 22 29  0.0040000  0  7G19G 3G 8G13G10G28G27
  -4911362.62948  -3822207.25844  23486501.0124   23486498.7544
      -678.4904
   6976156.19947   5436976.07442  24845149.7234   24845150.0004
     -3060.3954
  -9331929.44149  -7262148.93046  21932178.2624   21932177.3094
       584.1814
  11654710.53549   9076676.04745  22620435.2544   22620433.9804
     -3422.1274
  -1379575.89148  -1071088.82443  24473049.9414   24473049.6644
      -773.0954
  -7285116.34448  -5669973.59444  23517653.0594   23517651.6024
      1753.0074
   -874591.97349   -681230.51246  21796336.2694   21796335.0784
      -577.8364
 04  9 10 22 29 15.0040000  0  7G19G 3G 8G13G10G28G27
  -4901027.76648  -3814154.11344  23488467.4964   23488465.0084
      -688.9914
   7022190.88747   5472847.25042  24853909.4184   24853909.4414
     -3068.9794
  -9340619.49249  -7268920.39146  21930524.7074   21930523.4534
       579.3374
  11706157.55949   9116764.62145  22630225.5824   22630224.3484
     -3429.8024
  -1367821.65647  -1061929.68042  24475286.4964   24475286.8164
      -783.6164
  -7311324.41048  -5690395.43444  23512665.9344   23512664.0704
      1747.2044
   -865856.29749   -674423.49646  21797998.4734   21797997.1764
      -582.3784
 04  9 10 22 29 30.0040000  0  7G19G 3G 8G13G10G28G27
  -4890537.79348  -3805980.10544  23490463.5904   23490460.9654
      -699.3324
   7068351.51247   5508816.53942  24862694.4104   24862694.3124
     -3077.3754
  -9349238.98449  -7275636.86746  21928884.4414   21928883.0784
       574.6334
  11757717.08249   9156940.85544  22640037.0594   22640035.4734
     -3437.3024
  -1355912.30947  -1052649.68442  24477552.7304   24477553.5194
      -793.9574
  -7337447.89848  -5710751.36744  23507694.7694   23507693.4024
      1741.5664
   -857055.11349   -667565.42246  21799673.1844   21799671.6024
      -586.7464
 04  9 10 22 29 45.0040000  0  7G19G 3G 8G13G10G28G27
  -4879893.83648  -3797686.08644  23492488.9964   23492486.2544
      -709.5974
   7114636.78947   5544882.96542  24871502.0514   24871503.1444
     -3085.6854
  -9357788.84449  -7282299.08646  21927257.5044   21927256.5164
       569.9914
  11809387.79749   9197203.73445  22649869.4804   22649868.8164
     -3444.7144
  -1343848.78948  -1043249.53542  24479848.4574   24479848.8404
      -804.2354
  -7363487.73448  -5731042.11744  23502739.2544   23502738.2544
      1735.9894
   -848189.17249   -660656.90246  21801360.1054   21801358.6994
      -591.0634
 04  9 10 22 30  0.0040000  0  7G19G 3G 8G13G10G28G27
  -4869096.40248  -3789272.48444  23494543.5274   23494541.0124
      -719.8294
   7161045.84847   5581045.85242  24880332.8794   24880334.0704
     -3093.9374
  -9366269.86749  -7288907.68046  21925643.3634   21925642.2894
       565.4024
  11861169.00049   9237552.70344  22659723.2234   22659722.0554
     -3452.0804
  -1331631.89547  -1033729.88342  24482172.4104   24482173.3634
      -814.4604
  -7389444.45348  -5751268.09044  23497800.3244   23497798.6604
      1730.4484
   -839259.10949   -653698.40646  21803059.5904   21803058.7974
      -595.3374
 04  9 10 22 30 15.0040000  0  7G19G 3G 8G13G10G28G27
  -4858140.41448  -3780735.34044  23496628.4264   23496625.8794
      -730.3994
   7207583.37147   5617308.83642  24889188.7624   24889189.2304
     -3102.5024
  -9374676.86748  -7295458.57846  21924043.6054   21924042.6054
       560.4674
  11913065.53948   9277991.53945  22669599.0594   22669597.7464
     -3459.7694
  -1319256.60947  -1024086.80542  24484527.6844   24484528.4374
      -825.0194
  -7415312.95748  -5771425.34044  23492877.5904   23492875.7854
      1724.5674
   -830259.77349   -646685.93746  21804771.9024   21804770.9374
      -599.9564
 04  9 10 22 30 30.0040000  0  7G19G 3G 8G13G10G28G27
  -4847026.21948  -3772074.91844  23498743.2544   23498740.5194
      -740.9464
   7254248.64146   5653671.34442  24898069.3404   24898069.7934
     -3111.0184
  -9383010.24249  -7301952.10946  21922458.0124   21922456.6684
       555.5584
  11965076.71148   9318519.70345  22679496.1994   22679495.1524
     -3467.4114
  -1306723.46147  -1014320.71142  24486913.2934   24486913.5314
      -835.5434
  -7441093.56648  -5791514.09444  23487971.0664   23487970.4184
      1718.7074
   -821191.57049   -639619.80546  21806497.8794   21806496.8634
      -604.5474
 04  9 10 22 30 45.0040000  0  7G19G 3G 8G13G10G28G27
  -4835756.63748  -3763293.41444  23500888.1374   23500885.5234
      -751.3054
   7301038.58247   5690131.04742  24906973.2774   24906973.2894
     -3119.3294
  -9391272.53949  -7308390.24646  21920885.5514   21920884.6094
       550.8204
  12017199.44148   9359134.80145  22689414.8874   22689413.5124
     -3474.8494
  -1294035.35947  -1004433.89543  24489327.1294   24489327.4574
      -845.8734
  -7466788.97748  -5811536.45344  23483081.6524   23483080.3914
      1713.0274
   -812057.24649   -632502.14546  21808235.8714   21808234.5314
      -608.9554
 04  9 10 22 31  0.0040000  0  7G19G 3G 8G13G10G28G27
  -4824332.56648  -3754391.52044  23503061.5744   23503059.5234
      -761.6054
   7347951.98447   5726686.94142  24915900.7384   24915900.6294
     -3127.5604
  -9399464.57849  -7314773.64546  21919326.8014   21919325.8674
       546.1364
  12069432.57048   9399835.91445  22699354.8634   22699353.2854
     -3482.2094
  -1281193.32447   -994427.09842  24491771.0354   24491770.6994
      -856.1364
  -7492400.03148  -5831493.09044  23478208.1214   23478207.3204
      1707.4044
   -802857.62949   -625333.60546  21809986.5744   21809985.3524
      -613.3084
 04  9 10 22 31 15.0040000  0  7G19G 3G 8G13G10G28G27
  -4812754.16048  -3745369.38744  23505265.2074   23505262.2664
      -771.8944
   7394988.24647   5763338.57042  24924851.5744   24924851.9184
     -3135.7514
  -9407586.73849  -7321102.59446  21917780.9884   21917780.1094
       541.4774
  12121775.74248   9440622.78945  22709315.2854   22709314.0984
     -3489.5454
  -1268197.62148   -984300.56242  24494244.2074   24494244.3674
      -866.3804
  -7517926.86348  -5851384.09844  23473350.6994   23473349.4184
      1701.7894
   -793592.99249   -618114.41046  21811749.3554   21811748.3124
      -617.6424
 04  9 10 22 31 30.0040000  0  7G19G 3G 8G13G10G28G27
  -4801025.14548  -3736229.88344  23507496.9654   23507494.5194
      -781.9344
   7442143.44547   5800082.84442  24933824.5434   24933825.5864
     -3143.6804
  -9415642.57049  -7327379.85546  21916248.3944   21916247.4224
       537.0554
  12174225.00448   9481492.32445  22719295.8874   22719294.7584
     -3496.6174
  -1255052.14147   -974057.34442  24496745.5194   24496745.9574
      -876.3654
  -7543373.16448  -5871212.35544  23468508.4414   23468507.1134
      1696.4204
   -784266.87949   -610847.31246  21813524.3794   21813522.9264
      -621.7414
 04  9 10 22 31 45.0040000  0  7G19G 3G 8G13G10G28G27
  -4789143.66848  -3726971.57444  23509758.1844   23509755.4264
      -792.0984
   7489419.16447   5836921.05942  24942820.4024   24942821.5234
     -3151.7154
  -9423630.08249  -7333603.88746  21914728.0434   21914727.2584
       532.5014
  12226781.82848   9522445.66845  22729297.0354   22729296.0474
     -3503.7884
  -1241755.03947   -963695.98842  24499276.0044   24499276.5084
      -886.4734
  -7568737.00048  -5890976.34444  23463681.4804   23463680.7344
      1690.9224
   -774877.41849   -603530.84046  21815310.9264   21815309.3284
      -625.9644
 04  9 10 22 32  0.0040000  0  7G19G 3G 8G13G10G28G27
  -4777103.49648  -3717589.61344  23512048.9884   23512046.9374
      -802.6784
   7536821.26647   5873857.72742  24951840.3404   24951842.3524
     -3160.1404
  -9431543.22349  -7339769.95746  21913222.4574   21913221.0124
       527.5434
  12279452.25448   9563487.53945  22739320.2234   22739318.8014
     -3511.3624
  -1228300.35547   -953211.80142  24501836.5194   24501836.5124
      -896.9794
  -7594012.11748  -5910671.21144  23458871.9964   23458870.3524
      1685.0084
   -765418.47749   -596160.23446  21817110.8094   21817109.6874
      -630.5964
 04  9 10 22 32 15.0040000  0  7G19G 3G 8G13G10G28G27
  -4764906.36748  -3708085.34044  23514370.0984   23514367.7304
      -813.1424
   7584347.76647   5910891.32442  24960885.4734   24960885.3124
     -3168.4334
  -9439383.51649  -7345879.27046  21911730.1374   21911728.9884
       522.6864
  12332234.40248   9604616.46945  22749364.1444   22749363.2424
     -3518.8104
  -1214689.71547   -942606.11742  24504426.6444   24504426.5984
      -907.3764
  -7619200.04348  -5930298.14144  23454078.8484   23454077.3364
      1679.1954
   -755891.50449   -588736.62546  21818924.1444   21818922.5904
      -635.1324
 04  9 10 22 32 30.0040000  0  7G19G 3G 8G13G10G28G27
  -4752552.91848  -3698459.26644  23516720.7384   23516718.1644
      -823.5634
   7631997.71147   5948021.16042  24969952.5744   24969953.0664
     -3176.6634
  -9447151.52749  -7351932.25446  21910252.3094   21910250.8054
       517.8674
  12385127.33248   9645831.72745  22759429.5044   22759428.3014
     -3526.1954
  -1200924.02047   -931879.60942  24507045.8404   24507045.6724
      -917.7134
  -7644301.44548  -5949857.64144  23449301.9184   23449300.6914
      1673.4274
   -746297.18749   -581260.52346  21820749.6214   21820748.5044
      -639.6214
